<?xml version="1.0" encoding="UTF-8" standalone="no" ?>
<gpx xmlns="http://www.topografix.com/GPX/1/1" xmlns:xsi="http://www.w3.org/2001/XMLSchema-instance" xsi:schemaLocation="http://www.topografix.com/GPX/1/1 http://www.topografix.com/GPX/1/1/gpx.xsd" version="1.1" creator="VisuGPX - https://www.visugpx.com">
  <metadata>
    <name>Pyrénées_Boucle départ d'Espelette passage au Col de Saint Ignace</name>
  </metadata>
  <trk>
    <name><![CDATA[Pyrénées_Boucle départ d'Espelette passage au Col de Saint Ignace_1]]></name>
    <trkseg>
      <trkpt lat="43.35329" lon="-1.44965">
        <ele>36.8</ele>
      </trkpt>
      <trkpt lat="43.35326" lon="-1.45">
        <ele>34</ele>
      </trkpt>
      <trkpt lat="43.35321" lon="-1.44987">
        <ele>34.9</ele>
      </trkpt>
      <trkpt lat="43.35314" lon="-1.44969">
        <ele>36.3</ele>
      </trkpt>
      <trkpt lat="43.35318" lon="-1.44952">
        <ele>37.8</ele>
      </trkpt>
      <trkpt lat="43.35318" lon="-1.44949">
        <ele>38.1</ele>
      </trkpt>
      <trkpt lat="43.35309" lon="-1.44934">
        <ele>38.8</ele>
      </trkpt>
      <trkpt lat="43.35309" lon="-1.44918">
        <ele>39.8</ele>
      </trkpt>
      <trkpt lat="43.35304" lon="-1.44911">
        <ele>40.2</ele>
      </trkpt>
      <trkpt lat="43.35295" lon="-1.44911">
        <ele>40.2</ele>
      </trkpt>
      <trkpt lat="43.35288" lon="-1.44913">
        <ele>40.1</ele>
      </trkpt>
      <trkpt lat="43.3528" lon="-1.44909">
        <ele>40.3</ele>
      </trkpt>
      <trkpt lat="43.35272" lon="-1.44909">
        <ele>40.3</ele>
      </trkpt>
      <trkpt lat="43.35265" lon="-1.44913">
        <ele>40.1</ele>
      </trkpt>
      <trkpt lat="43.3525" lon="-1.44914">
        <ele>40.1</ele>
      </trkpt>
      <trkpt lat="43.35242" lon="-1.44905">
        <ele>40.6</ele>
      </trkpt>
      <trkpt lat="43.35231" lon="-1.4491">
        <ele>40.4</ele>
      </trkpt>
      <trkpt lat="43.35217" lon="-1.44893">
        <ele>41.1</ele>
      </trkpt>
      <trkpt lat="43.35207" lon="-1.44879">
        <ele>40.2</ele>
      </trkpt>
      <trkpt lat="43.35197" lon="-1.44868">
        <ele>38.6</ele>
      </trkpt>
      <trkpt lat="43.35193" lon="-1.44853">
        <ele>38.1</ele>
      </trkpt>
      <trkpt lat="43.35186" lon="-1.44835">
        <ele>37.5</ele>
      </trkpt>
      <trkpt lat="43.3518" lon="-1.4483">
        <ele>36.3</ele>
      </trkpt>
      <trkpt lat="43.35168" lon="-1.4482">
        <ele>34.7</ele>
      </trkpt>
      <trkpt lat="43.35157" lon="-1.44823">
        <ele>34.7</ele>
      </trkpt>
      <trkpt lat="43.3515" lon="-1.44825">
        <ele>34.9</ele>
      </trkpt>
      <trkpt lat="43.35137" lon="-1.44835">
        <ele>35.1</ele>
      </trkpt>
      <trkpt lat="43.35123" lon="-1.44844">
        <ele>35.3</ele>
      </trkpt>
      <trkpt lat="43.35116" lon="-1.44847">
        <ele>35.1</ele>
      </trkpt>
      <trkpt lat="43.35106" lon="-1.44847">
        <ele>35.3</ele>
      </trkpt>
      <trkpt lat="43.35093" lon="-1.4485">
        <ele>35.8</ele>
      </trkpt>
      <trkpt lat="43.35083" lon="-1.44848">
        <ele>36.5</ele>
      </trkpt>
      <trkpt lat="43.35075" lon="-1.44846">
        <ele>36.7</ele>
      </trkpt>
      <trkpt lat="43.3506" lon="-1.44846">
        <ele>36.9</ele>
      </trkpt>
      <trkpt lat="43.35051" lon="-1.44852">
        <ele>37.2</ele>
      </trkpt>
      <trkpt lat="43.35043" lon="-1.44859">
        <ele>37.5</ele>
      </trkpt>
      <trkpt lat="43.35036" lon="-1.44872">
        <ele>37.4</ele>
      </trkpt>
      <trkpt lat="43.35021" lon="-1.44883">
        <ele>37.9</ele>
      </trkpt>
      <trkpt lat="43.35004" lon="-1.44897">
        <ele>39.1</ele>
      </trkpt>
      <trkpt lat="43.34994" lon="-1.44912">
        <ele>39.4</ele>
      </trkpt>
      <trkpt lat="43.34987" lon="-1.44918">
        <ele>40.2</ele>
      </trkpt>
      <trkpt lat="43.34976" lon="-1.44928">
        <ele>41.1</ele>
      </trkpt>
      <trkpt lat="43.34968" lon="-1.4494">
        <ele>41.1</ele>
      </trkpt>
      <trkpt lat="43.34956" lon="-1.44949">
        <ele>41.8</ele>
      </trkpt>
      <trkpt lat="43.34943" lon="-1.44955">
        <ele>42.5</ele>
      </trkpt>
      <trkpt lat="43.34928" lon="-1.44958">
        <ele>42.3</ele>
      </trkpt>
      <trkpt lat="43.34919" lon="-1.44957">
        <ele>59.26</ele>
        <time>2023-08-12T07:41:13Z</time>
      </trkpt>
      <trkpt lat="43.34919" lon="-1.44955">
        <ele>59.74</ele>
        <time>2023-08-12T07:41:14Z</time>
      </trkpt>
      <trkpt lat="43.34919" lon="-1.44952">
        <ele>59.74</ele>
        <time>2023-08-12T07:41:15Z</time>
      </trkpt>
      <trkpt lat="43.34918" lon="-1.4495">
        <ele>60.22</ele>
        <time>2023-08-12T07:41:16Z</time>
      </trkpt>
      <trkpt lat="43.34917" lon="-1.44949">
        <ele>60.7</ele>
        <time>2023-08-12T07:41:17Z</time>
      </trkpt>
      <trkpt lat="43.34915" lon="-1.44948">
        <ele>60.7</ele>
        <time>2023-08-12T07:41:18Z</time>
      </trkpt>
      <trkpt lat="43.34914" lon="-1.44947">
        <ele>61.66</ele>
        <time>2023-08-12T07:41:19Z</time>
      </trkpt>
      <trkpt lat="43.34913" lon="-1.44946">
        <ele>61.66</ele>
        <time>2023-08-12T07:41:20Z</time>
      </trkpt>
      <trkpt lat="43.34904" lon="-1.44934">
        <ele>63.58</ele>
        <time>2023-08-12T07:41:31Z</time>
      </trkpt>
      <trkpt lat="43.34897" lon="-1.44919">
        <ele>65.03</ele>
        <time>2023-08-12T07:41:46Z</time>
      </trkpt>
      <trkpt lat="43.34896" lon="-1.4492">
        <ele>65.51</ele>
        <time>2023-08-12T07:42:10Z</time>
      </trkpt>
      <trkpt lat="43.34909" lon="-1.44918">
        <ele>65.03</ele>
        <time>2023-08-12T07:42:35Z</time>
      </trkpt>
      <trkpt lat="43.34905" lon="-1.44919">
        <ele>64.55</ele>
        <time>2023-08-12T07:43:11Z</time>
      </trkpt>
      <trkpt lat="43.34901" lon="-1.44918">
        <ele>65.03</ele>
        <time>2023-08-12T07:43:43Z</time>
      </trkpt>
      <trkpt lat="43.34896" lon="-1.44911">
        <ele>65.03</ele>
        <time>2023-08-12T07:44:15Z</time>
      </trkpt>
      <trkpt lat="43.34899" lon="-1.44913">
        <ele>64.55</ele>
        <time>2023-08-12T07:44:52Z</time>
      </trkpt>
      <trkpt lat="43.34901" lon="-1.44912">
        <ele>64.55</ele>
        <time>2023-08-12T07:45:24Z</time>
      </trkpt>
      <trkpt lat="43.34901" lon="-1.44911">
        <ele>64.55</ele>
        <time>2023-08-12T07:45:25Z</time>
      </trkpt>
      <trkpt lat="43.34905" lon="-1.44882">
        <ele>65.51</ele>
        <time>2023-08-12T07:45:37Z</time>
      </trkpt>
      <trkpt lat="43.34905" lon="-1.44845">
        <ele>67.43</ele>
        <time>2023-08-12T07:45:52Z</time>
      </trkpt>
      <trkpt lat="43.34904" lon="-1.44843">
        <ele>67.43</ele>
        <time>2023-08-12T07:45:53Z</time>
      </trkpt>
      <trkpt lat="43.34904" lon="-1.4484">
        <ele>67.43</ele>
        <time>2023-08-12T07:45:54Z</time>
      </trkpt>
      <trkpt lat="43.34903" lon="-1.44839">
        <ele>67.91</ele>
        <time>2023-08-12T07:45:55Z</time>
      </trkpt>
      <trkpt lat="43.34901" lon="-1.44837">
        <ele>67.91</ele>
        <time>2023-08-12T07:45:56Z</time>
      </trkpt>
      <trkpt lat="43.34899" lon="-1.44837">
        <ele>67.91</ele>
        <time>2023-08-12T07:45:57Z</time>
      </trkpt>
      <trkpt lat="43.34871" lon="-1.44823">
        <ele>69.83</ele>
        <time>2023-08-12T07:46:13Z</time>
      </trkpt>
      <trkpt lat="43.34848" lon="-1.44815">
        <ele>70.31</ele>
        <time>2023-08-12T07:46:27Z</time>
      </trkpt>
      <trkpt lat="43.34814" lon="-1.44793">
        <ele>73.2</ele>
        <time>2023-08-12T07:46:48Z</time>
      </trkpt>
      <trkpt lat="43.34789" lon="-1.44769">
        <ele>74.16</ele>
        <time>2023-08-12T07:47:03Z</time>
      </trkpt>
      <trkpt lat="43.34784" lon="-1.44734">
        <ele>75.12</ele>
        <time>2023-08-12T07:47:19Z</time>
      </trkpt>
      <trkpt lat="43.34768" lon="-1.44705">
        <ele>75.12</ele>
        <time>2023-08-12T07:47:31Z</time>
      </trkpt>
      <trkpt lat="43.34743" lon="-1.44684">
        <ele>71.76</ele>
        <time>2023-08-12T07:47:37Z</time>
      </trkpt>
      <trkpt lat="43.34731" lon="-1.44677">
        <ele>70.79</ele>
        <time>2023-08-12T07:47:39Z</time>
      </trkpt>
      <trkpt lat="43.34691" lon="-1.44646">
        <ele>71.76</ele>
        <time>2023-08-12T07:47:49Z</time>
      </trkpt>
      <trkpt lat="43.34676" lon="-1.44623">
        <ele>73.2</ele>
        <time>2023-08-12T07:48:03Z</time>
      </trkpt>
      <trkpt lat="43.34671" lon="-1.44615">
        <ele>74.64</ele>
        <time>2023-08-12T07:48:10Z</time>
      </trkpt>
      <trkpt lat="43.34657" lon="-1.44578">
        <ele>76.56</ele>
        <time>2023-08-12T07:48:26Z</time>
      </trkpt>
      <trkpt lat="43.34634" lon="-1.44546">
        <ele>79.93</ele>
        <time>2023-08-12T07:48:42Z</time>
      </trkpt>
      <trkpt lat="43.34611" lon="-1.44532">
        <ele>82.33</ele>
        <time>2023-08-12T07:48:57Z</time>
      </trkpt>
      <trkpt lat="43.34586" lon="-1.4452">
        <ele>84.25</ele>
        <time>2023-08-12T07:49:13Z</time>
      </trkpt>
      <trkpt lat="43.34562" lon="-1.44502">
        <ele>86.66</ele>
        <time>2023-08-12T07:49:31Z</time>
      </trkpt>
      <trkpt lat="43.34541" lon="-1.44481">
        <ele>89.06</ele>
        <time>2023-08-12T07:49:49Z</time>
      </trkpt>
      <trkpt lat="43.34526" lon="-1.44462">
        <ele>90.98</ele>
        <time>2023-08-12T07:50:04Z</time>
      </trkpt>
      <trkpt lat="43.34511" lon="-1.44439">
        <ele>93.87</ele>
        <time>2023-08-12T07:50:20Z</time>
      </trkpt>
      <trkpt lat="43.34494" lon="-1.44417">
        <ele>95.79</ele>
        <time>2023-08-12T07:50:35Z</time>
      </trkpt>
      <trkpt lat="43.34479" lon="-1.44394">
        <ele>97.71</ele>
        <time>2023-08-12T07:50:50Z</time>
      </trkpt>
      <trkpt lat="43.34447" lon="-1.44369">
        <ele>97.71</ele>
        <time>2023-08-12T07:51:08Z</time>
      </trkpt>
      <trkpt lat="43.3444" lon="-1.4436">
        <ele>97.71</ele>
        <time>2023-08-12T07:51:18Z</time>
      </trkpt>
      <trkpt lat="43.34437" lon="-1.4436">
        <ele>97.71</ele>
        <time>2023-08-12T07:51:33Z</time>
      </trkpt>
      <trkpt lat="43.34438" lon="-1.44357">
        <ele>97.71</ele>
        <time>2023-08-12T07:51:53Z</time>
      </trkpt>
      <trkpt lat="43.34437" lon="-1.44358">
        <ele>97.71</ele>
        <time>2023-08-12T07:52:11Z</time>
      </trkpt>
      <trkpt lat="43.34436" lon="-1.44361">
        <ele>97.23</ele>
        <time>2023-08-12T07:52:34Z</time>
      </trkpt>
      <trkpt lat="43.34445" lon="-1.4436">
        <ele>97.23</ele>
        <time>2023-08-12T07:53:07Z</time>
      </trkpt>
      <trkpt lat="43.34439" lon="-1.44353">
        <ele>97.23</ele>
        <time>2023-08-12T07:53:22Z</time>
      </trkpt>
      <trkpt lat="43.34413" lon="-1.44339">
        <ele>93.87</ele>
        <time>2023-08-12T07:53:30Z</time>
      </trkpt>
      <trkpt lat="43.34388" lon="-1.44325">
        <ele>90.5</ele>
        <time>2023-08-12T07:53:35Z</time>
      </trkpt>
      <trkpt lat="43.34372" lon="-1.44319">
        <ele>88.58</ele>
        <time>2023-08-12T07:53:38Z</time>
      </trkpt>
      <trkpt lat="43.3435" lon="-1.44315">
        <ele>85.21</ele>
        <time>2023-08-12T07:53:42Z</time>
      </trkpt>
      <trkpt lat="43.34343" lon="-1.44313">
        <ele>84.25</ele>
        <time>2023-08-12T07:53:44Z</time>
      </trkpt>
      <trkpt lat="43.34329" lon="-1.44317">
        <ele>83.29</ele>
        <time>2023-08-12T07:53:52Z</time>
      </trkpt>
      <trkpt lat="43.34324" lon="-1.44326">
        <ele>82.33</ele>
        <time>2023-08-12T07:53:54Z</time>
      </trkpt>
      <trkpt lat="43.34309" lon="-1.44348">
        <ele>80.41</ele>
        <time>2023-08-12T07:53:58Z</time>
      </trkpt>
      <trkpt lat="43.34284" lon="-1.44389">
        <ele>78.48</ele>
        <time>2023-08-12T07:54:04Z</time>
      </trkpt>
      <trkpt lat="43.34279" lon="-1.44396">
        <ele>78</ele>
        <time>2023-08-12T07:54:05Z</time>
      </trkpt>
      <trkpt lat="43.34273" lon="-1.44401">
        <ele>77.04</ele>
        <time>2023-08-12T07:54:06Z</time>
      </trkpt>
      <trkpt lat="43.34267" lon="-1.44406">
        <ele>76.56</ele>
        <time>2023-08-12T07:54:07Z</time>
      </trkpt>
      <trkpt lat="43.34261" lon="-1.44411">
        <ele>76.08</ele>
        <time>2023-08-12T07:54:08Z</time>
      </trkpt>
      <trkpt lat="43.34255" lon="-1.44415">
        <ele>75.6</ele>
        <time>2023-08-12T07:54:09Z</time>
      </trkpt>
      <trkpt lat="43.34212" lon="-1.44441">
        <ele>72.24</ele>
        <time>2023-08-12T07:54:16Z</time>
      </trkpt>
      <trkpt lat="43.34207" lon="-1.44445">
        <ele>72.24</ele>
        <time>2023-08-12T07:54:17Z</time>
      </trkpt>
      <trkpt lat="43.34172" lon="-1.44471">
        <ele>69.83</ele>
        <time>2023-08-12T07:54:28Z</time>
      </trkpt>
      <trkpt lat="43.34148" lon="-1.44504">
        <ele>69.35</ele>
        <time>2023-08-12T07:54:40Z</time>
      </trkpt>
      <trkpt lat="43.34125" lon="-1.44534">
        <ele>70.31</ele>
        <time>2023-08-12T07:54:56Z</time>
      </trkpt>
      <trkpt lat="43.34123" lon="-1.44541">
        <ele>70.79</ele>
        <time>2023-08-12T07:55:17Z</time>
      </trkpt>
      <trkpt lat="43.34123" lon="-1.44542">
        <ele>70.79</ele>
        <time>2023-08-12T07:55:18Z</time>
      </trkpt>
      <trkpt lat="43.34122" lon="-1.44544">
        <ele>70.79</ele>
        <time>2023-08-12T07:55:19Z</time>
      </trkpt>
      <trkpt lat="43.34122" lon="-1.44546">
        <ele>70.79</ele>
        <time>2023-08-12T07:55:20Z</time>
      </trkpt>
      <trkpt lat="43.34121" lon="-1.44548">
        <ele>70.79</ele>
        <time>2023-08-12T07:55:21Z</time>
      </trkpt>
      <trkpt lat="43.34104" lon="-1.44576">
        <ele>71.76</ele>
        <time>2023-08-12T07:55:33Z</time>
      </trkpt>
      <trkpt lat="43.34103" lon="-1.44577">
        <ele>71.76</ele>
        <time>2023-08-12T07:55:35Z</time>
      </trkpt>
      <trkpt lat="43.34102" lon="-1.44578">
        <ele>71.27</ele>
        <time>2023-08-12T07:55:36Z</time>
      </trkpt>
      <trkpt lat="43.34102" lon="-1.4458">
        <ele>71.76</ele>
        <time>2023-08-12T07:55:37Z</time>
      </trkpt>
      <trkpt lat="43.34101" lon="-1.44582">
        <ele>71.27</ele>
        <time>2023-08-12T07:55:38Z</time>
      </trkpt>
      <trkpt lat="43.34101" lon="-1.44584">
        <ele>71.27</ele>
        <time>2023-08-12T07:55:39Z</time>
      </trkpt>
      <trkpt lat="43.341" lon="-1.44586">
        <ele>71.76</ele>
        <time>2023-08-12T07:55:40Z</time>
      </trkpt>
      <trkpt lat="43.341" lon="-1.44589">
        <ele>71.76</ele>
        <time>2023-08-12T07:55:41Z</time>
      </trkpt>
      <trkpt lat="43.34099" lon="-1.44592">
        <ele>71.27</ele>
        <time>2023-08-12T07:55:42Z</time>
      </trkpt>
      <trkpt lat="43.34098" lon="-1.44594">
        <ele>71.76</ele>
        <time>2023-08-12T07:55:43Z</time>
      </trkpt>
      <trkpt lat="43.34098" lon="-1.44595">
        <ele>71.76</ele>
        <time>2023-08-12T07:55:44Z</time>
      </trkpt>
      <trkpt lat="43.34096" lon="-1.44597">
        <ele>71.76</ele>
        <time>2023-08-12T07:55:45Z</time>
      </trkpt>
      <trkpt lat="43.34096" lon="-1.44599">
        <ele>72.24</ele>
        <time>2023-08-12T07:55:46Z</time>
      </trkpt>
      <trkpt lat="43.34095" lon="-1.44601">
        <ele>72.24</ele>
        <time>2023-08-12T07:55:47Z</time>
      </trkpt>
      <trkpt lat="43.34093" lon="-1.4461">
        <ele>73.2</ele>
        <time>2023-08-12T07:56:01Z</time>
      </trkpt>
      <trkpt lat="43.34092" lon="-1.44611">
        <ele>72.72</ele>
        <time>2023-08-12T07:56:02Z</time>
      </trkpt>
      <trkpt lat="43.34091" lon="-1.44612">
        <ele>72.72</ele>
        <time>2023-08-12T07:56:03Z</time>
      </trkpt>
      <trkpt lat="43.34081" lon="-1.44639">
        <ele>75.12</ele>
        <time>2023-08-12T07:56:17Z</time>
      </trkpt>
      <trkpt lat="43.34066" lon="-1.4465">
        <ele>78</ele>
        <time>2023-08-12T07:56:31Z</time>
      </trkpt>
      <trkpt lat="43.34063" lon="-1.44648">
        <ele>78</ele>
        <time>2023-08-12T07:56:33Z</time>
      </trkpt>
      <trkpt lat="43.34063" lon="-1.44646">
        <ele>77.52</ele>
        <time>2023-08-12T07:56:34Z</time>
      </trkpt>
      <trkpt lat="43.34063" lon="-1.44644">
        <ele>77.52</ele>
        <time>2023-08-12T07:56:35Z</time>
      </trkpt>
      <trkpt lat="43.34063" lon="-1.44642">
        <ele>78</ele>
        <time>2023-08-12T07:56:36Z</time>
      </trkpt>
      <trkpt lat="43.34064" lon="-1.4464">
        <ele>77.52</ele>
        <time>2023-08-12T07:56:37Z</time>
      </trkpt>
      <trkpt lat="43.34069" lon="-1.44623">
        <ele>78</ele>
        <time>2023-08-12T07:56:47Z</time>
      </trkpt>
      <trkpt lat="43.34066" lon="-1.44619">
        <ele>78</ele>
        <time>2023-08-12T07:57:02Z</time>
      </trkpt>
      <trkpt lat="43.34065" lon="-1.44619">
        <ele>77.52</ele>
        <time>2023-08-12T07:57:08Z</time>
      </trkpt>
      <trkpt lat="43.34065" lon="-1.4462">
        <ele>78</ele>
        <time>2023-08-12T07:57:09Z</time>
      </trkpt>
      <trkpt lat="43.34064" lon="-1.44621">
        <ele>78</ele>
        <time>2023-08-12T07:57:10Z</time>
      </trkpt>
      <trkpt lat="43.34064" lon="-1.44622">
        <ele>78</ele>
        <time>2023-08-12T07:57:11Z</time>
      </trkpt>
      <trkpt lat="43.34063" lon="-1.44624">
        <ele>78</ele>
        <time>2023-08-12T07:57:12Z</time>
      </trkpt>
      <trkpt lat="43.34059" lon="-1.44639">
        <ele>77.04</ele>
        <time>2023-08-12T07:57:18Z</time>
      </trkpt>
      <trkpt lat="43.34058" lon="-1.44641">
        <ele>77.52</ele>
        <time>2023-08-12T07:57:19Z</time>
      </trkpt>
      <trkpt lat="43.34056" lon="-1.44643">
        <ele>78</ele>
        <time>2023-08-12T07:57:20Z</time>
      </trkpt>
      <trkpt lat="43.34053" lon="-1.44634">
        <ele>78.48</ele>
        <time>2023-08-12T07:57:25Z</time>
      </trkpt>
      <trkpt lat="43.3405" lon="-1.44612">
        <ele>82.33</ele>
        <time>2023-08-12T07:57:36Z</time>
      </trkpt>
      <trkpt lat="43.3405" lon="-1.4461">
        <ele>81.85</ele>
        <time>2023-08-12T07:57:37Z</time>
      </trkpt>
      <trkpt lat="43.34048" lon="-1.44601">
        <ele>81.37</ele>
        <time>2023-08-12T07:57:53Z</time>
      </trkpt>
      <trkpt lat="43.34049" lon="-1.44601">
        <ele>81.85</ele>
        <time>2023-08-12T07:58:06Z</time>
      </trkpt>
      <trkpt lat="43.34047" lon="-1.44602">
        <ele>81.37</ele>
        <time>2023-08-12T07:58:08Z</time>
      </trkpt>
      <trkpt lat="43.3404" lon="-1.44623">
        <ele>82.81</ele>
        <time>2023-08-12T07:58:19Z</time>
      </trkpt>
      <trkpt lat="43.34039" lon="-1.44626">
        <ele>82.33</ele>
        <time>2023-08-12T07:58:20Z</time>
      </trkpt>
      <trkpt lat="43.34039" lon="-1.4463">
        <ele>82.81</ele>
        <time>2023-08-12T07:58:21Z</time>
      </trkpt>
      <trkpt lat="43.34029" lon="-1.44652">
        <ele>83.29</ele>
        <time>2023-08-12T07:58:32Z</time>
      </trkpt>
      <trkpt lat="43.34025" lon="-1.44657">
        <ele>83.77</ele>
        <time>2023-08-12T07:58:35Z</time>
      </trkpt>
      <trkpt lat="43.34003" lon="-1.44657">
        <ele>85.21</ele>
        <time>2023-08-12T07:58:50Z</time>
      </trkpt>
      <trkpt lat="43.34001" lon="-1.44655">
        <ele>85.69</ele>
        <time>2023-08-12T07:58:52Z</time>
      </trkpt>
      <trkpt lat="43.34" lon="-1.44654">
        <ele>85.21</ele>
        <time>2023-08-12T07:58:53Z</time>
      </trkpt>
      <trkpt lat="43.34" lon="-1.44653">
        <ele>85.21</ele>
        <time>2023-08-12T07:59:08Z</time>
      </trkpt>
      <trkpt lat="43.34001" lon="-1.44653">
        <ele>85.69</ele>
        <time>2023-08-12T07:59:14Z</time>
      </trkpt>
      <trkpt lat="43.34002" lon="-1.44654">
        <ele>85.21</ele>
        <time>2023-08-12T07:59:15Z</time>
      </trkpt>
      <trkpt lat="43.34002" lon="-1.44655">
        <ele>84.73</ele>
        <time>2023-08-12T07:59:16Z</time>
      </trkpt>
      <trkpt lat="43.34021" lon="-1.44669">
        <ele>84.25</ele>
        <time>2023-08-12T07:59:26Z</time>
      </trkpt>
      <trkpt lat="43.34021" lon="-1.44672">
        <ele>84.25</ele>
        <time>2023-08-12T07:59:27Z</time>
      </trkpt>
      <trkpt lat="43.34021" lon="-1.44675">
        <ele>84.25</ele>
        <time>2023-08-12T07:59:28Z</time>
      </trkpt>
      <trkpt lat="43.3402" lon="-1.44678">
        <ele>84.25</ele>
        <time>2023-08-12T07:59:29Z</time>
      </trkpt>
      <trkpt lat="43.3402" lon="-1.4468">
        <ele>84.73</ele>
        <time>2023-08-12T07:59:30Z</time>
      </trkpt>
      <trkpt lat="43.3402" lon="-1.44682">
        <ele>84.73</ele>
        <time>2023-08-12T07:59:31Z</time>
      </trkpt>
      <trkpt lat="43.34019" lon="-1.44684">
        <ele>84.73</ele>
        <time>2023-08-12T07:59:32Z</time>
      </trkpt>
      <trkpt lat="43.34018" lon="-1.44686">
        <ele>84.73</ele>
        <time>2023-08-12T07:59:33Z</time>
      </trkpt>
      <trkpt lat="43.34018" lon="-1.44688">
        <ele>84.73</ele>
        <time>2023-08-12T07:59:34Z</time>
      </trkpt>
      <trkpt lat="43.34016" lon="-1.4469">
        <ele>84.25</ele>
        <time>2023-08-12T07:59:35Z</time>
      </trkpt>
      <trkpt lat="43.34016" lon="-1.44692">
        <ele>84.25</ele>
        <time>2023-08-12T07:59:36Z</time>
      </trkpt>
      <trkpt lat="43.34012" lon="-1.44722">
        <ele>86.18</ele>
        <time>2023-08-12T07:59:50Z</time>
      </trkpt>
      <trkpt lat="43.3401" lon="-1.44751">
        <ele>86.66</ele>
        <time>2023-08-12T08:00:07Z</time>
      </trkpt>
      <trkpt lat="43.34009" lon="-1.44758">
        <ele>86.66</ele>
        <time>2023-08-12T08:00:31Z</time>
      </trkpt>
      <trkpt lat="43.34008" lon="-1.44757">
        <ele>87.14</ele>
        <time>2023-08-12T08:00:32Z</time>
      </trkpt>
      <trkpt lat="43.34007" lon="-1.44757">
        <ele>87.14</ele>
        <time>2023-08-12T08:00:33Z</time>
      </trkpt>
      <trkpt lat="43.33997" lon="-1.44745">
        <ele>87.14</ele>
        <time>2023-08-12T08:00:46Z</time>
      </trkpt>
      <trkpt lat="43.34" lon="-1.44741">
        <ele>87.14</ele>
        <time>2023-08-12T08:01:03Z</time>
      </trkpt>
      <trkpt lat="43.34007" lon="-1.44741">
        <ele>86.66</ele>
        <time>2023-08-12T08:01:29Z</time>
      </trkpt>
      <trkpt lat="43.3401" lon="-1.44745">
        <ele>87.14</ele>
        <time>2023-08-12T08:01:32Z</time>
      </trkpt>
      <trkpt lat="43.3401" lon="-1.44747">
        <ele>86.66</ele>
        <time>2023-08-12T08:01:33Z</time>
      </trkpt>
      <trkpt lat="43.3401" lon="-1.44749">
        <ele>86.18</ele>
        <time>2023-08-12T08:01:34Z</time>
      </trkpt>
      <trkpt lat="43.3401" lon="-1.44749">
        <ele>87.14</ele>
        <time>2023-08-12T08:01:35Z</time>
      </trkpt>
      <trkpt lat="43.3401" lon="-1.4475">
        <ele>87.14</ele>
        <time>2023-08-12T08:01:36Z</time>
      </trkpt>
      <trkpt lat="43.34008" lon="-1.44751">
        <ele>87.62</ele>
        <time>2023-08-12T08:01:43Z</time>
      </trkpt>
      <trkpt lat="43.33998" lon="-1.44729">
        <ele>87.62</ele>
        <time>2023-08-12T08:01:56Z</time>
      </trkpt>
      <trkpt lat="43.33978" lon="-1.44715">
        <ele>88.1</ele>
        <time>2023-08-12T08:02:08Z</time>
      </trkpt>
      <trkpt lat="43.33948" lon="-1.44699">
        <ele>88.1</ele>
        <time>2023-08-12T08:02:20Z</time>
      </trkpt>
      <trkpt lat="43.33931" lon="-1.44694">
        <ele>88.1</ele>
        <time>2023-08-12T08:02:33Z</time>
      </trkpt>
      <trkpt lat="43.33918" lon="-1.44684">
        <ele>88.1</ele>
        <time>2023-08-12T08:02:58Z</time>
      </trkpt>
      <trkpt lat="43.3389" lon="-1.44672">
        <ele>88.1</ele>
        <time>2023-08-12T08:03:12Z</time>
      </trkpt>
      <trkpt lat="43.33879" lon="-1.44675">
        <ele>87.62</ele>
        <time>2023-08-12T08:03:24Z</time>
      </trkpt>
      <trkpt lat="43.33874" lon="-1.44669">
        <ele>88.1</ele>
        <time>2023-08-12T08:03:47Z</time>
      </trkpt>
      <trkpt lat="43.33872" lon="-1.44664">
        <ele>88.1</ele>
        <time>2023-08-12T08:04:00Z</time>
      </trkpt>
      <trkpt lat="43.33871" lon="-1.44663">
        <ele>87.62</ele>
        <time>2023-08-12T08:04:01Z</time>
      </trkpt>
      <trkpt lat="43.3387" lon="-1.44662">
        <ele>88.1</ele>
        <time>2023-08-12T08:04:02Z</time>
      </trkpt>
      <trkpt lat="43.33867" lon="-1.44662">
        <ele>88.1</ele>
        <time>2023-08-12T08:04:03Z</time>
      </trkpt>
      <trkpt lat="43.33865" lon="-1.44662">
        <ele>88.1</ele>
        <time>2023-08-12T08:04:04Z</time>
      </trkpt>
      <trkpt lat="43.33862" lon="-1.44663">
        <ele>88.1</ele>
        <time>2023-08-12T08:04:05Z</time>
      </trkpt>
      <trkpt lat="43.33858" lon="-1.44663">
        <ele>88.1</ele>
        <time>2023-08-12T08:04:06Z</time>
      </trkpt>
      <trkpt lat="43.33854" lon="-1.44665">
        <ele>88.1</ele>
        <time>2023-08-12T08:04:07Z</time>
      </trkpt>
      <trkpt lat="43.33851" lon="-1.44666">
        <ele>88.58</ele>
        <time>2023-08-12T08:04:08Z</time>
      </trkpt>
      <trkpt lat="43.3382" lon="-1.44652">
        <ele>88.58</ele>
        <time>2023-08-12T08:04:19Z</time>
      </trkpt>
      <trkpt lat="43.33797" lon="-1.44629">
        <ele>89.54</ele>
        <time>2023-08-12T08:04:29Z</time>
      </trkpt>
      <trkpt lat="43.3376" lon="-1.44616">
        <ele>90.02</ele>
        <time>2023-08-12T08:04:42Z</time>
      </trkpt>
      <trkpt lat="43.33754" lon="-1.44616">
        <ele>89.54</ele>
        <time>2023-08-12T08:04:45Z</time>
      </trkpt>
      <trkpt lat="43.33753" lon="-1.44614">
        <ele>90.5</ele>
        <time>2023-08-12T08:04:46Z</time>
      </trkpt>
      <trkpt lat="43.33751" lon="-1.44613">
        <ele>90.02</ele>
        <time>2023-08-12T08:04:47Z</time>
      </trkpt>
      <trkpt lat="43.33746" lon="-1.44615">
        <ele>90.02</ele>
        <time>2023-08-12T08:04:56Z</time>
      </trkpt>
      <trkpt lat="43.33745" lon="-1.44616">
        <ele>89.54</ele>
        <time>2023-08-12T08:04:57Z</time>
      </trkpt>
      <trkpt lat="43.33744" lon="-1.44617">
        <ele>89.54</ele>
        <time>2023-08-12T08:04:58Z</time>
      </trkpt>
      <trkpt lat="43.33744" lon="-1.44617">
        <ele>89.54</ele>
        <time>2023-08-12T08:04:59Z</time>
      </trkpt>
      <trkpt lat="43.33742" lon="-1.44617">
        <ele>89.54</ele>
        <time>2023-08-12T08:05:00Z</time>
      </trkpt>
      <trkpt lat="43.33741" lon="-1.44616">
        <ele>89.54</ele>
        <time>2023-08-12T08:05:01Z</time>
      </trkpt>
      <trkpt lat="43.33707" lon="-1.44618">
        <ele>90.02</ele>
        <time>2023-08-12T08:05:14Z</time>
      </trkpt>
      <trkpt lat="43.33694" lon="-1.44664">
        <ele>91.46</ele>
        <time>2023-08-12T08:05:27Z</time>
      </trkpt>
      <trkpt lat="43.33693" lon="-1.44739">
        <ele>90.5</ele>
        <time>2023-08-12T08:05:43Z</time>
      </trkpt>
      <trkpt lat="43.33694" lon="-1.44769">
        <ele>90.02</ele>
        <time>2023-08-12T08:05:48Z</time>
      </trkpt>
      <trkpt lat="43.33706" lon="-1.44859">
        <ele>91.94</ele>
        <time>2023-08-12T08:06:05Z</time>
      </trkpt>
      <trkpt lat="43.33723" lon="-1.44929">
        <ele>93.87</ele>
        <time>2023-08-12T08:06:21Z</time>
      </trkpt>
      <trkpt lat="43.33743" lon="-1.44991">
        <ele>95.31</ele>
        <time>2023-08-12T08:06:37Z</time>
      </trkpt>
      <trkpt lat="43.33769" lon="-1.45054">
        <ele>94.35</ele>
        <time>2023-08-12T08:06:52Z</time>
      </trkpt>
      <trkpt lat="43.33786" lon="-1.45089">
        <ele>91.46</ele>
        <time>2023-08-12T08:06:57Z</time>
      </trkpt>
      <trkpt lat="43.33806" lon="-1.45123">
        <ele>87.62</ele>
        <time>2023-08-12T08:07:01Z</time>
      </trkpt>
      <trkpt lat="43.33811" lon="-1.4513">
        <ele>87.62</ele>
        <time>2023-08-12T08:07:02Z</time>
      </trkpt>
      <trkpt lat="43.33822" lon="-1.45148">
        <ele>85.69</ele>
        <time>2023-08-12T08:07:05Z</time>
      </trkpt>
      <trkpt lat="43.33823" lon="-1.45154">
        <ele>84.73</ele>
        <time>2023-08-12T08:07:06Z</time>
      </trkpt>
      <trkpt lat="43.33822" lon="-1.45159">
        <ele>84.73</ele>
        <time>2023-08-12T08:07:07Z</time>
      </trkpt>
      <trkpt lat="43.33819" lon="-1.45164">
        <ele>83.77</ele>
        <time>2023-08-12T08:07:08Z</time>
      </trkpt>
      <trkpt lat="43.33814" lon="-1.45166">
        <ele>83.29</ele>
        <time>2023-08-12T08:07:09Z</time>
      </trkpt>
      <trkpt lat="43.3381" lon="-1.45166">
        <ele>83.77</ele>
        <time>2023-08-12T08:07:10Z</time>
      </trkpt>
      <trkpt lat="43.33807" lon="-1.45166">
        <ele>84.73</ele>
        <time>2023-08-12T08:07:11Z</time>
      </trkpt>
      <trkpt lat="43.33772" lon="-1.45168">
        <ele>87.62</ele>
        <time>2023-08-12T08:07:25Z</time>
      </trkpt>
      <trkpt lat="43.33742" lon="-1.45172">
        <ele>90.02</ele>
        <time>2023-08-12T08:07:41Z</time>
      </trkpt>
      <trkpt lat="43.33725" lon="-1.45176">
        <ele>92.42</ele>
        <time>2023-08-12T08:07:53Z</time>
      </trkpt>
      <trkpt lat="43.33701" lon="-1.45175">
        <ele>95.31</ele>
        <time>2023-08-12T08:08:08Z</time>
      </trkpt>
      <trkpt lat="43.33684" lon="-1.4518">
        <ele>98.67</ele>
        <time>2023-08-12T08:08:18Z</time>
      </trkpt>
      <trkpt lat="43.33658" lon="-1.45191">
        <ele>102.04</ele>
        <time>2023-08-12T08:08:32Z</time>
      </trkpt>
      <trkpt lat="43.33634" lon="-1.45202">
        <ele>103.96</ele>
        <time>2023-08-12T08:08:46Z</time>
      </trkpt>
      <trkpt lat="43.33601" lon="-1.45214">
        <ele>106.36</ele>
        <time>2023-08-12T08:09:01Z</time>
      </trkpt>
      <trkpt lat="43.33571" lon="-1.45226">
        <ele>108.29</ele>
        <time>2023-08-12T08:09:17Z</time>
      </trkpt>
      <trkpt lat="43.33532" lon="-1.45235">
        <ele>110.69</ele>
        <time>2023-08-12T08:09:36Z</time>
      </trkpt>
      <trkpt lat="43.33502" lon="-1.45229">
        <ele>112.61</ele>
        <time>2023-08-12T08:09:52Z</time>
      </trkpt>
      <trkpt lat="43.33465" lon="-1.45233">
        <ele>113.57</ele>
        <time>2023-08-12T08:10:09Z</time>
      </trkpt>
      <trkpt lat="43.33425" lon="-1.45252">
        <ele>113.57</ele>
        <time>2023-08-12T08:10:27Z</time>
      </trkpt>
      <trkpt lat="43.3341" lon="-1.45262">
        <ele>115.01</ele>
        <time>2023-08-12T08:10:34Z</time>
      </trkpt>
      <trkpt lat="43.33399" lon="-1.45268">
        <ele>115.98</ele>
        <time>2023-08-12T08:10:40Z</time>
      </trkpt>
      <trkpt lat="43.33391" lon="-1.45275">
        <ele>116.46</ele>
        <time>2023-08-12T08:10:44Z</time>
      </trkpt>
      <trkpt lat="43.33389" lon="-1.45276">
        <ele>115.98</ele>
        <time>2023-08-12T08:10:45Z</time>
      </trkpt>
      <trkpt lat="43.33387" lon="-1.45277">
        <ele>115.98</ele>
        <time>2023-08-12T08:10:46Z</time>
      </trkpt>
      <trkpt lat="43.33385" lon="-1.45278">
        <ele>116.46</ele>
        <time>2023-08-12T08:10:47Z</time>
      </trkpt>
      <trkpt lat="43.33383" lon="-1.45279">
        <ele>116.94</ele>
        <time>2023-08-12T08:10:48Z</time>
      </trkpt>
      <trkpt lat="43.33351" lon="-1.453">
        <ele>118.86</ele>
        <time>2023-08-12T08:11:05Z</time>
      </trkpt>
      <trkpt lat="43.33317" lon="-1.45319">
        <ele>119.34</ele>
        <time>2023-08-12T08:11:24Z</time>
      </trkpt>
      <trkpt lat="43.33308" lon="-1.45351">
        <ele>120.78</ele>
        <time>2023-08-12T08:11:39Z</time>
      </trkpt>
      <trkpt lat="43.33295" lon="-1.45396">
        <ele>121.74</ele>
        <time>2023-08-12T08:11:56Z</time>
      </trkpt>
      <trkpt lat="43.33287" lon="-1.45431">
        <ele>125.11</ele>
        <time>2023-08-12T08:12:12Z</time>
      </trkpt>
      <trkpt lat="43.33282" lon="-1.45469">
        <ele>126.07</ele>
        <time>2023-08-12T08:12:28Z</time>
      </trkpt>
      <trkpt lat="43.3327" lon="-1.45513">
        <ele>128.95</ele>
        <time>2023-08-12T08:12:48Z</time>
      </trkpt>
      <trkpt lat="43.33263" lon="-1.45547">
        <ele>132.32</ele>
        <time>2023-08-12T08:13:04Z</time>
      </trkpt>
      <trkpt lat="43.33261" lon="-1.45584">
        <ele>133.28</ele>
        <time>2023-08-12T08:13:19Z</time>
      </trkpt>
      <trkpt lat="43.33266" lon="-1.45638">
        <ele>133.76</ele>
        <time>2023-08-12T08:13:34Z</time>
      </trkpt>
      <trkpt lat="43.33256" lon="-1.4569">
        <ele>135.2</ele>
        <time>2023-08-12T08:13:50Z</time>
      </trkpt>
      <trkpt lat="43.33246" lon="-1.45729">
        <ele>137.61</ele>
        <time>2023-08-12T08:14:07Z</time>
      </trkpt>
      <trkpt lat="43.33234" lon="-1.45763">
        <ele>140.49</ele>
        <time>2023-08-12T08:14:22Z</time>
      </trkpt>
      <trkpt lat="43.33232" lon="-1.45798">
        <ele>143.37</ele>
        <time>2023-08-12T08:14:36Z</time>
      </trkpt>
      <trkpt lat="43.33236" lon="-1.45843">
        <ele>144.82</ele>
        <time>2023-08-12T08:14:54Z</time>
      </trkpt>
      <trkpt lat="43.3324" lon="-1.45879">
        <ele>146.26</ele>
        <time>2023-08-12T08:15:09Z</time>
      </trkpt>
      <trkpt lat="43.33239" lon="-1.45894">
        <ele>147.7</ele>
        <time>2023-08-12T08:15:16Z</time>
      </trkpt>
      <trkpt lat="43.33238" lon="-1.45896">
        <ele>147.22</ele>
        <time>2023-08-12T08:15:17Z</time>
      </trkpt>
      <trkpt lat="43.33238" lon="-1.45898">
        <ele>147.7</ele>
        <time>2023-08-12T08:15:18Z</time>
      </trkpt>
      <trkpt lat="43.33238" lon="-1.459">
        <ele>148.18</ele>
        <time>2023-08-12T08:15:19Z</time>
      </trkpt>
      <trkpt lat="43.33237" lon="-1.45902">
        <ele>148.18</ele>
        <time>2023-08-12T08:15:20Z</time>
      </trkpt>
      <trkpt lat="43.33225" lon="-1.4594">
        <ele>150.58</ele>
        <time>2023-08-12T08:15:37Z</time>
      </trkpt>
      <trkpt lat="43.33209" lon="-1.45973">
        <ele>153.47</ele>
        <time>2023-08-12T08:15:53Z</time>
      </trkpt>
      <trkpt lat="43.33208" lon="-1.45975">
        <ele>153.47</ele>
        <time>2023-08-12T08:15:54Z</time>
      </trkpt>
      <trkpt lat="43.33185" lon="-1.46008">
        <ele>156.35</ele>
        <time>2023-08-12T08:16:13Z</time>
      </trkpt>
      <trkpt lat="43.33162" lon="-1.46029">
        <ele>159.72</ele>
        <time>2023-08-12T08:16:30Z</time>
      </trkpt>
      <trkpt lat="43.33146" lon="-1.46042">
        <ele>161.16</ele>
        <time>2023-08-12T08:16:41Z</time>
      </trkpt>
      <trkpt lat="43.33145" lon="-1.46044">
        <ele>161.64</ele>
        <time>2023-08-12T08:16:42Z</time>
      </trkpt>
      <trkpt lat="43.33144" lon="-1.46045">
        <ele>161.64</ele>
        <time>2023-08-12T08:16:43Z</time>
      </trkpt>
      <trkpt lat="43.33143" lon="-1.46046">
        <ele>162.6</ele>
        <time>2023-08-12T08:16:44Z</time>
      </trkpt>
      <trkpt lat="43.33142" lon="-1.46048">
        <ele>163.08</ele>
        <time>2023-08-12T08:16:45Z</time>
      </trkpt>
      <trkpt lat="43.3314" lon="-1.46049">
        <ele>162.6</ele>
        <time>2023-08-12T08:16:46Z</time>
      </trkpt>
      <trkpt lat="43.33139" lon="-1.4605">
        <ele>163.08</ele>
        <time>2023-08-12T08:16:47Z</time>
      </trkpt>
      <trkpt lat="43.33138" lon="-1.46051">
        <ele>164.04</ele>
        <time>2023-08-12T08:16:48Z</time>
      </trkpt>
      <trkpt lat="43.33137" lon="-1.46053">
        <ele>163.08</ele>
        <time>2023-08-12T08:16:49Z</time>
      </trkpt>
      <trkpt lat="43.33124" lon="-1.46068">
        <ele>166.45</ele>
        <time>2023-08-12T08:17:01Z</time>
      </trkpt>
      <trkpt lat="43.33114" lon="-1.46088">
        <ele>167.89</ele>
        <time>2023-08-12T08:17:15Z</time>
      </trkpt>
      <trkpt lat="43.33108" lon="-1.46111">
        <ele>171.25</ele>
        <time>2023-08-12T08:17:29Z</time>
      </trkpt>
      <trkpt lat="43.33106" lon="-1.46138">
        <ele>173.17</ele>
        <time>2023-08-12T08:17:43Z</time>
      </trkpt>
      <trkpt lat="43.33093" lon="-1.46175">
        <ele>174.14</ele>
        <time>2023-08-12T08:17:59Z</time>
      </trkpt>
      <trkpt lat="43.33073" lon="-1.46232">
        <ele>174.62</ele>
        <time>2023-08-12T08:18:17Z</time>
      </trkpt>
      <trkpt lat="43.33066" lon="-1.46276">
        <ele>176.54</ele>
        <time>2023-08-12T08:18:35Z</time>
      </trkpt>
      <trkpt lat="43.33058" lon="-1.46308">
        <ele>178.94</ele>
        <time>2023-08-12T08:18:51Z</time>
      </trkpt>
      <trkpt lat="43.33047" lon="-1.46344">
        <ele>180.87</ele>
        <time>2023-08-12T08:19:09Z</time>
      </trkpt>
      <trkpt lat="43.3303" lon="-1.4638">
        <ele>183.27</ele>
        <time>2023-08-12T08:19:29Z</time>
      </trkpt>
      <trkpt lat="43.33014" lon="-1.46398">
        <ele>185.67</ele>
        <time>2023-08-12T08:19:44Z</time>
      </trkpt>
      <trkpt lat="43.32992" lon="-1.46418">
        <ele>187.11</ele>
        <time>2023-08-12T08:20:02Z</time>
      </trkpt>
      <trkpt lat="43.32969" lon="-1.46442">
        <ele>188.56</ele>
        <time>2023-08-12T08:20:18Z</time>
      </trkpt>
      <trkpt lat="43.32947" lon="-1.46467">
        <ele>189.52</ele>
        <time>2023-08-12T08:20:31Z</time>
      </trkpt>
      <trkpt lat="43.32943" lon="-1.46515">
        <ele>190</ele>
        <time>2023-08-12T08:20:45Z</time>
      </trkpt>
      <trkpt lat="43.32951" lon="-1.46563">
        <ele>189.52</ele>
        <time>2023-08-12T08:21:00Z</time>
      </trkpt>
      <trkpt lat="43.32954" lon="-1.46593">
        <ele>188.56</ele>
        <time>2023-08-12T08:21:06Z</time>
      </trkpt>
      <trkpt lat="43.32952" lon="-1.46613">
        <ele>188.08</ele>
        <time>2023-08-12T08:21:09Z</time>
      </trkpt>
      <trkpt lat="43.3295" lon="-1.4662">
        <ele>187.11</ele>
        <time>2023-08-12T08:21:10Z</time>
      </trkpt>
      <trkpt lat="43.32948" lon="-1.46626">
        <ele>186.63</ele>
        <time>2023-08-12T08:21:11Z</time>
      </trkpt>
      <trkpt lat="43.32895" lon="-1.46742">
        <ele>184.23</ele>
        <time>2023-08-12T08:21:26Z</time>
      </trkpt>
      <trkpt lat="43.32877" lon="-1.46785">
        <ele>186.15</ele>
        <time>2023-08-12T08:21:37Z</time>
      </trkpt>
      <trkpt lat="43.3287" lon="-1.46816">
        <ele>187.59</ele>
        <time>2023-08-12T08:21:54Z</time>
      </trkpt>
      <trkpt lat="43.32871" lon="-1.46819">
        <ele>188.56</ele>
        <time>2023-08-12T08:21:56Z</time>
      </trkpt>
      <trkpt lat="43.32859" lon="-1.4685">
        <ele>191.44</ele>
        <time>2023-08-12T08:22:16Z</time>
      </trkpt>
      <trkpt lat="43.32843" lon="-1.46873">
        <ele>194.32</ele>
        <time>2023-08-12T08:22:33Z</time>
      </trkpt>
      <trkpt lat="43.32829" lon="-1.46908">
        <ele>195.28</ele>
        <time>2023-08-12T08:22:52Z</time>
      </trkpt>
      <trkpt lat="43.32825" lon="-1.46909">
        <ele>195.77</ele>
        <time>2023-08-12T08:23:31Z</time>
      </trkpt>
      <trkpt lat="43.32819" lon="-1.46918">
        <ele>196.25</ele>
        <time>2023-08-12T08:23:53Z</time>
      </trkpt>
      <trkpt lat="43.32814" lon="-1.46929">
        <ele>196.25</ele>
        <time>2023-08-12T08:24:06Z</time>
      </trkpt>
      <trkpt lat="43.32814" lon="-1.46934">
        <ele>195.77</ele>
        <time>2023-08-12T08:24:19Z</time>
      </trkpt>
      <trkpt lat="43.32811" lon="-1.46979">
        <ele>195.28</ele>
        <time>2023-08-12T08:24:29Z</time>
      </trkpt>
      <trkpt lat="43.32804" lon="-1.47055">
        <ele>195.77</ele>
        <time>2023-08-12T08:24:40Z</time>
      </trkpt>
      <trkpt lat="43.32803" lon="-1.47068">
        <ele>196.73</ele>
        <time>2023-08-12T08:24:42Z</time>
      </trkpt>
      <trkpt lat="43.32802" lon="-1.47073">
        <ele>197.21</ele>
        <time>2023-08-12T08:24:43Z</time>
      </trkpt>
      <trkpt lat="43.328" lon="-1.47137">
        <ele>198.65</ele>
        <time>2023-08-12T08:24:57Z</time>
      </trkpt>
      <trkpt lat="43.32805" lon="-1.47234">
        <ele>195.28</ele>
        <time>2023-08-12T08:25:11Z</time>
      </trkpt>
      <trkpt lat="43.32809" lon="-1.47274">
        <ele>193.36</ele>
        <time>2023-08-12T08:25:15Z</time>
      </trkpt>
      <trkpt lat="43.3281" lon="-1.47284">
        <ele>192.4</ele>
        <time>2023-08-12T08:25:16Z</time>
      </trkpt>
      <trkpt lat="43.3281" lon="-1.47294">
        <ele>192.88</ele>
        <time>2023-08-12T08:25:17Z</time>
      </trkpt>
      <trkpt lat="43.32809" lon="-1.47304">
        <ele>191.92</ele>
        <time>2023-08-12T08:25:18Z</time>
      </trkpt>
      <trkpt lat="43.32807" lon="-1.47314">
        <ele>191.44</ele>
        <time>2023-08-12T08:25:19Z</time>
      </trkpt>
      <trkpt lat="43.32805" lon="-1.47323">
        <ele>190.48</ele>
        <time>2023-08-12T08:25:20Z</time>
      </trkpt>
      <trkpt lat="43.32796" lon="-1.47351">
        <ele>187.11</ele>
        <time>2023-08-12T08:25:23Z</time>
      </trkpt>
      <trkpt lat="43.32786" lon="-1.47379">
        <ele>185.67</ele>
        <time>2023-08-12T08:25:26Z</time>
      </trkpt>
      <trkpt lat="43.32777" lon="-1.47403">
        <ele>183.27</ele>
        <time>2023-08-12T08:25:29Z</time>
      </trkpt>
      <trkpt lat="43.32774" lon="-1.47409">
        <ele>183.27</ele>
        <time>2023-08-12T08:25:30Z</time>
      </trkpt>
      <trkpt lat="43.32771" lon="-1.47415">
        <ele>183.27</ele>
        <time>2023-08-12T08:25:31Z</time>
      </trkpt>
      <trkpt lat="43.32769" lon="-1.47421">
        <ele>183.27</ele>
        <time>2023-08-12T08:25:32Z</time>
      </trkpt>
      <trkpt lat="43.32766" lon="-1.47426">
        <ele>183.27</ele>
        <time>2023-08-12T08:25:33Z</time>
      </trkpt>
      <trkpt lat="43.32762" lon="-1.47428">
        <ele>183.27</ele>
        <time>2023-08-12T08:25:34Z</time>
      </trkpt>
      <trkpt lat="43.32758" lon="-1.47429">
        <ele>183.27</ele>
        <time>2023-08-12T08:25:35Z</time>
      </trkpt>
      <trkpt lat="43.32755" lon="-1.4743">
        <ele>183.27</ele>
        <time>2023-08-12T08:25:36Z</time>
      </trkpt>
      <trkpt lat="43.32751" lon="-1.47431">
        <ele>183.75</ele>
        <time>2023-08-12T08:25:37Z</time>
      </trkpt>
      <trkpt lat="43.32747" lon="-1.47433">
        <ele>183.27</ele>
        <time>2023-08-12T08:25:38Z</time>
      </trkpt>
      <trkpt lat="43.32742" lon="-1.47434">
        <ele>183.27</ele>
        <time>2023-08-12T08:25:39Z</time>
      </trkpt>
      <trkpt lat="43.32716" lon="-1.47448">
        <ele>181.83</ele>
        <time>2023-08-12T08:25:44Z</time>
      </trkpt>
      <trkpt lat="43.3271" lon="-1.47453">
        <ele>181.35</ele>
        <time>2023-08-12T08:25:45Z</time>
      </trkpt>
      <trkpt lat="43.32705" lon="-1.4746">
        <ele>180.38</ele>
        <time>2023-08-12T08:25:46Z</time>
      </trkpt>
      <trkpt lat="43.32685" lon="-1.47494">
        <ele>178.94</ele>
        <time>2023-08-12T08:25:50Z</time>
      </trkpt>
      <trkpt lat="43.32659" lon="-1.47539">
        <ele>175.58</ele>
        <time>2023-08-12T08:25:55Z</time>
      </trkpt>
      <trkpt lat="43.32632" lon="-1.47587">
        <ele>172.69</ele>
        <time>2023-08-12T08:26:00Z</time>
      </trkpt>
      <trkpt lat="43.32585" lon="-1.47663">
        <ele>169.81</ele>
        <time>2023-08-12T08:26:09Z</time>
      </trkpt>
      <trkpt lat="43.32542" lon="-1.47713">
        <ele>165.96</ele>
        <time>2023-08-12T08:26:16Z</time>
      </trkpt>
      <trkpt lat="43.32537" lon="-1.47722">
        <ele>166.45</ele>
        <time>2023-08-12T08:26:17Z</time>
      </trkpt>
      <trkpt lat="43.32491" lon="-1.47813">
        <ele>162.6</ele>
        <time>2023-08-12T08:26:27Z</time>
      </trkpt>
      <trkpt lat="43.32466" lon="-1.47863">
        <ele>161.16</ele>
        <time>2023-08-12T08:26:32Z</time>
      </trkpt>
      <trkpt lat="43.32409" lon="-1.47983">
        <ele>158.27</ele>
        <time>2023-08-12T08:26:44Z</time>
      </trkpt>
      <trkpt lat="43.32391" lon="-1.48013">
        <ele>157.79</ele>
        <time>2023-08-12T08:26:51Z</time>
      </trkpt>
      <trkpt lat="43.3239" lon="-1.48013">
        <ele>158.27</ele>
        <time>2023-08-12T08:27:10Z</time>
      </trkpt>
      <trkpt lat="43.32395" lon="-1.48013">
        <ele>157.79</ele>
        <time>2023-08-12T08:27:32Z</time>
      </trkpt>
      <trkpt lat="43.32394" lon="-1.48016">
        <ele>157.31</ele>
        <time>2023-08-12T08:27:33Z</time>
      </trkpt>
      <trkpt lat="43.32393" lon="-1.4802">
        <ele>157.31</ele>
        <time>2023-08-12T08:27:34Z</time>
      </trkpt>
      <trkpt lat="43.32391" lon="-1.48024">
        <ele>157.79</ele>
        <time>2023-08-12T08:27:35Z</time>
      </trkpt>
      <trkpt lat="43.32388" lon="-1.48027">
        <ele>157.79</ele>
        <time>2023-08-12T08:27:36Z</time>
      </trkpt>
      <trkpt lat="43.32385" lon="-1.48031">
        <ele>157.31</ele>
        <time>2023-08-12T08:27:37Z</time>
      </trkpt>
      <trkpt lat="43.32381" lon="-1.48034">
        <ele>156.83</ele>
        <time>2023-08-12T08:27:38Z</time>
      </trkpt>
      <trkpt lat="43.32377" lon="-1.48038">
        <ele>156.35</ele>
        <time>2023-08-12T08:27:39Z</time>
      </trkpt>
      <trkpt lat="43.32338" lon="-1.48068">
        <ele>152.99</ele>
        <time>2023-08-12T08:27:46Z</time>
      </trkpt>
      <trkpt lat="43.32309" lon="-1.48094">
        <ele>149.62</ele>
        <time>2023-08-12T08:27:50Z</time>
      </trkpt>
      <trkpt lat="43.3227" lon="-1.48141">
        <ele>146.26</ele>
        <time>2023-08-12T08:27:55Z</time>
      </trkpt>
      <trkpt lat="43.32206" lon="-1.48239">
        <ele>144.82</ele>
        <time>2023-08-12T08:28:05Z</time>
      </trkpt>
      <trkpt lat="43.32175" lon="-1.48321">
        <ele>141.93</ele>
        <time>2023-08-12T08:28:13Z</time>
      </trkpt>
      <trkpt lat="43.32171" lon="-1.48331">
        <ele>142.41</ele>
        <time>2023-08-12T08:28:14Z</time>
      </trkpt>
      <trkpt lat="43.32151" lon="-1.48373">
        <ele>140.49</ele>
        <time>2023-08-12T08:28:18Z</time>
      </trkpt>
      <trkpt lat="43.3214" lon="-1.48396">
        <ele>138.09</ele>
        <time>2023-08-12T08:28:20Z</time>
      </trkpt>
      <trkpt lat="43.32118" lon="-1.48444">
        <ele>135.68</ele>
        <time>2023-08-12T08:28:24Z</time>
      </trkpt>
      <trkpt lat="43.32072" lon="-1.48523">
        <ele>132.8</ele>
        <time>2023-08-12T08:28:31Z</time>
      </trkpt>
      <trkpt lat="43.32033" lon="-1.48583">
        <ele>130.4</ele>
        <time>2023-08-12T08:28:37Z</time>
      </trkpt>
      <trkpt lat="43.31953" lon="-1.4866">
        <ele>127.51</ele>
        <time>2023-08-12T08:28:48Z</time>
      </trkpt>
      <trkpt lat="43.31894" lon="-1.48702">
        <ele>124.15</ele>
        <time>2023-08-12T08:28:56Z</time>
      </trkpt>
      <trkpt lat="43.31849" lon="-1.48753">
        <ele>122.71</ele>
        <time>2023-08-12T08:29:03Z</time>
      </trkpt>
      <trkpt lat="43.31778" lon="-1.48871">
        <ele>119.82</ele>
        <time>2023-08-12T08:29:17Z</time>
      </trkpt>
      <trkpt lat="43.31766" lon="-1.48888">
        <ele>111.8</ele>
      </trkpt>
      <trkpt lat="43.31751" lon="-1.48881">
        <ele>109.4</ele>
      </trkpt>
      <trkpt lat="43.31747" lon="-1.48868">
        <ele>109.9</ele>
      </trkpt>
      <trkpt lat="43.31736" lon="-1.48819">
        <ele>113.1</ele>
      </trkpt>
      <trkpt lat="43.31727" lon="-1.48806">
        <ele>114</ele>
      </trkpt>
      <trkpt lat="43.31718" lon="-1.48807">
        <ele>115</ele>
      </trkpt>
      <trkpt lat="43.3169" lon="-1.4883">
        <ele>116.6</ele>
      </trkpt>
      <trkpt lat="43.31667" lon="-1.48856">
        <ele>117.6</ele>
      </trkpt>
      <trkpt lat="43.31645" lon="-1.48878">
        <ele>118.7</ele>
      </trkpt>
      <trkpt lat="43.31618" lon="-1.48889">
        <ele>118.4</ele>
      </trkpt>
      <trkpt lat="43.316" lon="-1.48911">
        <ele>116.1</ele>
      </trkpt>
      <trkpt lat="43.31588" lon="-1.48917">
        <ele>115.7</ele>
      </trkpt>
      <trkpt lat="43.31579" lon="-1.48931">
        <ele>114.5</ele>
      </trkpt>
      <trkpt lat="43.31565" lon="-1.48951">
        <ele>113.4</ele>
      </trkpt>
      <trkpt lat="43.31553" lon="-1.4896">
        <ele>113.9</ele>
      </trkpt>
      <trkpt lat="43.31538" lon="-1.48989">
        <ele>111.5</ele>
      </trkpt>
      <trkpt lat="43.3152" lon="-1.48999">
        <ele>110.4</ele>
      </trkpt>
      <trkpt lat="43.31504" lon="-1.49009">
        <ele>107.8</ele>
      </trkpt>
      <trkpt lat="43.31492" lon="-1.49025">
        <ele>107.7</ele>
      </trkpt>
      <trkpt lat="43.31488" lon="-1.49054">
        <ele>107.2</ele>
      </trkpt>
      <trkpt lat="43.31488" lon="-1.49089">
        <ele>106.3</ele>
      </trkpt>
      <trkpt lat="43.31471" lon="-1.49113">
        <ele>109</ele>
      </trkpt>
      <trkpt lat="43.31454" lon="-1.49122">
        <ele>109.5</ele>
      </trkpt>
      <trkpt lat="43.3143" lon="-1.49135">
        <ele>109.9</ele>
      </trkpt>
      <trkpt lat="43.31413" lon="-1.49159">
        <ele>107.8</ele>
      </trkpt>
      <trkpt lat="43.31379" lon="-1.4917">
        <ele>104.5</ele>
      </trkpt>
      <trkpt lat="43.31357" lon="-1.49187">
        <ele>101</ele>
      </trkpt>
      <trkpt lat="43.31332" lon="-1.49196">
        <ele>99</ele>
      </trkpt>
      <trkpt lat="43.3132" lon="-1.49196">
        <ele>99.5</ele>
      </trkpt>
      <trkpt lat="43.31301" lon="-1.49202">
        <ele>100.8</ele>
      </trkpt>
      <trkpt lat="43.31289" lon="-1.49218">
        <ele>102.8</ele>
      </trkpt>
      <trkpt lat="43.31246" lon="-1.49225">
        <ele>106.8</ele>
      </trkpt>
      <trkpt lat="43.31229" lon="-1.4924">
        <ele>109.8</ele>
      </trkpt>
      <trkpt lat="43.31213" lon="-1.49241">
        <ele>112</ele>
      </trkpt>
      <trkpt lat="43.31197" lon="-1.49255">
        <ele>113.7</ele>
      </trkpt>
      <trkpt lat="43.31183" lon="-1.49256">
        <ele>114.8</ele>
      </trkpt>
      <trkpt lat="43.31146" lon="-1.49267">
        <ele>115.5</ele>
      </trkpt>
      <trkpt lat="43.31124" lon="-1.49271">
        <ele>116.2</ele>
      </trkpt>
      <trkpt lat="43.31107" lon="-1.49285">
        <ele>115.8</ele>
      </trkpt>
      <trkpt lat="43.31087" lon="-1.49296">
        <ele>117.5</ele>
      </trkpt>
      <trkpt lat="43.31083" lon="-1.49333">
        <ele>117</ele>
      </trkpt>
      <trkpt lat="43.31075" lon="-1.49356">
        <ele>119.6</ele>
      </trkpt>
      <trkpt lat="43.31065" lon="-1.49374">
        <ele>120.4</ele>
      </trkpt>
      <trkpt lat="43.3105" lon="-1.49392">
        <ele>121.5</ele>
      </trkpt>
      <trkpt lat="43.3104" lon="-1.49401">
        <ele>121.4</ele>
      </trkpt>
      <trkpt lat="43.3103" lon="-1.49421">
        <ele>119.3</ele>
      </trkpt>
      <trkpt lat="43.3101" lon="-1.49438">
        <ele>116.5</ele>
      </trkpt>
      <trkpt lat="43.30992" lon="-1.49455">
        <ele>114.3</ele>
      </trkpt>
      <trkpt lat="43.30979" lon="-1.49468">
        <ele>112.2</ele>
      </trkpt>
      <trkpt lat="43.30967" lon="-1.49472">
        <ele>110.7</ele>
      </trkpt>
      <trkpt lat="43.3095" lon="-1.49482">
        <ele>107.3</ele>
      </trkpt>
      <trkpt lat="43.30936" lon="-1.49494">
        <ele>105</ele>
      </trkpt>
      <trkpt lat="43.30929" lon="-1.49505">
        <ele>104.2</ele>
      </trkpt>
      <trkpt lat="43.30916" lon="-1.4954">
        <ele>102.9</ele>
      </trkpt>
      <trkpt lat="43.30903" lon="-1.49549">
        <ele>104.4</ele>
      </trkpt>
      <trkpt lat="43.30879" lon="-1.49562">
        <ele>106.5</ele>
      </trkpt>
      <trkpt lat="43.3087" lon="-1.49565">
        <ele>107.5</ele>
      </trkpt>
      <trkpt lat="43.30865" lon="-1.49576">
        <ele>107.4</ele>
      </trkpt>
      <trkpt lat="43.30862" lon="-1.49599">
        <ele>107.5</ele>
      </trkpt>
      <trkpt lat="43.30855" lon="-1.49614">
        <ele>108.5</ele>
      </trkpt>
      <trkpt lat="43.30841" lon="-1.49616">
        <ele>109.6</ele>
      </trkpt>
      <trkpt lat="43.30821" lon="-1.49619">
        <ele>111.9</ele>
      </trkpt>
      <trkpt lat="43.30808" lon="-1.49628">
        <ele>112.4</ele>
      </trkpt>
      <trkpt lat="43.30794" lon="-1.49638">
        <ele>111.5</ele>
      </trkpt>
      <trkpt lat="43.30776" lon="-1.49649">
        <ele>112.3</ele>
      </trkpt>
      <trkpt lat="43.30756" lon="-1.49656">
        <ele>113.6</ele>
      </trkpt>
      <trkpt lat="43.3074" lon="-1.49664">
        <ele>112.8</ele>
      </trkpt>
      <trkpt lat="43.30726" lon="-1.49671">
        <ele>112.8</ele>
      </trkpt>
      <trkpt lat="43.30708" lon="-1.49679">
        <ele>113.6</ele>
      </trkpt>
      <trkpt lat="43.30691" lon="-1.49683">
        <ele>114.1</ele>
      </trkpt>
      <trkpt lat="43.30686" lon="-1.49697">
        <ele>113.4</ele>
      </trkpt>
      <trkpt lat="43.30684" lon="-1.49718">
        <ele>113.9</ele>
      </trkpt>
      <trkpt lat="43.30687" lon="-1.49736">
        <ele>114.6</ele>
      </trkpt>
      <trkpt lat="43.30691" lon="-1.4976">
        <ele>115.5</ele>
      </trkpt>
      <trkpt lat="43.30687" lon="-1.49791">
        <ele>117.4</ele>
      </trkpt>
      <trkpt lat="43.30681" lon="-1.49848">
        <ele>120.5</ele>
      </trkpt>
      <trkpt lat="43.30682" lon="-1.49878">
        <ele>120.5</ele>
      </trkpt>
      <trkpt lat="43.30673" lon="-1.49882">
        <ele>120.8</ele>
      </trkpt>
      <trkpt lat="43.3065" lon="-1.49882">
        <ele>121</ele>
      </trkpt>
      <trkpt lat="43.30612" lon="-1.4989">
        <ele>122</ele>
      </trkpt>
      <trkpt lat="43.30596" lon="-1.49897">
        <ele>122.3</ele>
      </trkpt>
      <trkpt lat="43.3058" lon="-1.499">
        <ele>122.3</ele>
      </trkpt>
      <trkpt lat="43.30563" lon="-1.49904">
        <ele>121.8</ele>
      </trkpt>
      <trkpt lat="43.3054" lon="-1.49912">
        <ele>121.4</ele>
      </trkpt>
      <trkpt lat="43.30523" lon="-1.49909">
        <ele>120.4</ele>
      </trkpt>
      <trkpt lat="43.30506" lon="-1.49898">
        <ele>118.1</ele>
      </trkpt>
      <trkpt lat="43.30499" lon="-1.49878">
        <ele>116.9</ele>
      </trkpt>
      <trkpt lat="43.30491" lon="-1.49867">
        <ele>116.1</ele>
      </trkpt>
      <trkpt lat="43.30486" lon="-1.49851">
        <ele>115.5</ele>
      </trkpt>
      <trkpt lat="43.30484" lon="-1.49834">
        <ele>115.3</ele>
      </trkpt>
      <trkpt lat="43.30494" lon="-1.49815">
        <ele>115.8</ele>
      </trkpt>
      <trkpt lat="43.30505" lon="-1.49799">
        <ele>116.5</ele>
      </trkpt>
      <trkpt lat="43.30508" lon="-1.49782">
        <ele>117.1</ele>
      </trkpt>
      <trkpt lat="43.3052" lon="-1.49759">
        <ele>118.6</ele>
      </trkpt>
      <trkpt lat="43.30529" lon="-1.49739">
        <ele>118.7</ele>
      </trkpt>
      <trkpt lat="43.3055" lon="-1.49728">
        <ele>119.8</ele>
      </trkpt>
      <trkpt lat="43.30563" lon="-1.49723">
        <ele>119.8</ele>
      </trkpt>
      <trkpt lat="43.30582" lon="-1.49723">
        <ele>119.1</ele>
      </trkpt>
      <trkpt lat="43.30599" lon="-1.49712">
        <ele>119.3</ele>
      </trkpt>
      <trkpt lat="43.30616" lon="-1.4971">
        <ele>118.8</ele>
      </trkpt>
      <trkpt lat="43.3063" lon="-1.49708">
        <ele>118.7</ele>
      </trkpt>
      <trkpt lat="43.30648" lon="-1.49706">
        <ele>117</ele>
      </trkpt>
      <trkpt lat="43.30665" lon="-1.49713">
        <ele>114.3</ele>
      </trkpt>
      <trkpt lat="43.30676" lon="-1.49722">
        <ele>114</ele>
      </trkpt>
      <trkpt lat="43.30683" lon="-1.4973">
        <ele>114.4</ele>
      </trkpt>
      <trkpt lat="43.30687" lon="-1.49739">
        <ele>114.8</ele>
      </trkpt>
      <trkpt lat="43.30686" lon="-1.49749">
        <ele>115.2</ele>
      </trkpt>
      <trkpt lat="43.30686" lon="-1.4977">
        <ele>116.2</ele>
      </trkpt>
      <trkpt lat="43.30686" lon="-1.49778">
        <ele>116.6</ele>
      </trkpt>
      <trkpt lat="43.30686" lon="-1.49786">
        <ele>117.2</ele>
      </trkpt>
      <trkpt lat="43.30688" lon="-1.49803">
        <ele>118.3</ele>
      </trkpt>
      <trkpt lat="43.30686" lon="-1.49814">
        <ele>119.1</ele>
      </trkpt>
      <trkpt lat="43.30684" lon="-1.49828">
        <ele>120.1</ele>
      </trkpt>
      <trkpt lat="43.30684" lon="-1.49841">
        <ele>120.4</ele>
      </trkpt>
      <trkpt lat="43.3068" lon="-1.49864">
        <ele>120.5</ele>
      </trkpt>
      <trkpt lat="43.30684" lon="-1.49882">
        <ele>120.4</ele>
      </trkpt>
      <trkpt lat="43.30694" lon="-1.49885">
        <ele>120</ele>
      </trkpt>
      <trkpt lat="43.30712" lon="-1.49896">
        <ele>117.8</ele>
      </trkpt>
      <trkpt lat="43.30719" lon="-1.49899">
        <ele>116.7</ele>
      </trkpt>
      <trkpt lat="43.30728" lon="-1.49899">
        <ele>116.3</ele>
      </trkpt>
      <trkpt lat="43.30736" lon="-1.49899">
        <ele>116.3</ele>
      </trkpt>
      <trkpt lat="43.30748" lon="-1.499">
        <ele>116.2</ele>
      </trkpt>
      <trkpt lat="43.3076" lon="-1.49897">
        <ele>115.5</ele>
      </trkpt>
      <trkpt lat="43.30776" lon="-1.499">
        <ele>114.1</ele>
      </trkpt>
      <trkpt lat="43.30789" lon="-1.49897">
        <ele>113.6</ele>
      </trkpt>
      <trkpt lat="43.30799" lon="-1.49904">
        <ele>113.2</ele>
      </trkpt>
      <trkpt lat="43.30814" lon="-1.499">
        <ele>112.7</ele>
      </trkpt>
      <trkpt lat="43.30819" lon="-1.49903">
        <ele>112.8</ele>
      </trkpt>
      <trkpt lat="43.3083" lon="-1.49903">
        <ele>112.6</ele>
      </trkpt>
      <trkpt lat="43.30845" lon="-1.49898">
        <ele>111.8</ele>
      </trkpt>
      <trkpt lat="43.30852" lon="-1.49901">
        <ele>112</ele>
      </trkpt>
      <trkpt lat="43.3087" lon="-1.49901">
        <ele>111.9</ele>
      </trkpt>
      <trkpt lat="43.3088" lon="-1.49899">
        <ele>111.7</ele>
      </trkpt>
      <trkpt lat="43.30888" lon="-1.49897">
        <ele>111.6</ele>
      </trkpt>
      <trkpt lat="43.30888" lon="-1.49904">
        <ele>112.1</ele>
      </trkpt>
      <trkpt lat="43.30871" lon="-1.49907">
        <ele>112.3</ele>
      </trkpt>
      <trkpt lat="43.30858" lon="-1.49907">
        <ele>112.4</ele>
      </trkpt>
      <trkpt lat="43.30844" lon="-1.49904">
        <ele>112.5</ele>
      </trkpt>
      <trkpt lat="43.30817" lon="-1.49907">
        <ele>113</ele>
      </trkpt>
      <trkpt lat="43.30808" lon="-1.49905">
        <ele>113</ele>
      </trkpt>
      <trkpt lat="43.30791" lon="-1.49904">
        <ele>113.5</ele>
      </trkpt>
      <trkpt lat="43.30778" lon="-1.49901">
        <ele>114</ele>
      </trkpt>
      <trkpt lat="43.30767" lon="-1.49903">
        <ele>114.8</ele>
      </trkpt>
      <trkpt lat="43.30757" lon="-1.49903">
        <ele>115.5</ele>
      </trkpt>
      <trkpt lat="43.30753" lon="-1.49906">
        <ele>115.6</ele>
      </trkpt>
      <trkpt lat="43.30752" lon="-1.49912">
        <ele>115.2</ele>
      </trkpt>
      <trkpt lat="43.30757" lon="-1.49919">
        <ele>114.7</ele>
      </trkpt>
      <trkpt lat="43.3076" lon="-1.4993">
        <ele>114.6</ele>
      </trkpt>
      <trkpt lat="43.30767" lon="-1.49936">
        <ele>114.4</ele>
      </trkpt>
      <trkpt lat="43.30787" lon="-1.49943">
        <ele>114</ele>
      </trkpt>
      <trkpt lat="43.30795" lon="-1.4995">
        <ele>114</ele>
      </trkpt>
      <trkpt lat="43.30799" lon="-1.49959">
        <ele>114</ele>
      </trkpt>
      <trkpt lat="43.30803" lon="-1.49971">
        <ele>114</ele>
      </trkpt>
      <trkpt lat="43.30809" lon="-1.49975">
        <ele>114</ele>
      </trkpt>
      <trkpt lat="43.30814" lon="-1.49988">
        <ele>114.2</ele>
      </trkpt>
      <trkpt lat="43.30818" lon="-1.50007">
        <ele>114.5</ele>
      </trkpt>
      <trkpt lat="43.30823" lon="-1.50019">
        <ele>114.6</ele>
      </trkpt>
      <trkpt lat="43.30824" lon="-1.5003">
        <ele>114.8</ele>
      </trkpt>
      <trkpt lat="43.30824" lon="-1.50039">
        <ele>115</ele>
      </trkpt>
      <trkpt lat="43.30827" lon="-1.50047">
        <ele>115.5</ele>
      </trkpt>
      <trkpt lat="43.30829" lon="-1.50055">
        <ele>115.8</ele>
      </trkpt>
      <trkpt lat="43.30831" lon="-1.50064">
        <ele>116.2</ele>
      </trkpt>
      <trkpt lat="43.30835" lon="-1.50078">
        <ele>116.8</ele>
      </trkpt>
      <trkpt lat="43.30838" lon="-1.50085">
        <ele>117.3</ele>
      </trkpt>
      <trkpt lat="43.30843" lon="-1.50097">
        <ele>118.5</ele>
      </trkpt>
      <trkpt lat="43.30847" lon="-1.50113">
        <ele>120</ele>
      </trkpt>
      <trkpt lat="43.30852" lon="-1.50127">
        <ele>121.1</ele>
      </trkpt>
      <trkpt lat="43.3086" lon="-1.50136">
        <ele>121.8</ele>
      </trkpt>
      <trkpt lat="43.30865" lon="-1.50153">
        <ele>122.9</ele>
      </trkpt>
      <trkpt lat="43.30871" lon="-1.50176">
        <ele>124.9</ele>
      </trkpt>
      <trkpt lat="43.30879" lon="-1.50192">
        <ele>126.4</ele>
      </trkpt>
      <trkpt lat="43.30881" lon="-1.50214">
        <ele>126.8</ele>
      </trkpt>
      <trkpt lat="43.30887" lon="-1.50233">
        <ele>126.6</ele>
      </trkpt>
      <trkpt lat="43.30891" lon="-1.50249">
        <ele>126.8</ele>
      </trkpt>
      <trkpt lat="43.3089" lon="-1.50264">
        <ele>126.9</ele>
      </trkpt>
      <trkpt lat="43.30894" lon="-1.50275">
        <ele>126.6</ele>
      </trkpt>
      <trkpt lat="43.30901" lon="-1.50298">
        <ele>125.9</ele>
      </trkpt>
      <trkpt lat="43.30902" lon="-1.50319">
        <ele>124.9</ele>
      </trkpt>
      <trkpt lat="43.30904" lon="-1.50335">
        <ele>123.8</ele>
      </trkpt>
      <trkpt lat="43.30901" lon="-1.50361">
        <ele>123</ele>
      </trkpt>
      <trkpt lat="43.30902" lon="-1.50382">
        <ele>121.9</ele>
      </trkpt>
      <trkpt lat="43.309" lon="-1.50405">
        <ele>119.7</ele>
      </trkpt>
      <trkpt lat="43.30896" lon="-1.50427">
        <ele>117.6</ele>
      </trkpt>
      <trkpt lat="43.30894" lon="-1.50453">
        <ele>116.5</ele>
      </trkpt>
      <trkpt lat="43.30891" lon="-1.50468">
        <ele>116.8</ele>
      </trkpt>
      <trkpt lat="43.30887" lon="-1.50477">
        <ele>116.8</ele>
      </trkpt>
      <trkpt lat="43.30882" lon="-1.50491">
        <ele>116.5</ele>
      </trkpt>
      <trkpt lat="43.30874" lon="-1.50497">
        <ele>116.2</ele>
      </trkpt>
      <trkpt lat="43.30866" lon="-1.50511">
        <ele>116.8</ele>
      </trkpt>
      <trkpt lat="43.30858" lon="-1.50519">
        <ele>117.3</ele>
      </trkpt>
      <trkpt lat="43.30848" lon="-1.50551">
        <ele>121.3</ele>
      </trkpt>
      <trkpt lat="43.30844" lon="-1.50564">
        <ele>122.6</ele>
      </trkpt>
      <trkpt lat="43.30839" lon="-1.50578">
        <ele>124.1</ele>
      </trkpt>
      <trkpt lat="43.30835" lon="-1.50581">
        <ele>125.5</ele>
      </trkpt>
      <trkpt lat="43.30826" lon="-1.50583">
        <ele>126</ele>
      </trkpt>
      <trkpt lat="43.30818" lon="-1.50587">
        <ele>126.6</ele>
      </trkpt>
      <trkpt lat="43.30803" lon="-1.50588">
        <ele>126.9</ele>
      </trkpt>
      <trkpt lat="43.30796" lon="-1.50591">
        <ele>127</ele>
      </trkpt>
      <trkpt lat="43.30787" lon="-1.50591">
        <ele>126.3</ele>
      </trkpt>
      <trkpt lat="43.30779" lon="-1.50596">
        <ele>126.8</ele>
      </trkpt>
      <trkpt lat="43.3077" lon="-1.50602">
        <ele>126.3</ele>
      </trkpt>
      <trkpt lat="43.3076" lon="-1.50614">
        <ele>126.5</ele>
      </trkpt>
      <trkpt lat="43.30754" lon="-1.50619">
        <ele>126.4</ele>
      </trkpt>
      <trkpt lat="43.30746" lon="-1.50638">
        <ele>128</ele>
      </trkpt>
      <trkpt lat="43.30742" lon="-1.50656">
        <ele>129.2</ele>
      </trkpt>
      <trkpt lat="43.30746" lon="-1.50674">
        <ele>131.2</ele>
      </trkpt>
      <trkpt lat="43.30751" lon="-1.50698">
        <ele>132.1</ele>
      </trkpt>
      <trkpt lat="43.30757" lon="-1.50703">
        <ele>132.9</ele>
      </trkpt>
      <trkpt lat="43.30763" lon="-1.50721">
        <ele>132.9</ele>
      </trkpt>
      <trkpt lat="43.30774" lon="-1.50734">
        <ele>132.7</ele>
      </trkpt>
      <trkpt lat="43.30787" lon="-1.50742">
        <ele>132.6</ele>
      </trkpt>
      <trkpt lat="43.30799" lon="-1.50753">
        <ele>130.8</ele>
      </trkpt>
      <trkpt lat="43.30828" lon="-1.50772">
        <ele>128.2</ele>
      </trkpt>
      <trkpt lat="43.30843" lon="-1.50785">
        <ele>127.3</ele>
      </trkpt>
      <trkpt lat="43.30864" lon="-1.50802">
        <ele>126.9</ele>
      </trkpt>
      <trkpt lat="43.30881" lon="-1.50819">
        <ele>126.2</ele>
      </trkpt>
      <trkpt lat="43.30891" lon="-1.50829">
        <ele>125.7</ele>
      </trkpt>
      <trkpt lat="43.30897" lon="-1.50838">
        <ele>125.3</ele>
      </trkpt>
      <trkpt lat="43.30902" lon="-1.50854">
        <ele>124.8</ele>
      </trkpt>
      <trkpt lat="43.30906" lon="-1.50859">
        <ele>124.9</ele>
      </trkpt>
      <trkpt lat="43.30908" lon="-1.50879">
        <ele>124.6</ele>
      </trkpt>
      <trkpt lat="43.30908" lon="-1.50895">
        <ele>124.2</ele>
      </trkpt>
      <trkpt lat="43.30904" lon="-1.5092">
        <ele>122.7</ele>
      </trkpt>
      <trkpt lat="43.30904" lon="-1.50934">
        <ele>122.4</ele>
      </trkpt>
      <trkpt lat="43.30904" lon="-1.5095">
        <ele>121.9</ele>
      </trkpt>
      <trkpt lat="43.30903" lon="-1.50965">
        <ele>121</ele>
      </trkpt>
      <trkpt lat="43.30905" lon="-1.50976">
        <ele>121.3</ele>
      </trkpt>
      <trkpt lat="43.30902" lon="-1.50993">
        <ele>121.3</ele>
      </trkpt>
      <trkpt lat="43.30899" lon="-1.51006">
        <ele>121.1</ele>
      </trkpt>
      <trkpt lat="43.30892" lon="-1.51019">
        <ele>120.2</ele>
      </trkpt>
      <trkpt lat="43.30886" lon="-1.51027">
        <ele>119</ele>
      </trkpt>
      <trkpt lat="43.30882" lon="-1.51038">
        <ele>118.4</ele>
      </trkpt>
      <trkpt lat="43.30877" lon="-1.51051">
        <ele>117.4</ele>
      </trkpt>
      <trkpt lat="43.30872" lon="-1.51062">
        <ele>116</ele>
      </trkpt>
      <trkpt lat="43.30872" lon="-1.51075">
        <ele>115.7</ele>
      </trkpt>
      <trkpt lat="43.3087" lon="-1.51091">
        <ele>114.1</ele>
      </trkpt>
      <trkpt lat="43.30876" lon="-1.5111">
        <ele>113.4</ele>
      </trkpt>
      <trkpt lat="43.30876" lon="-1.51129">
        <ele>110.9</ele>
      </trkpt>
      <trkpt lat="43.30876" lon="-1.51145">
        <ele>109.5</ele>
      </trkpt>
      <trkpt lat="43.30873" lon="-1.51157">
        <ele>107.6</ele>
      </trkpt>
      <trkpt lat="43.3087" lon="-1.51171">
        <ele>106.2</ele>
      </trkpt>
      <trkpt lat="43.3087" lon="-1.51187">
        <ele>105.8</ele>
      </trkpt>
      <trkpt lat="43.30872" lon="-1.51202">
        <ele>104.9</ele>
      </trkpt>
      <trkpt lat="43.30879" lon="-1.51216">
        <ele>103.5</ele>
      </trkpt>
      <trkpt lat="43.30887" lon="-1.51228">
        <ele>102.1</ele>
      </trkpt>
      <trkpt lat="43.3089" lon="-1.51242">
        <ele>100.1</ele>
      </trkpt>
      <trkpt lat="43.30897" lon="-1.51262">
        <ele>97.9</ele>
      </trkpt>
      <trkpt lat="43.30908" lon="-1.5129">
        <ele>94.7</ele>
      </trkpt>
      <trkpt lat="43.30914" lon="-1.51307">
        <ele>92.9</ele>
      </trkpt>
      <trkpt lat="43.30919" lon="-1.51324">
        <ele>91.6</ele>
      </trkpt>
      <trkpt lat="43.30925" lon="-1.51336">
        <ele>90.7</ele>
      </trkpt>
      <trkpt lat="43.30927" lon="-1.51344">
        <ele>90.5</ele>
      </trkpt>
      <trkpt lat="43.30932" lon="-1.51358">
        <ele>90</ele>
      </trkpt>
      <trkpt lat="43.30941" lon="-1.51375">
        <ele>89.1</ele>
      </trkpt>
      <trkpt lat="43.30955" lon="-1.51372">
        <ele>87.7</ele>
      </trkpt>
      <trkpt lat="43.30975" lon="-1.51364">
        <ele>84.8</ele>
      </trkpt>
      <trkpt lat="43.30988" lon="-1.51356">
        <ele>83.1</ele>
      </trkpt>
      <trkpt lat="43.31003" lon="-1.51351">
        <ele>81.8</ele>
      </trkpt>
      <trkpt lat="43.31017" lon="-1.51343">
        <ele>80.7</ele>
      </trkpt>
      <trkpt lat="43.3103" lon="-1.51338">
        <ele>79.3</ele>
      </trkpt>
      <trkpt lat="43.31045" lon="-1.51328">
        <ele>78.4</ele>
      </trkpt>
      <trkpt lat="43.31056" lon="-1.51321">
        <ele>78.2</ele>
      </trkpt>
      <trkpt lat="43.31069" lon="-1.51314">
        <ele>76.8</ele>
      </trkpt>
      <trkpt lat="43.31077" lon="-1.51305">
        <ele>76.5</ele>
      </trkpt>
      <trkpt lat="43.31089" lon="-1.51286">
        <ele>76</ele>
      </trkpt>
      <trkpt lat="43.31106" lon="-1.51261">
        <ele>70.9</ele>
      </trkpt>
      <trkpt lat="43.31115" lon="-1.51241">
        <ele>68.3</ele>
      </trkpt>
      <trkpt lat="43.31121" lon="-1.51224">
        <ele>67.2</ele>
      </trkpt>
      <trkpt lat="43.31132" lon="-1.51205">
        <ele>65.8</ele>
      </trkpt>
      <trkpt lat="43.3114" lon="-1.51188">
        <ele>65</ele>
      </trkpt>
      <trkpt lat="43.31152" lon="-1.5117">
        <ele>64.5</ele>
      </trkpt>
      <trkpt lat="43.31158" lon="-1.51161">
        <ele>64.2</ele>
      </trkpt>
      <trkpt lat="43.31177" lon="-1.51143">
        <ele>64.4</ele>
      </trkpt>
      <trkpt lat="43.31186" lon="-1.51137">
        <ele>64.7</ele>
      </trkpt>
      <trkpt lat="43.31195" lon="-1.51144">
        <ele>65.1</ele>
        <time>2023-08-12T09:09:11Z</time>
      </trkpt>
      <trkpt lat="43.31186" lon="-1.51238">
        <ele>70.31</ele>
        <time>2023-08-12T09:09:22Z</time>
      </trkpt>
      <trkpt lat="43.31193" lon="-1.51378">
        <ele>68.87</ele>
        <time>2023-08-12T09:09:38Z</time>
      </trkpt>
      <trkpt lat="43.31218" lon="-1.51495">
        <ele>68.87</ele>
        <time>2023-08-12T09:09:55Z</time>
      </trkpt>
      <trkpt lat="43.31232" lon="-1.51541">
        <ele>68.87</ele>
        <time>2023-08-12T09:10:02Z</time>
      </trkpt>
      <trkpt lat="43.31235" lon="-1.51547">
        <ele>69.35</ele>
        <time>2023-08-12T09:10:03Z</time>
      </trkpt>
      <trkpt lat="43.31239" lon="-1.51553">
        <ele>68.87</ele>
        <time>2023-08-12T09:10:04Z</time>
      </trkpt>
      <trkpt lat="43.313" lon="-1.51642">
        <ele>68.39</ele>
        <time>2023-08-12T09:10:21Z</time>
      </trkpt>
      <trkpt lat="43.31357" lon="-1.51729">
        <ele>65.99</ele>
        <time>2023-08-12T09:10:35Z</time>
      </trkpt>
      <trkpt lat="43.31394" lon="-1.51822">
        <ele>63.58</ele>
        <time>2023-08-12T09:10:47Z</time>
      </trkpt>
      <trkpt lat="43.31421" lon="-1.51955">
        <ele>62.62</ele>
        <time>2023-08-12T09:11:04Z</time>
      </trkpt>
      <trkpt lat="43.31424" lon="-1.51963">
        <ele>62.14</ele>
        <time>2023-08-12T09:11:05Z</time>
      </trkpt>
      <trkpt lat="43.31427" lon="-1.5197">
        <ele>62.14</ele>
        <time>2023-08-12T09:11:06Z</time>
      </trkpt>
      <trkpt lat="43.31434" lon="-1.51983">
        <ele>62.14</ele>
        <time>2023-08-12T09:11:08Z</time>
      </trkpt>
      <trkpt lat="43.31439" lon="-1.51988">
        <ele>61.66</ele>
        <time>2023-08-12T09:11:09Z</time>
      </trkpt>
      <trkpt lat="43.31444" lon="-1.51994">
        <ele>61.66</ele>
        <time>2023-08-12T09:11:10Z</time>
      </trkpt>
      <trkpt lat="43.31449" lon="-1.51998">
        <ele>61.66</ele>
        <time>2023-08-12T09:11:11Z</time>
      </trkpt>
      <trkpt lat="43.31454" lon="-1.52002">
        <ele>61.66</ele>
        <time>2023-08-12T09:11:12Z</time>
      </trkpt>
      <trkpt lat="43.3146" lon="-1.52005">
        <ele>61.18</ele>
        <time>2023-08-12T09:11:13Z</time>
      </trkpt>
      <trkpt lat="43.31533" lon="-1.52059">
        <ele>60.7</ele>
        <time>2023-08-12T09:11:26Z</time>
      </trkpt>
      <trkpt lat="43.31607" lon="-1.52161">
        <ele>59.26</ele>
        <time>2023-08-12T09:11:43Z</time>
      </trkpt>
      <trkpt lat="43.31679" lon="-1.5226">
        <ele>57.82</ele>
        <time>2023-08-12T09:12:00Z</time>
      </trkpt>
      <trkpt lat="43.31746" lon="-1.52358">
        <ele>56.37</ele>
        <time>2023-08-12T09:12:17Z</time>
      </trkpt>
      <trkpt lat="43.3181" lon="-1.52468">
        <ele>54.93</ele>
        <time>2023-08-12T09:12:36Z</time>
      </trkpt>
      <trkpt lat="43.31813" lon="-1.52489">
        <ele>54.45</ele>
        <time>2023-08-12T09:12:39Z</time>
      </trkpt>
      <trkpt lat="43.31814" lon="-1.52497">
        <ele>54.45</ele>
        <time>2023-08-12T09:12:40Z</time>
      </trkpt>
      <trkpt lat="43.31813" lon="-1.52504">
        <ele>54.45</ele>
        <time>2023-08-12T09:12:41Z</time>
      </trkpt>
      <trkpt lat="43.31812" lon="-1.5252">
        <ele>54.45</ele>
        <time>2023-08-12T09:12:43Z</time>
      </trkpt>
      <trkpt lat="43.31794" lon="-1.52636">
        <ele>52.53</ele>
        <time>2023-08-12T09:12:59Z</time>
      </trkpt>
      <trkpt lat="43.31772" lon="-1.52751">
        <ele>52.05</ele>
        <time>2023-08-12T09:13:15Z</time>
      </trkpt>
      <trkpt lat="43.31755" lon="-1.52872">
        <ele>52.53</ele>
        <time>2023-08-12T09:13:32Z</time>
      </trkpt>
      <trkpt lat="43.31738" lon="-1.52992">
        <ele>51.57</ele>
        <time>2023-08-12T09:13:50Z</time>
      </trkpt>
      <trkpt lat="43.31718" lon="-1.53114">
        <ele>51.57</ele>
        <time>2023-08-12T09:14:08Z</time>
      </trkpt>
      <trkpt lat="43.31713" lon="-1.53135">
        <ele>51.09</ele>
        <time>2023-08-12T09:14:11Z</time>
      </trkpt>
      <trkpt lat="43.31713" lon="-1.53142">
        <ele>51.57</ele>
        <time>2023-08-12T09:14:12Z</time>
      </trkpt>
      <trkpt lat="43.31713" lon="-1.53149">
        <ele>50.61</ele>
        <time>2023-08-12T09:14:13Z</time>
      </trkpt>
      <trkpt lat="43.31714" lon="-1.53155">
        <ele>51.09</ele>
        <time>2023-08-12T09:14:14Z</time>
      </trkpt>
      <trkpt lat="43.31715" lon="-1.53162">
        <ele>50.61</ele>
        <time>2023-08-12T09:14:15Z</time>
      </trkpt>
      <trkpt lat="43.31718" lon="-1.53168">
        <ele>50.61</ele>
        <time>2023-08-12T09:14:16Z</time>
      </trkpt>
      <trkpt lat="43.31721" lon="-1.53174">
        <ele>50.61</ele>
        <time>2023-08-12T09:14:17Z</time>
      </trkpt>
      <trkpt lat="43.31725" lon="-1.53179">
        <ele>50.61</ele>
        <time>2023-08-12T09:14:18Z</time>
      </trkpt>
      <trkpt lat="43.31788" lon="-1.53273">
        <ele>48.2</ele>
        <time>2023-08-12T09:14:34Z</time>
      </trkpt>
      <trkpt lat="43.31861" lon="-1.53382">
        <ele>47.24</ele>
        <time>2023-08-12T09:14:53Z</time>
      </trkpt>
      <trkpt lat="43.31936" lon="-1.53497">
        <ele>46.28</ele>
        <time>2023-08-12T09:15:13Z</time>
      </trkpt>
      <trkpt lat="43.31984" lon="-1.53573">
        <ele>45.32</ele>
        <time>2023-08-12T09:15:26Z</time>
      </trkpt>
      <trkpt lat="43.31987" lon="-1.53579">
        <ele>45.32</ele>
        <time>2023-08-12T09:15:27Z</time>
      </trkpt>
      <trkpt lat="43.32002" lon="-1.53678">
        <ele>44.84</ele>
        <time>2023-08-12T09:15:40Z</time>
      </trkpt>
      <trkpt lat="43.32008" lon="-1.53805">
        <ele>44.36</ele>
        <time>2023-08-12T09:15:56Z</time>
      </trkpt>
      <trkpt lat="43.32012" lon="-1.5393">
        <ele>43.88</ele>
        <time>2023-08-12T09:16:13Z</time>
      </trkpt>
      <trkpt lat="43.32012" lon="-1.53936">
        <ele>44.36</ele>
        <time>2023-08-12T09:16:14Z</time>
      </trkpt>
      <trkpt lat="43.32011" lon="-1.53942">
        <ele>44.36</ele>
        <time>2023-08-12T09:16:15Z</time>
      </trkpt>
      <trkpt lat="43.31986" lon="-1.54055">
        <ele>43.88</ele>
        <time>2023-08-12T09:16:32Z</time>
      </trkpt>
      <trkpt lat="43.31953" lon="-1.54177">
        <ele>42.92</ele>
        <time>2023-08-12T09:16:51Z</time>
      </trkpt>
      <trkpt lat="43.31919" lon="-1.54287">
        <ele>41.95</ele>
        <time>2023-08-12T09:17:08Z</time>
      </trkpt>
      <trkpt lat="43.31891" lon="-1.54391">
        <ele>41.47</ele>
        <time>2023-08-12T09:17:23Z</time>
      </trkpt>
      <trkpt lat="43.31879" lon="-1.54519">
        <ele>40.51</ele>
        <time>2023-08-12T09:17:41Z</time>
      </trkpt>
      <trkpt lat="43.31908" lon="-1.54628">
        <ele>40.03</ele>
        <time>2023-08-12T09:17:57Z</time>
      </trkpt>
      <trkpt lat="43.31961" lon="-1.547">
        <ele>39.55</ele>
        <time>2023-08-12T09:18:12Z</time>
      </trkpt>
      <trkpt lat="43.32023" lon="-1.54777">
        <ele>39.07</ele>
        <time>2023-08-12T09:18:28Z</time>
      </trkpt>
      <trkpt lat="43.32098" lon="-1.54871">
        <ele>38.59</ele>
        <time>2023-08-12T09:18:47Z</time>
      </trkpt>
      <trkpt lat="43.32129" lon="-1.54915">
        <ele>38.11</ele>
        <time>2023-08-12T09:18:55Z</time>
      </trkpt>
      <trkpt lat="43.32132" lon="-1.54921">
        <ele>38.11</ele>
        <time>2023-08-12T09:18:56Z</time>
      </trkpt>
      <trkpt lat="43.32133" lon="-1.54927">
        <ele>38.59</ele>
        <time>2023-08-12T09:18:57Z</time>
      </trkpt>
      <trkpt lat="43.32135" lon="-1.54933">
        <ele>39.07</ele>
        <time>2023-08-12T09:18:58Z</time>
      </trkpt>
      <trkpt lat="43.32136" lon="-1.54939">
        <ele>38.59</ele>
        <time>2023-08-12T09:18:59Z</time>
      </trkpt>
      <trkpt lat="43.32136" lon="-1.54946">
        <ele>38.59</ele>
        <time>2023-08-12T09:19:00Z</time>
      </trkpt>
      <trkpt lat="43.3214" lon="-1.54975">
        <ele>38.59</ele>
        <time>2023-08-12T09:19:05Z</time>
      </trkpt>
      <trkpt lat="43.32141" lon="-1.54981">
        <ele>39.07</ele>
        <time>2023-08-12T09:19:06Z</time>
      </trkpt>
      <trkpt lat="43.32151" lon="-1.55035">
        <ele>37.63</ele>
        <time>2023-08-12T09:19:16Z</time>
      </trkpt>
      <trkpt lat="43.32152" lon="-1.55041">
        <ele>38.11</ele>
        <time>2023-08-12T09:19:17Z</time>
      </trkpt>
      <trkpt lat="43.32151" lon="-1.55046">
        <ele>37.63</ele>
        <time>2023-08-12T09:19:18Z</time>
      </trkpt>
      <trkpt lat="43.32149" lon="-1.55052">
        <ele>37.63</ele>
        <time>2023-08-12T09:19:19Z</time>
      </trkpt>
      <trkpt lat="43.32147" lon="-1.55057">
        <ele>38.11</ele>
        <time>2023-08-12T09:19:20Z</time>
      </trkpt>
      <trkpt lat="43.32127" lon="-1.55136">
        <ele>38.11</ele>
        <time>2023-08-12T09:19:34Z</time>
      </trkpt>
      <trkpt lat="43.32102" lon="-1.55241">
        <ele>38.11</ele>
        <time>2023-08-12T09:19:52Z</time>
      </trkpt>
      <trkpt lat="43.32075" lon="-1.55326">
        <ele>39.07</ele>
        <time>2023-08-12T09:20:08Z</time>
      </trkpt>
      <trkpt lat="43.32042" lon="-1.55367">
        <ele>40.03</ele>
        <time>2023-08-12T09:20:20Z</time>
      </trkpt>
      <trkpt lat="43.32007" lon="-1.554">
        <ele>40.51</ele>
        <time>2023-08-12T09:20:31Z</time>
      </trkpt>
      <trkpt lat="43.32004" lon="-1.55405">
        <ele>40.51</ele>
        <time>2023-08-12T09:20:32Z</time>
      </trkpt>
      <trkpt lat="43.32001" lon="-1.5541">
        <ele>40.51</ele>
        <time>2023-08-12T09:20:33Z</time>
      </trkpt>
      <trkpt lat="43.31984" lon="-1.5548">
        <ele>42.92</ele>
        <time>2023-08-12T09:20:48Z</time>
      </trkpt>
      <trkpt lat="43.31967" lon="-1.55563">
        <ele>44.84</ele>
        <time>2023-08-12T09:21:07Z</time>
      </trkpt>
      <trkpt lat="43.31945" lon="-1.55648">
        <ele>46.76</ele>
        <time>2023-08-12T09:21:28Z</time>
      </trkpt>
      <trkpt lat="43.31913" lon="-1.55703">
        <ele>47.24</ele>
        <time>2023-08-12T09:21:43Z</time>
      </trkpt>
      <trkpt lat="43.31872" lon="-1.55754">
        <ele>49.16</ele>
        <time>2023-08-12T09:22:01Z</time>
      </trkpt>
      <trkpt lat="43.31829" lon="-1.55828">
        <ele>50.13</ele>
        <time>2023-08-12T09:22:21Z</time>
      </trkpt>
      <trkpt lat="43.31797" lon="-1.55884">
        <ele>53.01</ele>
        <time>2023-08-12T09:22:38Z</time>
      </trkpt>
      <trkpt lat="43.31764" lon="-1.55932">
        <ele>54.93</ele>
        <time>2023-08-12T09:22:54Z</time>
      </trkpt>
      <trkpt lat="43.31741" lon="-1.55997">
        <ele>56.37</ele>
        <time>2023-08-12T09:23:10Z</time>
      </trkpt>
      <trkpt lat="43.31692" lon="-1.56051">
        <ele>58.78</ele>
        <time>2023-08-12T09:23:30Z</time>
      </trkpt>
      <trkpt lat="43.3166" lon="-1.56086">
        <ele>60.22</ele>
        <time>2023-08-12T09:23:46Z</time>
      </trkpt>
      <trkpt lat="43.31645" lon="-1.5612">
        <ele>59.26</ele>
        <time>2023-08-12T09:23:58Z</time>
      </trkpt>
      <trkpt lat="43.31628" lon="-1.56171">
        <ele>61.18</ele>
        <time>2023-08-12T09:24:13Z</time>
      </trkpt>
      <trkpt lat="43.31609" lon="-1.56231">
        <ele>62.62</ele>
        <time>2023-08-12T09:24:31Z</time>
      </trkpt>
      <trkpt lat="43.31591" lon="-1.5628">
        <ele>62.14</ele>
        <time>2023-08-12T09:24:44Z</time>
      </trkpt>
      <trkpt lat="43.31584" lon="-1.56302">
        <ele>61.66</ele>
        <time>2023-08-12T09:24:53Z</time>
      </trkpt>
      <trkpt lat="43.31585" lon="-1.56303">
        <ele>61.18</ele>
        <time>2023-08-12T09:25:11Z</time>
      </trkpt>
      <trkpt lat="43.31586" lon="-1.56301">
        <ele>61.66</ele>
        <time>2023-08-12T09:25:45Z</time>
      </trkpt>
      <trkpt lat="43.31575" lon="-1.56321">
        <ele>61.18</ele>
        <time>2023-08-12T09:25:58Z</time>
      </trkpt>
      <trkpt lat="43.31545" lon="-1.56386">
        <ele>62.62</ele>
        <time>2023-08-12T09:26:16Z</time>
      </trkpt>
      <trkpt lat="43.31533" lon="-1.5642">
        <ele>63.58</ele>
        <time>2023-08-12T09:26:27Z</time>
      </trkpt>
      <trkpt lat="43.31525" lon="-1.5645">
        <ele>62.62</ele>
        <time>2023-08-12T09:26:34Z</time>
      </trkpt>
      <trkpt lat="43.31522" lon="-1.56462">
        <ele>62.14</ele>
        <time>2023-08-12T09:26:36Z</time>
      </trkpt>
      <trkpt lat="43.31515" lon="-1.56501">
        <ele>58.78</ele>
        <time>2023-08-12T09:26:41Z</time>
      </trkpt>
      <trkpt lat="43.31514" lon="-1.5651">
        <ele>58.78</ele>
        <time>2023-08-12T09:26:42Z</time>
      </trkpt>
      <trkpt lat="43.31476" lon="-1.56627">
        <ele>57.34</ele>
        <time>2023-08-12T09:26:55Z</time>
      </trkpt>
      <trkpt lat="43.31459" lon="-1.56668">
        <ele>59.74</ele>
        <time>2023-08-12T09:27:06Z</time>
      </trkpt>
      <trkpt lat="43.31446" lon="-1.56698">
        <ele>60.7</ele>
        <time>2023-08-12T09:27:18Z</time>
      </trkpt>
      <trkpt lat="43.31429" lon="-1.56725">
        <ele>64.07</ele>
        <time>2023-08-12T09:27:33Z</time>
      </trkpt>
      <trkpt lat="43.31412" lon="-1.56741">
        <ele>66.95</ele>
        <time>2023-08-12T09:27:46Z</time>
      </trkpt>
      <trkpt lat="43.31385" lon="-1.56732">
        <ele>69.35</ele>
        <time>2023-08-12T09:28:02Z</time>
      </trkpt>
      <trkpt lat="43.31378" lon="-1.56727">
        <ele>69.83</ele>
        <time>2023-08-12T09:28:09Z</time>
      </trkpt>
      <trkpt lat="43.3138" lon="-1.56727">
        <ele>69.35</ele>
        <time>2023-08-12T09:28:10Z</time>
      </trkpt>
      <trkpt lat="43.31381" lon="-1.56727">
        <ele>68.87</ele>
        <time>2023-08-12T09:28:11Z</time>
      </trkpt>
      <trkpt lat="43.31384" lon="-1.56722">
        <ele>68.87</ele>
        <time>2023-08-12T09:28:23Z</time>
      </trkpt>
      <trkpt lat="43.31391" lon="-1.56723">
        <ele>68.87</ele>
        <time>2023-08-12T09:29:04Z</time>
      </trkpt>
      <trkpt lat="43.31381" lon="-1.56726">
        <ele>69.83</ele>
        <time>2023-08-12T09:29:27Z</time>
      </trkpt>
      <trkpt lat="43.31353" lon="-1.56721">
        <ele>71.76</ele>
        <time>2023-08-12T09:29:41Z</time>
      </trkpt>
      <trkpt lat="43.31314" lon="-1.56721">
        <ele>74.64</ele>
        <time>2023-08-12T09:29:59Z</time>
      </trkpt>
      <trkpt lat="43.31278" lon="-1.56756">
        <ele>76.08</ele>
        <time>2023-08-12T09:30:16Z</time>
      </trkpt>
      <trkpt lat="43.31243" lon="-1.56801">
        <ele>76.08</ele>
        <time>2023-08-12T09:30:31Z</time>
      </trkpt>
      <trkpt lat="43.31196" lon="-1.5686">
        <ele>75.12</ele>
        <time>2023-08-12T09:30:48Z</time>
      </trkpt>
      <trkpt lat="43.31184" lon="-1.56875">
        <ele>75.6</ele>
        <time>2023-08-12T09:30:52Z</time>
      </trkpt>
      <trkpt lat="43.3118" lon="-1.56878">
        <ele>75.12</ele>
        <time>2023-08-12T09:30:53Z</time>
      </trkpt>
      <trkpt lat="43.3117" lon="-1.5689">
        <ele>74.64</ele>
        <time>2023-08-12T09:30:56Z</time>
      </trkpt>
      <trkpt lat="43.31144" lon="-1.56925">
        <ele>74.64</ele>
        <time>2023-08-12T09:31:08Z</time>
      </trkpt>
      <trkpt lat="43.31133" lon="-1.56941">
        <ele>74.16</ele>
        <time>2023-08-12T09:31:20Z</time>
      </trkpt>
      <trkpt lat="43.31141" lon="-1.56937">
        <ele>74.16</ele>
        <time>2023-08-12T09:31:30Z</time>
      </trkpt>
      <trkpt lat="43.3114" lon="-1.56935">
        <ele>74.16</ele>
        <time>2023-08-12T09:31:33Z</time>
      </trkpt>
      <trkpt lat="43.31132" lon="-1.56939">
        <ele>74.16</ele>
        <time>2023-08-12T09:31:38Z</time>
      </trkpt>
      <trkpt lat="43.31128" lon="-1.56948">
        <ele>73.2</ele>
        <time>2023-08-12T09:31:53Z</time>
      </trkpt>
      <trkpt lat="43.31119" lon="-1.56951">
        <ele>72.72</ele>
        <time>2023-08-12T09:32:17Z</time>
      </trkpt>
      <trkpt lat="43.31093" lon="-1.56981">
        <ele>70.79</ele>
        <time>2023-08-12T09:32:29Z</time>
      </trkpt>
      <trkpt lat="43.31073" lon="-1.56999">
        <ele>67.43</ele>
        <time>2023-08-12T09:32:38Z</time>
      </trkpt>
      <trkpt lat="43.31047" lon="-1.57015">
        <ele>64.55</ele>
        <time>2023-08-12T09:32:47Z</time>
      </trkpt>
      <trkpt lat="43.31043" lon="-1.57017">
        <ele>64.07</ele>
        <time>2023-08-12T09:32:48Z</time>
      </trkpt>
      <trkpt lat="43.31019" lon="-1.5704">
        <ele>61.18</ele>
        <time>2023-08-12T09:32:56Z</time>
      </trkpt>
      <trkpt lat="43.31016" lon="-1.57045">
        <ele>60.22</ele>
        <time>2023-08-12T09:32:57Z</time>
      </trkpt>
      <trkpt lat="43.31014" lon="-1.5705">
        <ele>60.22</ele>
        <time>2023-08-12T09:32:58Z</time>
      </trkpt>
      <trkpt lat="43.31012" lon="-1.57056">
        <ele>60.22</ele>
        <time>2023-08-12T09:32:59Z</time>
      </trkpt>
      <trkpt lat="43.31011" lon="-1.57062">
        <ele>59.26</ele>
        <time>2023-08-12T09:33:00Z</time>
      </trkpt>
      <trkpt lat="43.31009" lon="-1.57068">
        <ele>58.78</ele>
        <time>2023-08-12T09:33:01Z</time>
      </trkpt>
      <trkpt lat="43.31004" lon="-1.57091">
        <ele>57.34</ele>
        <time>2023-08-12T09:33:04Z</time>
      </trkpt>
      <trkpt lat="43.30998" lon="-1.57112">
        <ele>55.89</ele>
        <time>2023-08-12T09:33:07Z</time>
      </trkpt>
      <trkpt lat="43.30992" lon="-1.57134">
        <ele>53.97</ele>
        <time>2023-08-12T09:33:10Z</time>
      </trkpt>
      <trkpt lat="43.30983" lon="-1.5716">
        <ele>53.01</ele>
        <time>2023-08-12T09:33:13Z</time>
      </trkpt>
      <trkpt lat="43.30966" lon="-1.57224">
        <ele>52.05</ele>
        <time>2023-08-12T09:33:20Z</time>
      </trkpt>
      <trkpt lat="43.30964" lon="-1.57232">
        <ele>52.53</ele>
        <time>2023-08-12T09:33:21Z</time>
      </trkpt>
      <trkpt lat="43.30956" lon="-1.57255">
        <ele>53.49</ele>
        <time>2023-08-12T09:33:25Z</time>
      </trkpt>
      <trkpt lat="43.30951" lon="-1.5728">
        <ele>55.41</ele>
        <time>2023-08-12T09:33:36Z</time>
      </trkpt>
      <trkpt lat="43.30948" lon="-1.57286">
        <ele>55.41</ele>
        <time>2023-08-12T09:33:51Z</time>
      </trkpt>
      <trkpt lat="43.30948" lon="-1.57288">
        <ele>54.93</ele>
        <time>2023-08-12T09:34:01Z</time>
      </trkpt>
      <trkpt lat="43.30948" lon="-1.57324">
        <ele>57.34</ele>
        <time>2023-08-12T09:34:14Z</time>
      </trkpt>
      <trkpt lat="43.3095" lon="-1.57364">
        <ele>59.26</ele>
        <time>2023-08-12T09:34:28Z</time>
      </trkpt>
      <trkpt lat="43.30949" lon="-1.57373">
        <ele>59.74</ele>
        <time>2023-08-12T09:34:32Z</time>
      </trkpt>
      <trkpt lat="43.30949" lon="-1.57375">
        <ele>59.74</ele>
        <time>2023-08-12T09:34:33Z</time>
      </trkpt>
      <trkpt lat="43.30949" lon="-1.57377">
        <ele>59.74</ele>
        <time>2023-08-12T09:34:34Z</time>
      </trkpt>
      <trkpt lat="43.30948" lon="-1.57379">
        <ele>60.22</ele>
        <time>2023-08-12T09:34:35Z</time>
      </trkpt>
      <trkpt lat="43.30948" lon="-1.57381">
        <ele>60.22</ele>
        <time>2023-08-12T09:34:36Z</time>
      </trkpt>
      <trkpt lat="43.30948" lon="-1.57383">
        <ele>60.7</ele>
        <time>2023-08-12T09:34:37Z</time>
      </trkpt>
      <trkpt lat="43.30948" lon="-1.57385">
        <ele>60.22</ele>
        <time>2023-08-12T09:34:38Z</time>
      </trkpt>
      <trkpt lat="43.30949" lon="-1.57405">
        <ele>60.7</ele>
        <time>2023-08-12T09:34:45Z</time>
      </trkpt>
      <trkpt lat="43.3095" lon="-1.57407">
        <ele>61.18</ele>
        <time>2023-08-12T09:34:46Z</time>
      </trkpt>
      <trkpt lat="43.30958" lon="-1.5743">
        <ele>62.14</ele>
        <time>2023-08-12T09:34:56Z</time>
      </trkpt>
      <trkpt lat="43.3096" lon="-1.57435">
        <ele>61.66</ele>
        <time>2023-08-12T09:35:14Z</time>
      </trkpt>
      <trkpt lat="43.3096" lon="-1.5744">
        <ele>62.62</ele>
        <time>2023-08-12T09:35:18Z</time>
      </trkpt>
      <trkpt lat="43.30966" lon="-1.57451">
        <ele>62.14</ele>
        <time>2023-08-12T09:35:33Z</time>
      </trkpt>
      <trkpt lat="43.3097" lon="-1.57475">
        <ele>64.07</ele>
        <time>2023-08-12T09:35:46Z</time>
      </trkpt>
      <trkpt lat="43.30976" lon="-1.57495">
        <ele>64.07</ele>
        <time>2023-08-12T09:35:54Z</time>
      </trkpt>
      <trkpt lat="43.30977" lon="-1.575">
        <ele>64.07</ele>
        <time>2023-08-12T09:35:56Z</time>
      </trkpt>
      <trkpt lat="43.30978" lon="-1.57502">
        <ele>64.55</ele>
        <time>2023-08-12T09:35:57Z</time>
      </trkpt>
      <trkpt lat="43.30978" lon="-1.57504">
        <ele>64.55</ele>
        <time>2023-08-12T09:35:58Z</time>
      </trkpt>
      <trkpt lat="43.30979" lon="-1.57506">
        <ele>65.03</ele>
        <time>2023-08-12T09:35:59Z</time>
      </trkpt>
      <trkpt lat="43.30979" lon="-1.57508">
        <ele>64.55</ele>
        <time>2023-08-12T09:36:00Z</time>
      </trkpt>
      <trkpt lat="43.30987" lon="-1.57545">
        <ele>66.47</ele>
        <time>2023-08-12T09:36:15Z</time>
      </trkpt>
      <trkpt lat="43.30993" lon="-1.57575">
        <ele>67.43</ele>
        <time>2023-08-12T09:36:29Z</time>
      </trkpt>
      <trkpt lat="43.31" lon="-1.57606">
        <ele>69.35</ele>
        <time>2023-08-12T09:36:45Z</time>
      </trkpt>
      <trkpt lat="43.31002" lon="-1.57613">
        <ele>69.83</ele>
        <time>2023-08-12T09:36:48Z</time>
      </trkpt>
      <trkpt lat="43.31003" lon="-1.57615">
        <ele>70.31</ele>
        <time>2023-08-12T09:36:49Z</time>
      </trkpt>
      <trkpt lat="43.31011" lon="-1.57646">
        <ele>71.76</ele>
        <time>2023-08-12T09:37:05Z</time>
      </trkpt>
      <trkpt lat="43.31016" lon="-1.57665">
        <ele>72.72</ele>
        <time>2023-08-12T09:37:16Z</time>
      </trkpt>
      <trkpt lat="43.31016" lon="-1.57667">
        <ele>73.2</ele>
        <time>2023-08-12T09:37:17Z</time>
      </trkpt>
      <trkpt lat="43.3102" lon="-1.57681">
        <ele>74.16</ele>
        <time>2023-08-12T09:37:23Z</time>
      </trkpt>
      <trkpt lat="43.3102" lon="-1.57683">
        <ele>74.16</ele>
        <time>2023-08-12T09:37:24Z</time>
      </trkpt>
      <trkpt lat="43.31021" lon="-1.57686">
        <ele>74.16</ele>
        <time>2023-08-12T09:37:25Z</time>
      </trkpt>
      <trkpt lat="43.31022" lon="-1.57689">
        <ele>74.16</ele>
        <time>2023-08-12T09:37:26Z</time>
      </trkpt>
      <trkpt lat="43.31022" lon="-1.57691">
        <ele>74.64</ele>
        <time>2023-08-12T09:37:27Z</time>
      </trkpt>
      <trkpt lat="43.31023" lon="-1.57698">
        <ele>75.12</ele>
        <time>2023-08-12T09:37:30Z</time>
      </trkpt>
      <trkpt lat="43.3103" lon="-1.57719">
        <ele>77.04</ele>
        <time>2023-08-12T09:37:44Z</time>
      </trkpt>
      <trkpt lat="43.31035" lon="-1.57739">
        <ele>78.48</ele>
        <time>2023-08-12T09:37:57Z</time>
      </trkpt>
      <trkpt lat="43.31037" lon="-1.57746">
        <ele>78.97</ele>
        <time>2023-08-12T09:38:01Z</time>
      </trkpt>
      <trkpt lat="43.31038" lon="-1.57748">
        <ele>78.97</ele>
        <time>2023-08-12T09:38:02Z</time>
      </trkpt>
      <trkpt lat="43.3104" lon="-1.5776">
        <ele>79.93</ele>
        <time>2023-08-12T09:38:08Z</time>
      </trkpt>
      <trkpt lat="43.31041" lon="-1.57761">
        <ele>79.93</ele>
        <time>2023-08-12T09:38:09Z</time>
      </trkpt>
      <trkpt lat="43.31052" lon="-1.57793">
        <ele>82.33</ele>
        <time>2023-08-12T09:38:26Z</time>
      </trkpt>
      <trkpt lat="43.31065" lon="-1.57816">
        <ele>84.73</ele>
        <time>2023-08-12T09:38:40Z</time>
      </trkpt>
      <trkpt lat="43.31081" lon="-1.57834">
        <ele>86.66</ele>
        <time>2023-08-12T09:38:55Z</time>
      </trkpt>
      <trkpt lat="43.31098" lon="-1.57847">
        <ele>88.58</ele>
        <time>2023-08-12T09:39:09Z</time>
      </trkpt>
      <trkpt lat="43.31125" lon="-1.57861">
        <ele>89.06</ele>
        <time>2023-08-12T09:39:28Z</time>
      </trkpt>
      <trkpt lat="43.31149" lon="-1.57876">
        <ele>89.06</ele>
        <time>2023-08-12T09:39:42Z</time>
      </trkpt>
      <trkpt lat="43.31172" lon="-1.57887">
        <ele>88.58</ele>
        <time>2023-08-12T09:39:56Z</time>
      </trkpt>
      <trkpt lat="43.31193" lon="-1.57892">
        <ele>89.06</ele>
        <time>2023-08-12T09:40:10Z</time>
      </trkpt>
      <trkpt lat="43.31206" lon="-1.57895">
        <ele>88.58</ele>
        <time>2023-08-12T09:40:22Z</time>
      </trkpt>
      <trkpt lat="43.31222" lon="-1.57896">
        <ele>87.62</ele>
        <time>2023-08-12T09:40:32Z</time>
      </trkpt>
      <trkpt lat="43.31227" lon="-1.57897">
        <ele>86.66</ele>
        <time>2023-08-12T09:40:36Z</time>
      </trkpt>
      <trkpt lat="43.31228" lon="-1.57897">
        <ele>87.62</ele>
        <time>2023-08-12T09:40:37Z</time>
      </trkpt>
      <trkpt lat="43.31229" lon="-1.57896">
        <ele>87.14</ele>
        <time>2023-08-12T09:40:38Z</time>
      </trkpt>
      <trkpt lat="43.3123" lon="-1.57896">
        <ele>87.62</ele>
        <time>2023-08-12T09:40:39Z</time>
      </trkpt>
      <trkpt lat="43.31233" lon="-1.57897">
        <ele>87.14</ele>
        <time>2023-08-12T09:40:53Z</time>
      </trkpt>
      <trkpt lat="43.3123" lon="-1.57899">
        <ele>87.14</ele>
        <time>2023-08-12T09:41:21Z</time>
      </trkpt>
      <trkpt lat="43.3123" lon="-1.57901">
        <ele>87.14</ele>
        <time>2023-08-12T09:41:23Z</time>
      </trkpt>
      <trkpt lat="43.31232" lon="-1.57902">
        <ele>86.66</ele>
        <time>2023-08-12T09:41:26Z</time>
      </trkpt>
      <trkpt lat="43.31233" lon="-1.57903">
        <ele>87.14</ele>
        <time>2023-08-12T09:41:27Z</time>
      </trkpt>
      <trkpt lat="43.31235" lon="-1.57903">
        <ele>86.66</ele>
        <time>2023-08-12T09:41:28Z</time>
      </trkpt>
      <trkpt lat="43.31236" lon="-1.57904">
        <ele>86.66</ele>
        <time>2023-08-12T09:41:29Z</time>
      </trkpt>
      <trkpt lat="43.31238" lon="-1.57904">
        <ele>86.18</ele>
        <time>2023-08-12T09:41:30Z</time>
      </trkpt>
      <trkpt lat="43.3124" lon="-1.57905">
        <ele>86.66</ele>
        <time>2023-08-12T09:41:31Z</time>
      </trkpt>
      <trkpt lat="43.31242" lon="-1.57905">
        <ele>86.66</ele>
        <time>2023-08-12T09:41:32Z</time>
      </trkpt>
      <trkpt lat="43.31254" lon="-1.57915">
        <ele>85.21</ele>
        <time>2023-08-12T09:41:45Z</time>
      </trkpt>
      <trkpt lat="43.31253" lon="-1.57917">
        <ele>85.69</ele>
        <time>2023-08-12T09:41:55Z</time>
      </trkpt>
      <trkpt lat="43.31253" lon="-1.57918">
        <ele>85.21</ele>
        <time>2023-08-12T09:41:56Z</time>
      </trkpt>
      <trkpt lat="43.31253" lon="-1.5792">
        <ele>85.21</ele>
        <time>2023-08-12T09:41:57Z</time>
      </trkpt>
      <trkpt lat="43.31253" lon="-1.57921">
        <ele>85.21</ele>
        <time>2023-08-12T09:41:58Z</time>
      </trkpt>
      <trkpt lat="43.31253" lon="-1.57923">
        <ele>85.21</ele>
        <time>2023-08-12T09:41:59Z</time>
      </trkpt>
      <trkpt lat="43.31253" lon="-1.57924">
        <ele>85.21</ele>
        <time>2023-08-12T09:42:00Z</time>
      </trkpt>
      <trkpt lat="43.31253" lon="-1.57927">
        <ele>84.73</ele>
        <time>2023-08-12T09:42:01Z</time>
      </trkpt>
      <trkpt lat="43.31253" lon="-1.57929">
        <ele>84.73</ele>
        <time>2023-08-12T09:42:02Z</time>
      </trkpt>
      <trkpt lat="43.31257" lon="-1.57972">
        <ele>82.81</ele>
        <time>2023-08-12T09:42:18Z</time>
      </trkpt>
      <trkpt lat="43.31261" lon="-1.57978">
        <ele>82.33</ele>
        <time>2023-08-12T09:42:33Z</time>
      </trkpt>
      <trkpt lat="43.31262" lon="-1.57978">
        <ele>82.33</ele>
        <time>2023-08-12T09:42:49Z</time>
      </trkpt>
      <trkpt lat="43.31262" lon="-1.57979">
        <ele>82.33</ele>
        <time>2023-08-12T09:42:51Z</time>
      </trkpt>
      <trkpt lat="43.31262" lon="-1.57976">
        <ele>82.33</ele>
        <time>2023-08-12T12:10:21Z</time>
      </trkpt>
      <trkpt lat="43.31254" lon="-1.57952">
        <ele>84.73</ele>
        <time>2023-08-12T12:10:54Z</time>
      </trkpt>
      <trkpt lat="43.31255" lon="-1.57951">
        <ele>87.62</ele>
        <time>2023-08-12T12:10:56Z</time>
      </trkpt>
      <trkpt lat="43.31257" lon="-1.5795">
        <ele>90.98</ele>
        <time>2023-08-12T12:10:59Z</time>
      </trkpt>
      <trkpt lat="43.31259" lon="-1.57952">
        <ele>92.42</ele>
        <time>2023-08-12T12:11:01Z</time>
      </trkpt>
      <trkpt lat="43.31261" lon="-1.57955">
        <ele>94.83</ele>
        <time>2023-08-12T12:11:03Z</time>
      </trkpt>
      <trkpt lat="43.31263" lon="-1.57964">
        <ele>96.75</ele>
        <time>2023-08-12T12:11:06Z</time>
      </trkpt>
      <trkpt lat="43.31261" lon="-1.57976">
        <ele>96.75</ele>
        <time>2023-08-12T12:11:40Z</time>
      </trkpt>
      <trkpt lat="43.31257" lon="-1.57977">
        <ele>96.27</ele>
        <time>2023-08-12T12:12:08Z</time>
      </trkpt>
      <trkpt lat="43.31265" lon="-1.57966">
        <ele>95.79</ele>
        <time>2023-08-12T12:12:38Z</time>
      </trkpt>
      <trkpt lat="43.31267" lon="-1.57969">
        <ele>95.79</ele>
        <time>2023-08-12T12:13:07Z</time>
      </trkpt>
      <trkpt lat="43.31266" lon="-1.5797">
        <ele>95.31</ele>
        <time>2023-08-12T12:13:33Z</time>
      </trkpt>
      <trkpt lat="43.31263" lon="-1.57975">
        <ele>95.31</ele>
        <time>2023-08-12T12:13:45Z</time>
      </trkpt>
      <trkpt lat="43.31261" lon="-1.57977">
        <ele>95.79</ele>
        <time>2023-08-12T12:13:50Z</time>
      </trkpt>
      <trkpt lat="43.3126" lon="-1.57984">
        <ele>94.83</ele>
        <time>2023-08-12T12:13:53Z</time>
      </trkpt>
      <trkpt lat="43.3126" lon="-1.57987">
        <ele>94.83</ele>
        <time>2023-08-12T12:13:54Z</time>
      </trkpt>
      <trkpt lat="43.3126" lon="-1.5799">
        <ele>95.31</ele>
        <time>2023-08-12T12:13:55Z</time>
      </trkpt>
      <trkpt lat="43.31261" lon="-1.57994">
        <ele>94.35</ele>
        <time>2023-08-12T12:13:56Z</time>
      </trkpt>
      <trkpt lat="43.31261" lon="-1.57998">
        <ele>94.35</ele>
        <time>2023-08-12T12:13:57Z</time>
      </trkpt>
      <trkpt lat="43.31262" lon="-1.58002">
        <ele>94.35</ele>
        <time>2023-08-12T12:13:58Z</time>
      </trkpt>
      <trkpt lat="43.31262" lon="-1.58005">
        <ele>93.87</ele>
        <time>2023-08-12T12:13:59Z</time>
      </trkpt>
      <trkpt lat="43.31264" lon="-1.58007">
        <ele>93.87</ele>
        <time>2023-08-12T12:14:00Z</time>
      </trkpt>
      <trkpt lat="43.31265" lon="-1.58009">
        <ele>93.87</ele>
        <time>2023-08-12T12:14:01Z</time>
      </trkpt>
      <trkpt lat="43.31268" lon="-1.58009">
        <ele>93.39</ele>
        <time>2023-08-12T12:14:02Z</time>
      </trkpt>
      <trkpt lat="43.3127" lon="-1.58009">
        <ele>93.39</ele>
        <time>2023-08-12T12:14:03Z</time>
      </trkpt>
      <trkpt lat="43.31273" lon="-1.58009">
        <ele>93.39</ele>
        <time>2023-08-12T12:14:04Z</time>
      </trkpt>
      <trkpt lat="43.31275" lon="-1.58009">
        <ele>93.39</ele>
        <time>2023-08-12T12:14:05Z</time>
      </trkpt>
      <trkpt lat="43.31278" lon="-1.58011">
        <ele>92.9</ele>
        <time>2023-08-12T12:14:08Z</time>
      </trkpt>
      <trkpt lat="43.31279" lon="-1.58011">
        <ele>92.9</ele>
        <time>2023-08-12T12:14:09Z</time>
      </trkpt>
      <trkpt lat="43.31301" lon="-1.57997">
        <ele>91.94</ele>
        <time>2023-08-12T12:14:20Z</time>
      </trkpt>
      <trkpt lat="43.31304" lon="-1.57992">
        <ele>91.46</ele>
        <time>2023-08-12T12:14:21Z</time>
      </trkpt>
      <trkpt lat="43.31307" lon="-1.57988">
        <ele>90.98</ele>
        <time>2023-08-12T12:14:22Z</time>
      </trkpt>
      <trkpt lat="43.31311" lon="-1.57982">
        <ele>90.98</ele>
        <time>2023-08-12T12:14:23Z</time>
      </trkpt>
      <trkpt lat="43.3135" lon="-1.57928">
        <ele>88.58</ele>
        <time>2023-08-12T12:14:35Z</time>
      </trkpt>
      <trkpt lat="43.31353" lon="-1.57929">
        <ele>88.1</ele>
        <time>2023-08-12T12:14:36Z</time>
      </trkpt>
      <trkpt lat="43.31355" lon="-1.57931">
        <ele>87.62</ele>
        <time>2023-08-12T12:14:37Z</time>
      </trkpt>
      <trkpt lat="43.31375" lon="-1.57942">
        <ele>84.73</ele>
        <time>2023-08-12T12:14:42Z</time>
      </trkpt>
      <trkpt lat="43.3138" lon="-1.57944">
        <ele>84.25</ele>
        <time>2023-08-12T12:14:43Z</time>
      </trkpt>
      <trkpt lat="43.31404" lon="-1.57954">
        <ele>81.37</ele>
        <time>2023-08-12T12:14:49Z</time>
      </trkpt>
      <trkpt lat="43.31425" lon="-1.57955">
        <ele>78.97</ele>
        <time>2023-08-12T12:14:56Z</time>
      </trkpt>
      <trkpt lat="43.31429" lon="-1.57951">
        <ele>78.48</ele>
        <time>2023-08-12T12:14:57Z</time>
      </trkpt>
      <trkpt lat="43.31431" lon="-1.57946">
        <ele>78</ele>
        <time>2023-08-12T12:14:58Z</time>
      </trkpt>
      <trkpt lat="43.31434" lon="-1.5794">
        <ele>77.04</ele>
        <time>2023-08-12T12:14:59Z</time>
      </trkpt>
      <trkpt lat="43.31435" lon="-1.57933">
        <ele>76.56</ele>
        <time>2023-08-12T12:15:00Z</time>
      </trkpt>
      <trkpt lat="43.31437" lon="-1.57926">
        <ele>75.6</ele>
        <time>2023-08-12T12:15:01Z</time>
      </trkpt>
      <trkpt lat="43.31437" lon="-1.57917">
        <ele>75.12</ele>
        <time>2023-08-12T12:15:02Z</time>
      </trkpt>
      <trkpt lat="43.31437" lon="-1.57908">
        <ele>74.64</ele>
        <time>2023-08-12T12:15:03Z</time>
      </trkpt>
      <trkpt lat="43.31434" lon="-1.57869">
        <ele>72.24</ele>
        <time>2023-08-12T12:15:07Z</time>
      </trkpt>
      <trkpt lat="43.3143" lon="-1.57844">
        <ele>70.79</ele>
        <time>2023-08-12T12:15:10Z</time>
      </trkpt>
      <trkpt lat="43.3143" lon="-1.57837">
        <ele>71.27</ele>
        <time>2023-08-12T12:15:11Z</time>
      </trkpt>
      <trkpt lat="43.3143" lon="-1.57831">
        <ele>70.79</ele>
        <time>2023-08-12T12:15:12Z</time>
      </trkpt>
      <trkpt lat="43.31432" lon="-1.57827">
        <ele>70.79</ele>
        <time>2023-08-12T12:15:13Z</time>
      </trkpt>
      <trkpt lat="43.31435" lon="-1.57824">
        <ele>70.79</ele>
        <time>2023-08-12T12:15:14Z</time>
      </trkpt>
      <trkpt lat="43.31439" lon="-1.57823">
        <ele>71.27</ele>
        <time>2023-08-12T12:15:15Z</time>
      </trkpt>
      <trkpt lat="43.31443" lon="-1.5782">
        <ele>71.27</ele>
        <time>2023-08-12T12:15:16Z</time>
      </trkpt>
      <trkpt lat="43.31447" lon="-1.57818">
        <ele>70.79</ele>
        <time>2023-08-12T12:15:17Z</time>
      </trkpt>
      <trkpt lat="43.3145" lon="-1.57818">
        <ele>71.27</ele>
        <time>2023-08-12T12:15:18Z</time>
      </trkpt>
      <trkpt lat="43.31452" lon="-1.57819">
        <ele>70.79</ele>
        <time>2023-08-12T12:15:19Z</time>
      </trkpt>
      <trkpt lat="43.31455" lon="-1.5782">
        <ele>70.79</ele>
        <time>2023-08-12T12:15:20Z</time>
      </trkpt>
      <trkpt lat="43.31458" lon="-1.57821">
        <ele>70.79</ele>
        <time>2023-08-12T12:15:21Z</time>
      </trkpt>
      <trkpt lat="43.31461" lon="-1.57822">
        <ele>70.79</ele>
        <time>2023-08-12T12:15:22Z</time>
      </trkpt>
      <trkpt lat="43.31488" lon="-1.57828">
        <ele>72.72</ele>
        <time>2023-08-12T12:15:36Z</time>
      </trkpt>
      <trkpt lat="43.31515" lon="-1.57831">
        <ele>74.64</ele>
        <time>2023-08-12T12:15:50Z</time>
      </trkpt>
      <trkpt lat="43.31548" lon="-1.57824">
        <ele>74.64</ele>
        <time>2023-08-12T12:16:05Z</time>
      </trkpt>
      <trkpt lat="43.31596" lon="-1.578">
        <ele>75.6</ele>
        <time>2023-08-12T12:16:21Z</time>
      </trkpt>
      <trkpt lat="43.31637" lon="-1.57777">
        <ele>76.56</ele>
        <time>2023-08-12T12:16:38Z</time>
      </trkpt>
      <trkpt lat="43.31673" lon="-1.5778">
        <ele>76.56</ele>
        <time>2023-08-12T12:16:52Z</time>
      </trkpt>
      <trkpt lat="43.31696" lon="-1.57836">
        <ele>76.08</ele>
        <time>2023-08-12T12:17:09Z</time>
      </trkpt>
      <trkpt lat="43.31727" lon="-1.57861">
        <ele>75.6</ele>
        <time>2023-08-12T12:17:25Z</time>
      </trkpt>
      <trkpt lat="43.3178" lon="-1.57876">
        <ele>75.6</ele>
        <time>2023-08-12T12:17:44Z</time>
      </trkpt>
      <trkpt lat="43.31815" lon="-1.57913">
        <ele>76.56</ele>
        <time>2023-08-12T12:18:01Z</time>
      </trkpt>
      <trkpt lat="43.31819" lon="-1.57959">
        <ele>78.48</ele>
        <time>2023-08-12T12:18:17Z</time>
      </trkpt>
      <trkpt lat="43.31825" lon="-1.57981">
        <ele>79.93</ele>
        <time>2023-08-12T12:18:28Z</time>
      </trkpt>
      <trkpt lat="43.31827" lon="-1.57982">
        <ele>79.93</ele>
        <time>2023-08-12T12:18:29Z</time>
      </trkpt>
      <trkpt lat="43.31828" lon="-1.57982">
        <ele>79.93</ele>
        <time>2023-08-12T12:18:30Z</time>
      </trkpt>
      <trkpt lat="43.3183" lon="-1.57982">
        <ele>79.93</ele>
        <time>2023-08-12T12:18:31Z</time>
      </trkpt>
      <trkpt lat="43.31832" lon="-1.57981">
        <ele>79.45</ele>
        <time>2023-08-12T12:18:32Z</time>
      </trkpt>
      <trkpt lat="43.31874" lon="-1.57968">
        <ele>78.48</ele>
        <time>2023-08-12T12:18:47Z</time>
      </trkpt>
      <trkpt lat="43.31915" lon="-1.57934">
        <ele>78.97</ele>
        <time>2023-08-12T12:19:02Z</time>
      </trkpt>
      <trkpt lat="43.31953" lon="-1.57875">
        <ele>78.97</ele>
        <time>2023-08-12T12:19:20Z</time>
      </trkpt>
      <trkpt lat="43.31978" lon="-1.57821">
        <ele>79.93</ele>
        <time>2023-08-12T12:19:35Z</time>
      </trkpt>
      <trkpt lat="43.32014" lon="-1.57789">
        <ele>78.48</ele>
        <time>2023-08-12T12:19:48Z</time>
      </trkpt>
      <trkpt lat="43.32065" lon="-1.57778">
        <ele>77.52</ele>
        <time>2023-08-12T12:19:59Z</time>
      </trkpt>
      <trkpt lat="43.3207" lon="-1.57779">
        <ele>77.04</ele>
        <time>2023-08-12T12:20:00Z</time>
      </trkpt>
      <trkpt lat="43.32074" lon="-1.5778">
        <ele>77.52</ele>
        <time>2023-08-12T12:20:01Z</time>
      </trkpt>
      <trkpt lat="43.32079" lon="-1.57783">
        <ele>77.52</ele>
        <time>2023-08-12T12:20:02Z</time>
      </trkpt>
      <trkpt lat="43.32083" lon="-1.57785">
        <ele>77.52</ele>
        <time>2023-08-12T12:20:03Z</time>
      </trkpt>
      <trkpt lat="43.32087" lon="-1.57788">
        <ele>77.04</ele>
        <time>2023-08-12T12:20:04Z</time>
      </trkpt>
      <trkpt lat="43.32091" lon="-1.57791">
        <ele>77.52</ele>
        <time>2023-08-12T12:20:05Z</time>
      </trkpt>
      <trkpt lat="43.32141" lon="-1.57851">
        <ele>77.52</ele>
        <time>2023-08-12T12:20:21Z</time>
      </trkpt>
      <trkpt lat="43.32168" lon="-1.57898">
        <ele>78.48</ele>
        <time>2023-08-12T12:20:34Z</time>
      </trkpt>
      <trkpt lat="43.32202" lon="-1.57918">
        <ele>79.45</ele>
        <time>2023-08-12T12:20:47Z</time>
      </trkpt>
      <trkpt lat="43.32249" lon="-1.57916">
        <ele>79.93</ele>
        <time>2023-08-12T12:21:02Z</time>
      </trkpt>
      <trkpt lat="43.32276" lon="-1.57923">
        <ele>81.37</ele>
        <time>2023-08-12T12:21:16Z</time>
      </trkpt>
      <trkpt lat="43.32283" lon="-1.57958">
        <ele>83.29</ele>
        <time>2023-08-12T12:21:33Z</time>
      </trkpt>
      <trkpt lat="43.32293" lon="-1.57993">
        <ele>84.73</ele>
        <time>2023-08-12T12:21:49Z</time>
      </trkpt>
      <trkpt lat="43.32305" lon="-1.58037">
        <ele>86.66</ele>
        <time>2023-08-12T12:22:09Z</time>
      </trkpt>
      <trkpt lat="43.32306" lon="-1.58083">
        <ele>88.58</ele>
        <time>2023-08-12T12:22:28Z</time>
      </trkpt>
      <trkpt lat="43.32302" lon="-1.58134">
        <ele>90.02</ele>
        <time>2023-08-12T12:22:47Z</time>
      </trkpt>
      <trkpt lat="43.32299" lon="-1.58182">
        <ele>92.9</ele>
        <time>2023-08-12T12:23:05Z</time>
      </trkpt>
      <trkpt lat="43.32304" lon="-1.58231">
        <ele>94.35</ele>
        <time>2023-08-12T12:23:23Z</time>
      </trkpt>
      <trkpt lat="43.32313" lon="-1.58282">
        <ele>95.79</ele>
        <time>2023-08-12T12:23:41Z</time>
      </trkpt>
      <trkpt lat="43.32314" lon="-1.58294">
        <ele>96.75</ele>
        <time>2023-08-12T12:23:53Z</time>
      </trkpt>
      <trkpt lat="43.32314" lon="-1.58296">
        <ele>97.23</ele>
        <time>2023-08-12T12:24:24Z</time>
      </trkpt>
      <trkpt lat="43.32314" lon="-1.58298">
        <ele>97.23</ele>
        <time>2023-08-12T12:24:25Z</time>
      </trkpt>
      <trkpt lat="43.32322" lon="-1.58346">
        <ele>98.67</ele>
        <time>2023-08-12T12:24:41Z</time>
      </trkpt>
      <trkpt lat="43.32336" lon="-1.58396">
        <ele>100.6</ele>
        <time>2023-08-12T12:25:00Z</time>
      </trkpt>
      <trkpt lat="43.32362" lon="-1.58427">
        <ele>102.52</ele>
        <time>2023-08-12T12:25:18Z</time>
      </trkpt>
      <trkpt lat="43.32395" lon="-1.58446">
        <ele>104.92</ele>
        <time>2023-08-12T12:25:36Z</time>
      </trkpt>
      <trkpt lat="43.32433" lon="-1.58466">
        <ele>106.36</ele>
        <time>2023-08-12T12:25:58Z</time>
      </trkpt>
      <trkpt lat="43.32446" lon="-1.58477">
        <ele>108.29</ele>
        <time>2023-08-12T12:26:07Z</time>
      </trkpt>
      <trkpt lat="43.32466" lon="-1.58503">
        <ele>110.69</ele>
        <time>2023-08-12T12:26:23Z</time>
      </trkpt>
      <trkpt lat="43.32467" lon="-1.58504">
        <ele>110.69</ele>
        <time>2023-08-12T12:26:24Z</time>
      </trkpt>
      <trkpt lat="43.32468" lon="-1.58506">
        <ele>110.69</ele>
        <time>2023-08-12T12:26:25Z</time>
      </trkpt>
      <trkpt lat="43.32477" lon="-1.58539">
        <ele>111.65</ele>
        <time>2023-08-12T12:26:40Z</time>
      </trkpt>
      <trkpt lat="43.3248" lon="-1.58586">
        <ele>114.05</ele>
        <time>2023-08-12T12:26:58Z</time>
      </trkpt>
      <trkpt lat="43.32471" lon="-1.58633">
        <ele>115.5</ele>
        <time>2023-08-12T12:27:15Z</time>
      </trkpt>
      <trkpt lat="43.32456" lon="-1.5866">
        <ele>115.98</ele>
        <time>2023-08-12T12:27:27Z</time>
      </trkpt>
      <trkpt lat="43.32437" lon="-1.58697">
        <ele>118.38</ele>
        <time>2023-08-12T12:27:44Z</time>
      </trkpt>
      <trkpt lat="43.32421" lon="-1.58739">
        <ele>120.78</ele>
        <time>2023-08-12T12:28:02Z</time>
      </trkpt>
      <trkpt lat="43.32408" lon="-1.58786">
        <ele>122.22</ele>
        <time>2023-08-12T12:28:19Z</time>
      </trkpt>
      <trkpt lat="43.32397" lon="-1.58827">
        <ele>124.15</ele>
        <time>2023-08-12T12:28:35Z</time>
      </trkpt>
      <trkpt lat="43.3238" lon="-1.58858">
        <ele>124.63</ele>
        <time>2023-08-12T12:28:49Z</time>
      </trkpt>
      <trkpt lat="43.32368" lon="-1.58886">
        <ele>126.55</ele>
        <time>2023-08-12T12:29:04Z</time>
      </trkpt>
      <trkpt lat="43.32353" lon="-1.58917">
        <ele>128.47</ele>
        <time>2023-08-12T12:29:19Z</time>
      </trkpt>
      <trkpt lat="43.3235" lon="-1.58925">
        <ele>129.43</ele>
        <time>2023-08-12T12:29:23Z</time>
      </trkpt>
      <trkpt lat="43.32331" lon="-1.58972">
        <ele>130.4</ele>
        <time>2023-08-12T12:29:39Z</time>
      </trkpt>
      <trkpt lat="43.3232" lon="-1.59002">
        <ele>131.84</ele>
        <time>2023-08-12T12:29:52Z</time>
      </trkpt>
      <trkpt lat="43.32309" lon="-1.59052">
        <ele>133.76</ele>
        <time>2023-08-12T12:30:10Z</time>
      </trkpt>
      <trkpt lat="43.32322" lon="-1.59094">
        <ele>136.64</ele>
        <time>2023-08-12T12:30:26Z</time>
      </trkpt>
      <trkpt lat="43.32347" lon="-1.59131">
        <ele>138.09</ele>
        <time>2023-08-12T12:30:43Z</time>
      </trkpt>
      <trkpt lat="43.32352" lon="-1.5917">
        <ele>140.01</ele>
        <time>2023-08-12T12:30:59Z</time>
      </trkpt>
      <trkpt lat="43.32338" lon="-1.59204">
        <ele>140.97</ele>
        <time>2023-08-12T12:31:14Z</time>
      </trkpt>
      <trkpt lat="43.3232" lon="-1.59233">
        <ele>143.37</ele>
        <time>2023-08-12T12:31:29Z</time>
      </trkpt>
      <trkpt lat="43.32305" lon="-1.5927">
        <ele>144.34</ele>
        <time>2023-08-12T12:31:43Z</time>
      </trkpt>
      <trkpt lat="43.32288" lon="-1.59316">
        <ele>146.26</ele>
        <time>2023-08-12T12:31:58Z</time>
      </trkpt>
      <trkpt lat="43.32272" lon="-1.59374">
        <ele>148.66</ele>
        <time>2023-08-12T12:32:15Z</time>
      </trkpt>
      <trkpt lat="43.32263" lon="-1.59423">
        <ele>150.1</ele>
        <time>2023-08-12T12:32:30Z</time>
      </trkpt>
      <trkpt lat="43.32257" lon="-1.59461">
        <ele>151.54</ele>
        <time>2023-08-12T12:32:42Z</time>
      </trkpt>
      <trkpt lat="43.32257" lon="-1.59464">
        <ele>152.03</ele>
        <time>2023-08-12T12:32:43Z</time>
      </trkpt>
      <trkpt lat="43.32256" lon="-1.59467">
        <ele>152.03</ele>
        <time>2023-08-12T12:32:44Z</time>
      </trkpt>
      <trkpt lat="43.32256" lon="-1.5947">
        <ele>152.03</ele>
        <time>2023-08-12T12:32:45Z</time>
      </trkpt>
      <trkpt lat="43.32256" lon="-1.59472">
        <ele>152.51</ele>
        <time>2023-08-12T12:32:46Z</time>
      </trkpt>
      <trkpt lat="43.32256" lon="-1.59475">
        <ele>152.51</ele>
        <time>2023-08-12T12:32:47Z</time>
      </trkpt>
      <trkpt lat="43.32256" lon="-1.59478">
        <ele>152.51</ele>
        <time>2023-08-12T12:32:48Z</time>
      </trkpt>
      <trkpt lat="43.32256" lon="-1.59504">
        <ele>153.95</ele>
        <time>2023-08-12T12:32:57Z</time>
      </trkpt>
      <trkpt lat="43.32256" lon="-1.59507">
        <ele>153.95</ele>
        <time>2023-08-12T12:32:58Z</time>
      </trkpt>
      <trkpt lat="43.32256" lon="-1.59512">
        <ele>153.95</ele>
        <time>2023-08-12T12:33:00Z</time>
      </trkpt>
      <trkpt lat="43.32256" lon="-1.59514">
        <ele>153.95</ele>
        <time>2023-08-12T12:33:01Z</time>
      </trkpt>
      <trkpt lat="43.32256" lon="-1.59517">
        <ele>153.95</ele>
        <time>2023-08-12T12:33:02Z</time>
      </trkpt>
      <trkpt lat="43.32256" lon="-1.59521">
        <ele>153.95</ele>
        <time>2023-08-12T12:33:03Z</time>
      </trkpt>
      <trkpt lat="43.32257" lon="-1.59524">
        <ele>154.43</ele>
        <time>2023-08-12T12:33:04Z</time>
      </trkpt>
      <trkpt lat="43.32263" lon="-1.59575">
        <ele>156.35</ele>
        <time>2023-08-12T12:33:22Z</time>
      </trkpt>
      <trkpt lat="43.32272" lon="-1.59616">
        <ele>158.27</ele>
        <time>2023-08-12T12:33:38Z</time>
      </trkpt>
      <trkpt lat="43.32292" lon="-1.59653">
        <ele>159.72</ele>
        <time>2023-08-12T12:33:53Z</time>
      </trkpt>
      <trkpt lat="43.3232" lon="-1.59693">
        <ele>162.6</ele>
        <time>2023-08-12T12:34:13Z</time>
      </trkpt>
      <trkpt lat="43.32335" lon="-1.59729">
        <ele>164.52</ele>
        <time>2023-08-12T12:34:28Z</time>
      </trkpt>
      <trkpt lat="43.32349" lon="-1.59764">
        <ele>166.45</ele>
        <time>2023-08-12T12:34:44Z</time>
      </trkpt>
      <trkpt lat="43.32367" lon="-1.59808">
        <ele>167.89</ele>
        <time>2023-08-12T12:35:02Z</time>
      </trkpt>
      <trkpt lat="43.32372" lon="-1.59824">
        <ele>168.37</ele>
        <time>2023-08-12T12:35:09Z</time>
      </trkpt>
      <trkpt lat="43.32373" lon="-1.59827">
        <ele>168.37</ele>
        <time>2023-08-12T12:35:10Z</time>
      </trkpt>
      <trkpt lat="43.32373" lon="-1.59829">
        <ele>168.85</ele>
        <time>2023-08-12T12:35:11Z</time>
      </trkpt>
      <trkpt lat="43.32383" lon="-1.59871">
        <ele>170.77</ele>
        <time>2023-08-12T12:35:28Z</time>
      </trkpt>
      <trkpt lat="43.32398" lon="-1.59904">
        <ele>171.73</ele>
        <time>2023-08-12T12:35:42Z</time>
      </trkpt>
      <trkpt lat="43.32413" lon="-1.59941">
        <ele>173.17</ele>
        <time>2023-08-12T12:35:56Z</time>
      </trkpt>
      <trkpt lat="43.32425" lon="-1.59978">
        <ele>175.58</ele>
        <time>2023-08-12T12:36:12Z</time>
      </trkpt>
      <trkpt lat="43.32437" lon="-1.60009">
        <ele>177.5</ele>
        <time>2023-08-12T12:36:27Z</time>
      </trkpt>
      <trkpt lat="43.32462" lon="-1.60026">
        <ele>179.42</ele>
        <time>2023-08-12T12:36:41Z</time>
      </trkpt>
      <trkpt lat="43.32493" lon="-1.60049">
        <ele>179.42</ele>
        <time>2023-08-12T12:36:57Z</time>
      </trkpt>
      <trkpt lat="43.32525" lon="-1.60054">
        <ele>178.94</ele>
        <time>2023-08-12T12:37:11Z</time>
      </trkpt>
      <trkpt lat="43.32538" lon="-1.60064">
        <ele>178.46</ele>
        <time>2023-08-12T12:37:22Z</time>
      </trkpt>
      <trkpt lat="43.32532" lon="-1.60075">
        <ele>177.98</ele>
        <time>2023-08-12T12:37:46Z</time>
      </trkpt>
      <trkpt lat="43.32533" lon="-1.60082">
        <ele>177.98</ele>
        <time>2023-08-12T12:38:12Z</time>
      </trkpt>
      <trkpt lat="43.32534" lon="-1.60083">
        <ele>177.98</ele>
        <time>2023-08-12T12:38:13Z</time>
      </trkpt>
      <trkpt lat="43.32536" lon="-1.60084">
        <ele>177.98</ele>
        <time>2023-08-12T12:38:14Z</time>
      </trkpt>
      <trkpt lat="43.32568" lon="-1.60096">
        <ele>174.62</ele>
        <time>2023-08-12T12:38:22Z</time>
      </trkpt>
      <trkpt lat="43.32574" lon="-1.60099">
        <ele>175.1</ele>
        <time>2023-08-12T12:38:23Z</time>
      </trkpt>
      <trkpt lat="43.32646" lon="-1.60121">
        <ele>171.73</ele>
        <time>2023-08-12T12:38:35Z</time>
      </trkpt>
      <trkpt lat="43.32687" lon="-1.60134">
        <ele>173.17</ele>
        <time>2023-08-12T12:38:43Z</time>
      </trkpt>
      <trkpt lat="43.32692" lon="-1.60137">
        <ele>173.66</ele>
        <time>2023-08-12T12:38:44Z</time>
      </trkpt>
      <trkpt lat="43.32743" lon="-1.60174">
        <ele>174.62</ele>
        <time>2023-08-12T12:38:57Z</time>
      </trkpt>
      <trkpt lat="43.3276" lon="-1.60184">
        <ele>174.14</ele>
        <time>2023-08-12T12:39:01Z</time>
      </trkpt>
      <trkpt lat="43.32765" lon="-1.60186">
        <ele>173.66</ele>
        <time>2023-08-12T12:39:02Z</time>
      </trkpt>
      <trkpt lat="43.32843" lon="-1.60196">
        <ele>171.25</ele>
        <time>2023-08-12T12:39:16Z</time>
      </trkpt>
      <trkpt lat="43.32931" lon="-1.60207">
        <ele>169.33</ele>
        <time>2023-08-12T12:39:31Z</time>
      </trkpt>
      <trkpt lat="43.33023" lon="-1.60228">
        <ele>168.37</ele>
        <time>2023-08-12T12:39:46Z</time>
      </trkpt>
      <trkpt lat="43.33103" lon="-1.60266">
        <ele>165.48</ele>
        <time>2023-08-12T12:40:00Z</time>
      </trkpt>
      <trkpt lat="43.33137" lon="-1.60301">
        <ele>163.08</ele>
        <time>2023-08-12T12:40:06Z</time>
      </trkpt>
      <trkpt lat="43.33142" lon="-1.6031">
        <ele>162.6</ele>
        <time>2023-08-12T12:40:07Z</time>
      </trkpt>
      <trkpt lat="43.3315" lon="-1.60329">
        <ele>161.16</ele>
        <time>2023-08-12T12:40:09Z</time>
      </trkpt>
      <trkpt lat="43.33163" lon="-1.60371">
        <ele>159.24</ele>
        <time>2023-08-12T12:40:13Z</time>
      </trkpt>
      <trkpt lat="43.33178" lon="-1.60415">
        <ele>156.83</ele>
        <time>2023-08-12T12:40:17Z</time>
      </trkpt>
      <trkpt lat="43.33179" lon="-1.60428">
        <ele>156.35</ele>
        <time>2023-08-12T12:40:18Z</time>
      </trkpt>
      <trkpt lat="43.33181" lon="-1.60441">
        <ele>155.39</ele>
        <time>2023-08-12T12:40:19Z</time>
      </trkpt>
      <trkpt lat="43.33184" lon="-1.60454">
        <ele>155.39</ele>
        <time>2023-08-12T12:40:20Z</time>
      </trkpt>
      <trkpt lat="43.33188" lon="-1.60466">
        <ele>153.95</ele>
        <time>2023-08-12T12:40:21Z</time>
      </trkpt>
      <trkpt lat="43.33194" lon="-1.60476">
        <ele>153.47</ele>
        <time>2023-08-12T12:40:22Z</time>
      </trkpt>
      <trkpt lat="43.33202" lon="-1.60485">
        <ele>153.47</ele>
        <time>2023-08-12T12:40:23Z</time>
      </trkpt>
      <trkpt lat="43.3321" lon="-1.60493">
        <ele>152.51</ele>
        <time>2023-08-12T12:40:24Z</time>
      </trkpt>
      <trkpt lat="43.33219" lon="-1.60498">
        <ele>152.03</ele>
        <time>2023-08-12T12:40:25Z</time>
      </trkpt>
      <trkpt lat="43.33228" lon="-1.60503">
        <ele>151.06</ele>
        <time>2023-08-12T12:40:26Z</time>
      </trkpt>
      <trkpt lat="43.33253" lon="-1.60517">
        <ele>149.62</ele>
        <time>2023-08-12T12:40:29Z</time>
      </trkpt>
      <trkpt lat="43.33257" lon="-1.60525">
        <ele>149.14</ele>
        <time>2023-08-12T12:40:30Z</time>
      </trkpt>
      <trkpt lat="43.33258" lon="-1.60535">
        <ele>148.18</ele>
        <time>2023-08-12T12:40:31Z</time>
      </trkpt>
      <trkpt lat="43.33257" lon="-1.60558">
        <ele>147.22</ele>
        <time>2023-08-12T12:40:33Z</time>
      </trkpt>
      <trkpt lat="43.33258" lon="-1.6057">
        <ele>146.74</ele>
        <time>2023-08-12T12:40:34Z</time>
      </trkpt>
      <trkpt lat="43.3326" lon="-1.60595">
        <ele>145.78</ele>
        <time>2023-08-12T12:40:36Z</time>
      </trkpt>
      <trkpt lat="43.33263" lon="-1.60608">
        <ele>144.82</ele>
        <time>2023-08-12T12:40:37Z</time>
      </trkpt>
      <trkpt lat="43.33266" lon="-1.6062">
        <ele>144.34</ele>
        <time>2023-08-12T12:40:38Z</time>
      </trkpt>
      <trkpt lat="43.3327" lon="-1.60631">
        <ele>143.85</ele>
        <time>2023-08-12T12:40:39Z</time>
      </trkpt>
      <trkpt lat="43.33298" lon="-1.60685">
        <ele>140.97</ele>
        <time>2023-08-12T12:40:44Z</time>
      </trkpt>
      <trkpt lat="43.3331" lon="-1.60706">
        <ele>139.53</ele>
        <time>2023-08-12T12:40:46Z</time>
      </trkpt>
      <trkpt lat="43.33317" lon="-1.60716">
        <ele>139.05</ele>
        <time>2023-08-12T12:40:47Z</time>
      </trkpt>
      <trkpt lat="43.33325" lon="-1.60724">
        <ele>138.09</ele>
        <time>2023-08-12T12:40:48Z</time>
      </trkpt>
      <trkpt lat="43.33333" lon="-1.60731">
        <ele>137.61</ele>
        <time>2023-08-12T12:40:49Z</time>
      </trkpt>
      <trkpt lat="43.3335" lon="-1.60745">
        <ele>136.64</ele>
        <time>2023-08-12T12:40:51Z</time>
      </trkpt>
      <trkpt lat="43.33358" lon="-1.60754">
        <ele>136.16</ele>
        <time>2023-08-12T12:40:52Z</time>
      </trkpt>
      <trkpt lat="43.33371" lon="-1.60773">
        <ele>135.68</ele>
        <time>2023-08-12T12:40:54Z</time>
      </trkpt>
      <trkpt lat="43.33374" lon="-1.60785">
        <ele>134.24</ele>
        <time>2023-08-12T12:40:55Z</time>
      </trkpt>
      <trkpt lat="43.33395" lon="-1.60843">
        <ele>130.88</ele>
        <time>2023-08-12T12:41:00Z</time>
      </trkpt>
      <trkpt lat="43.33401" lon="-1.60849">
        <ele>130.4</ele>
        <time>2023-08-12T12:41:01Z</time>
      </trkpt>
      <trkpt lat="43.33409" lon="-1.60851">
        <ele>129.43</ele>
        <time>2023-08-12T12:41:02Z</time>
      </trkpt>
      <trkpt lat="43.33417" lon="-1.60851">
        <ele>129.43</ele>
        <time>2023-08-12T12:41:03Z</time>
      </trkpt>
      <trkpt lat="43.33425" lon="-1.60849">
        <ele>128.95</ele>
        <time>2023-08-12T12:41:04Z</time>
      </trkpt>
      <trkpt lat="43.33433" lon="-1.6085">
        <ele>127.99</ele>
        <time>2023-08-12T12:41:05Z</time>
      </trkpt>
      <trkpt lat="43.33441" lon="-1.60853">
        <ele>127.51</ele>
        <time>2023-08-12T12:41:06Z</time>
      </trkpt>
      <trkpt lat="43.33447" lon="-1.60859">
        <ele>126.55</ele>
        <time>2023-08-12T12:41:07Z</time>
      </trkpt>
      <trkpt lat="43.33451" lon="-1.60867">
        <ele>126.07</ele>
        <time>2023-08-12T12:41:08Z</time>
      </trkpt>
      <trkpt lat="43.33452" lon="-1.60875">
        <ele>125.59</ele>
        <time>2023-08-12T12:41:09Z</time>
      </trkpt>
      <trkpt lat="43.33452" lon="-1.60885">
        <ele>125.59</ele>
        <time>2023-08-12T12:41:10Z</time>
      </trkpt>
      <trkpt lat="43.3345" lon="-1.60894">
        <ele>125.59</ele>
        <time>2023-08-12T12:41:11Z</time>
      </trkpt>
      <trkpt lat="43.33446" lon="-1.60928">
        <ele>123.67</ele>
        <time>2023-08-12T12:41:14Z</time>
      </trkpt>
      <trkpt lat="43.33447" lon="-1.6094">
        <ele>123.19</ele>
        <time>2023-08-12T12:41:15Z</time>
      </trkpt>
      <trkpt lat="43.3345" lon="-1.60952">
        <ele>122.71</ele>
        <time>2023-08-12T12:41:16Z</time>
      </trkpt>
      <trkpt lat="43.33454" lon="-1.60962">
        <ele>121.74</ele>
        <time>2023-08-12T12:41:17Z</time>
      </trkpt>
      <trkpt lat="43.3346" lon="-1.6097">
        <ele>121.74</ele>
        <time>2023-08-12T12:41:18Z</time>
      </trkpt>
      <trkpt lat="43.33465" lon="-1.60979">
        <ele>121.26</ele>
        <time>2023-08-12T12:41:19Z</time>
      </trkpt>
      <trkpt lat="43.33468" lon="-1.60988">
        <ele>120.78</ele>
        <time>2023-08-12T12:41:20Z</time>
      </trkpt>
      <trkpt lat="43.33467" lon="-1.60997">
        <ele>120.3</ele>
        <time>2023-08-12T12:41:21Z</time>
      </trkpt>
      <trkpt lat="43.33465" lon="-1.61005">
        <ele>119.82</ele>
        <time>2023-08-12T12:41:22Z</time>
      </trkpt>
      <trkpt lat="43.33459" lon="-1.61012">
        <ele>118.86</ele>
        <time>2023-08-12T12:41:23Z</time>
      </trkpt>
      <trkpt lat="43.33452" lon="-1.61017">
        <ele>118.86</ele>
        <time>2023-08-12T12:41:24Z</time>
      </trkpt>
      <trkpt lat="43.33445" lon="-1.61025">
        <ele>117.9</ele>
        <time>2023-08-12T12:41:25Z</time>
      </trkpt>
      <trkpt lat="43.3344" lon="-1.61035">
        <ele>117.42</ele>
        <time>2023-08-12T12:41:26Z</time>
      </trkpt>
      <trkpt lat="43.33437" lon="-1.61047">
        <ele>116.46</ele>
        <time>2023-08-12T12:41:27Z</time>
      </trkpt>
      <trkpt lat="43.33436" lon="-1.61059">
        <ele>116.46</ele>
        <time>2023-08-12T12:41:28Z</time>
      </trkpt>
      <trkpt lat="43.33435" lon="-1.61071">
        <ele>115.5</ele>
        <time>2023-08-12T12:41:29Z</time>
      </trkpt>
      <trkpt lat="43.33434" lon="-1.61084">
        <ele>115.01</ele>
        <time>2023-08-12T12:41:30Z</time>
      </trkpt>
      <trkpt lat="43.33432" lon="-1.61096">
        <ele>115.01</ele>
        <time>2023-08-12T12:41:31Z</time>
      </trkpt>
      <trkpt lat="43.33429" lon="-1.61107">
        <ele>114.53</ele>
        <time>2023-08-12T12:41:32Z</time>
      </trkpt>
      <trkpt lat="43.33427" lon="-1.6112">
        <ele>113.57</ele>
        <time>2023-08-12T12:41:33Z</time>
      </trkpt>
      <trkpt lat="43.33426" lon="-1.61133">
        <ele>112.61</ele>
        <time>2023-08-12T12:41:34Z</time>
      </trkpt>
      <trkpt lat="43.33425" lon="-1.61147">
        <ele>112.61</ele>
        <time>2023-08-12T12:41:35Z</time>
      </trkpt>
      <trkpt lat="43.33426" lon="-1.6116">
        <ele>111.65</ele>
        <time>2023-08-12T12:41:36Z</time>
      </trkpt>
      <trkpt lat="43.33427" lon="-1.61173">
        <ele>111.65</ele>
        <time>2023-08-12T12:41:37Z</time>
      </trkpt>
      <trkpt lat="43.33429" lon="-1.61187">
        <ele>110.21</ele>
        <time>2023-08-12T12:41:38Z</time>
      </trkpt>
      <trkpt lat="43.33432" lon="-1.612">
        <ele>109.73</ele>
        <time>2023-08-12T12:41:39Z</time>
      </trkpt>
      <trkpt lat="43.33437" lon="-1.6121">
        <ele>109.25</ele>
        <time>2023-08-12T12:41:40Z</time>
      </trkpt>
      <trkpt lat="43.33443" lon="-1.61218">
        <ele>108.29</ele>
        <time>2023-08-12T12:41:41Z</time>
      </trkpt>
      <trkpt lat="43.33451" lon="-1.61223">
        <ele>107.81</ele>
        <time>2023-08-12T12:41:42Z</time>
      </trkpt>
      <trkpt lat="43.33459" lon="-1.61226">
        <ele>107.81</ele>
        <time>2023-08-12T12:41:43Z</time>
      </trkpt>
      <trkpt lat="43.33467" lon="-1.61228">
        <ele>107.32</ele>
        <time>2023-08-12T12:41:44Z</time>
      </trkpt>
      <trkpt lat="43.33475" lon="-1.61232">
        <ele>106.84</ele>
        <time>2023-08-12T12:41:45Z</time>
      </trkpt>
      <trkpt lat="43.33481" lon="-1.61237">
        <ele>105.88</ele>
        <time>2023-08-12T12:41:46Z</time>
      </trkpt>
      <trkpt lat="43.33486" lon="-1.61245">
        <ele>105.88</ele>
        <time>2023-08-12T12:41:47Z</time>
      </trkpt>
      <trkpt lat="43.3349" lon="-1.61255">
        <ele>105.4</ele>
        <time>2023-08-12T12:41:48Z</time>
      </trkpt>
      <trkpt lat="43.33494" lon="-1.61265">
        <ele>105.4</ele>
        <time>2023-08-12T12:41:49Z</time>
      </trkpt>
      <trkpt lat="43.335" lon="-1.61275">
        <ele>104.92</ele>
        <time>2023-08-12T12:41:50Z</time>
      </trkpt>
      <trkpt lat="43.33506" lon="-1.61283">
        <ele>103.96</ele>
        <time>2023-08-12T12:41:51Z</time>
      </trkpt>
      <trkpt lat="43.33513" lon="-1.6129">
        <ele>103</ele>
        <time>2023-08-12T12:41:52Z</time>
      </trkpt>
      <trkpt lat="43.33521" lon="-1.61296">
        <ele>102.52</ele>
        <time>2023-08-12T12:41:53Z</time>
      </trkpt>
      <trkpt lat="43.33528" lon="-1.61303">
        <ele>102.04</ele>
        <time>2023-08-12T12:41:54Z</time>
      </trkpt>
      <trkpt lat="43.33534" lon="-1.6131">
        <ele>101.56</ele>
        <time>2023-08-12T12:41:55Z</time>
      </trkpt>
      <trkpt lat="43.33539" lon="-1.61318">
        <ele>101.08</ele>
        <time>2023-08-12T12:41:56Z</time>
      </trkpt>
      <trkpt lat="43.33541" lon="-1.61327">
        <ele>100.6</ele>
        <time>2023-08-12T12:41:57Z</time>
      </trkpt>
      <trkpt lat="43.33543" lon="-1.61337">
        <ele>100.6</ele>
        <time>2023-08-12T12:41:58Z</time>
      </trkpt>
      <trkpt lat="43.33543" lon="-1.61347">
        <ele>99.63</ele>
        <time>2023-08-12T12:41:59Z</time>
      </trkpt>
      <trkpt lat="43.33544" lon="-1.61358">
        <ele>99.63</ele>
        <time>2023-08-12T12:42:00Z</time>
      </trkpt>
      <trkpt lat="43.33545" lon="-1.6137">
        <ele>98.67</ele>
        <time>2023-08-12T12:42:01Z</time>
      </trkpt>
      <trkpt lat="43.33549" lon="-1.6138">
        <ele>98.19</ele>
        <time>2023-08-12T12:42:02Z</time>
      </trkpt>
      <trkpt lat="43.33555" lon="-1.6139">
        <ele>98.19</ele>
        <time>2023-08-12T12:42:03Z</time>
      </trkpt>
      <trkpt lat="43.33561" lon="-1.61398">
        <ele>97.23</ele>
        <time>2023-08-12T12:42:04Z</time>
      </trkpt>
      <trkpt lat="43.33568" lon="-1.61405">
        <ele>96.75</ele>
        <time>2023-08-12T12:42:05Z</time>
      </trkpt>
      <trkpt lat="43.33575" lon="-1.61413">
        <ele>96.27</ele>
        <time>2023-08-12T12:42:06Z</time>
      </trkpt>
      <trkpt lat="43.33581" lon="-1.61421">
        <ele>95.31</ele>
        <time>2023-08-12T12:42:07Z</time>
      </trkpt>
      <trkpt lat="43.33587" lon="-1.6143">
        <ele>95.31</ele>
        <time>2023-08-12T12:42:08Z</time>
      </trkpt>
      <trkpt lat="43.33612" lon="-1.6147">
        <ele>92.42</ele>
        <time>2023-08-12T12:42:12Z</time>
      </trkpt>
      <trkpt lat="43.3362" lon="-1.61478">
        <ele>91.94</ele>
        <time>2023-08-12T12:42:13Z</time>
      </trkpt>
      <trkpt lat="43.33628" lon="-1.61485">
        <ele>91.46</ele>
        <time>2023-08-12T12:42:14Z</time>
      </trkpt>
      <trkpt lat="43.33637" lon="-1.6149">
        <ele>90.5</ele>
        <time>2023-08-12T12:42:15Z</time>
      </trkpt>
      <trkpt lat="43.33646" lon="-1.61496">
        <ele>89.54</ele>
        <time>2023-08-12T12:42:16Z</time>
      </trkpt>
      <trkpt lat="43.33664" lon="-1.61508">
        <ele>88.58</ele>
        <time>2023-08-12T12:42:18Z</time>
      </trkpt>
      <trkpt lat="43.33687" lon="-1.61532">
        <ele>87.14</ele>
        <time>2023-08-12T12:42:21Z</time>
      </trkpt>
      <trkpt lat="43.33696" lon="-1.61539">
        <ele>86.66</ele>
        <time>2023-08-12T12:42:22Z</time>
      </trkpt>
      <trkpt lat="43.33705" lon="-1.61544">
        <ele>85.69</ele>
        <time>2023-08-12T12:42:23Z</time>
      </trkpt>
      <trkpt lat="43.33724" lon="-1.61553">
        <ele>84.25</ele>
        <time>2023-08-12T12:42:25Z</time>
      </trkpt>
      <trkpt lat="43.33765" lon="-1.61567">
        <ele>80.41</ele>
        <time>2023-08-12T12:42:29Z</time>
      </trkpt>
      <trkpt lat="43.33776" lon="-1.6157">
        <ele>80.89</ele>
        <time>2023-08-12T12:42:30Z</time>
      </trkpt>
      <trkpt lat="43.33796" lon="-1.61575">
        <ele>78.48</ele>
        <time>2023-08-12T12:42:32Z</time>
      </trkpt>
      <trkpt lat="43.33806" lon="-1.61575">
        <ele>78</ele>
        <time>2023-08-12T12:42:33Z</time>
      </trkpt>
      <trkpt lat="43.3385" lon="-1.61571">
        <ele>74.64</ele>
        <time>2023-08-12T12:42:37Z</time>
      </trkpt>
      <trkpt lat="43.33872" lon="-1.61571">
        <ele>72.72</ele>
        <time>2023-08-12T12:42:39Z</time>
      </trkpt>
      <trkpt lat="43.33883" lon="-1.61569">
        <ele>71.76</ele>
        <time>2023-08-12T12:42:40Z</time>
      </trkpt>
      <trkpt lat="43.33894" lon="-1.61567">
        <ele>71.27</ele>
        <time>2023-08-12T12:42:41Z</time>
      </trkpt>
      <trkpt lat="43.33905" lon="-1.61567">
        <ele>70.31</ele>
        <time>2023-08-12T12:42:42Z</time>
      </trkpt>
      <trkpt lat="43.33916" lon="-1.61567">
        <ele>70.31</ele>
        <time>2023-08-12T12:42:43Z</time>
      </trkpt>
      <trkpt lat="43.33962" lon="-1.61562">
        <ele>65.99</ele>
        <time>2023-08-12T12:42:47Z</time>
      </trkpt>
      <trkpt lat="43.33973" lon="-1.61562">
        <ele>65.51</ele>
        <time>2023-08-12T12:42:48Z</time>
      </trkpt>
      <trkpt lat="43.34011" lon="-1.6157">
        <ele>62.62</ele>
        <time>2023-08-12T12:42:51Z</time>
      </trkpt>
      <trkpt lat="43.34018" lon="-1.61572">
        <ele>62.14</ele>
        <time>2023-08-12T12:42:52Z</time>
      </trkpt>
      <trkpt lat="43.34028" lon="-1.61578">
        <ele>61.66</ele>
        <time>2023-08-12T12:42:53Z</time>
      </trkpt>
      <trkpt lat="43.34037" lon="-1.61585">
        <ele>60.7</ele>
        <time>2023-08-12T12:42:54Z</time>
      </trkpt>
      <trkpt lat="43.34046" lon="-1.61593">
        <ele>59.74</ele>
        <time>2023-08-12T12:42:55Z</time>
      </trkpt>
      <trkpt lat="43.34053" lon="-1.61601">
        <ele>59.26</ele>
        <time>2023-08-12T12:42:56Z</time>
      </trkpt>
      <trkpt lat="43.34077" lon="-1.61623">
        <ele>57.34</ele>
        <time>2023-08-12T12:42:59Z</time>
      </trkpt>
      <trkpt lat="43.34085" lon="-1.61629">
        <ele>56.37</ele>
        <time>2023-08-12T12:43:00Z</time>
      </trkpt>
      <trkpt lat="43.34094" lon="-1.61633">
        <ele>54.93</ele>
        <time>2023-08-12T12:43:01Z</time>
      </trkpt>
      <trkpt lat="43.34103" lon="-1.61635">
        <ele>54.93</ele>
        <time>2023-08-12T12:43:02Z</time>
      </trkpt>
      <trkpt lat="43.34111" lon="-1.61635">
        <ele>53.49</ele>
        <time>2023-08-12T12:43:03Z</time>
      </trkpt>
      <trkpt lat="43.3412" lon="-1.61633">
        <ele>53.01</ele>
        <time>2023-08-12T12:43:04Z</time>
      </trkpt>
      <trkpt lat="43.34129" lon="-1.6163">
        <ele>52.53</ele>
        <time>2023-08-12T12:43:05Z</time>
      </trkpt>
      <trkpt lat="43.34149" lon="-1.61625">
        <ele>51.09</ele>
        <time>2023-08-12T12:43:07Z</time>
      </trkpt>
      <trkpt lat="43.3416" lon="-1.61624">
        <ele>50.61</ele>
        <time>2023-08-12T12:43:08Z</time>
      </trkpt>
      <trkpt lat="43.34198" lon="-1.61627">
        <ele>47.72</ele>
        <time>2023-08-12T12:43:12Z</time>
      </trkpt>
      <trkpt lat="43.34223" lon="-1.61633">
        <ele>46.28</ele>
        <time>2023-08-12T12:43:16Z</time>
      </trkpt>
      <trkpt lat="43.34227" lon="-1.61633">
        <ele>46.28</ele>
        <time>2023-08-12T12:43:17Z</time>
      </trkpt>
      <trkpt lat="43.34232" lon="-1.61632">
        <ele>46.28</ele>
        <time>2023-08-12T12:43:18Z</time>
      </trkpt>
      <trkpt lat="43.34234" lon="-1.61633">
        <ele>45.8</ele>
        <time>2023-08-12T12:43:19Z</time>
      </trkpt>
      <trkpt lat="43.34239" lon="-1.61641">
        <ele>45.8</ele>
        <time>2023-08-12T12:43:28Z</time>
      </trkpt>
      <trkpt lat="43.34242" lon="-1.61641">
        <ele>45.8</ele>
        <time>2023-08-12T12:43:29Z</time>
      </trkpt>
      <trkpt lat="43.34246" lon="-1.61641">
        <ele>45.32</ele>
        <time>2023-08-12T12:43:30Z</time>
      </trkpt>
      <trkpt lat="43.3425" lon="-1.61641">
        <ele>44.84</ele>
        <time>2023-08-12T12:43:31Z</time>
      </trkpt>
      <trkpt lat="43.34255" lon="-1.6164">
        <ele>44.36</ele>
        <time>2023-08-12T12:43:32Z</time>
      </trkpt>
      <trkpt lat="43.34309" lon="-1.61638">
        <ele>41.47</ele>
        <time>2023-08-12T12:43:41Z</time>
      </trkpt>
      <trkpt lat="43.34345" lon="-1.61637">
        <ele>39.55</ele>
        <time>2023-08-12T12:43:46Z</time>
      </trkpt>
      <trkpt lat="43.34352" lon="-1.61639">
        <ele>39.07</ele>
        <time>2023-08-12T12:43:47Z</time>
      </trkpt>
      <trkpt lat="43.3436" lon="-1.61643">
        <ele>38.11</ele>
        <time>2023-08-12T12:43:48Z</time>
      </trkpt>
      <trkpt lat="43.34369" lon="-1.61649">
        <ele>37.15</ele>
        <time>2023-08-12T12:43:49Z</time>
      </trkpt>
      <trkpt lat="43.34377" lon="-1.61656">
        <ele>36.67</ele>
        <time>2023-08-12T12:43:50Z</time>
      </trkpt>
      <trkpt lat="43.34384" lon="-1.61664">
        <ele>36.19</ele>
        <time>2023-08-12T12:43:51Z</time>
      </trkpt>
      <trkpt lat="43.34389" lon="-1.61673">
        <ele>36.19</ele>
        <time>2023-08-12T12:43:52Z</time>
      </trkpt>
      <trkpt lat="43.34394" lon="-1.61682">
        <ele>35.71</ele>
        <time>2023-08-12T12:43:53Z</time>
      </trkpt>
      <trkpt lat="43.34398" lon="-1.61692">
        <ele>35.71</ele>
        <time>2023-08-12T12:43:54Z</time>
      </trkpt>
      <trkpt lat="43.34399" lon="-1.61703">
        <ele>35.23</ele>
        <time>2023-08-12T12:43:55Z</time>
      </trkpt>
      <trkpt lat="43.34399" lon="-1.61715">
        <ele>35.23</ele>
        <time>2023-08-12T12:43:56Z</time>
      </trkpt>
      <trkpt lat="43.34398" lon="-1.61726">
        <ele>35.23</ele>
        <time>2023-08-12T12:43:57Z</time>
      </trkpt>
      <trkpt lat="43.34398" lon="-1.61738">
        <ele>35.23</ele>
        <time>2023-08-12T12:43:58Z</time>
      </trkpt>
      <trkpt lat="43.34391" lon="-1.61813">
        <ele>37.15</ele>
        <time>2023-08-12T12:44:08Z</time>
      </trkpt>
      <trkpt lat="43.34385" lon="-1.61882">
        <ele>39.07</ele>
        <time>2023-08-12T12:44:24Z</time>
      </trkpt>
      <trkpt lat="43.34391" lon="-1.61941">
        <ele>40.03</ele>
        <time>2023-08-12T12:44:38Z</time>
      </trkpt>
      <trkpt lat="43.34397" lon="-1.61961">
        <ele>39.07</ele>
        <time>2023-08-12T12:44:42Z</time>
      </trkpt>
      <trkpt lat="43.344" lon="-1.61966">
        <ele>39.07</ele>
        <time>2023-08-12T12:44:43Z</time>
      </trkpt>
      <trkpt lat="43.34413" lon="-1.61988">
        <ele>38.59</ele>
        <time>2023-08-12T12:44:48Z</time>
      </trkpt>
      <trkpt lat="43.34415" lon="-1.61993">
        <ele>38.59</ele>
        <time>2023-08-12T12:44:49Z</time>
      </trkpt>
      <trkpt lat="43.34417" lon="-1.61998">
        <ele>39.07</ele>
        <time>2023-08-12T12:44:50Z</time>
      </trkpt>
      <trkpt lat="43.34419" lon="-1.62002">
        <ele>39.07</ele>
        <time>2023-08-12T12:44:51Z</time>
      </trkpt>
      <trkpt lat="43.34421" lon="-1.62006">
        <ele>39.55</ele>
        <time>2023-08-12T12:44:52Z</time>
      </trkpt>
      <trkpt lat="43.34423" lon="-1.62009">
        <ele>39.07</ele>
        <time>2023-08-12T12:44:53Z</time>
      </trkpt>
      <trkpt lat="43.34425" lon="-1.62012">
        <ele>39.07</ele>
        <time>2023-08-12T12:44:54Z</time>
      </trkpt>
      <trkpt lat="43.34427" lon="-1.62015">
        <ele>39.07</ele>
        <time>2023-08-12T12:44:55Z</time>
      </trkpt>
      <trkpt lat="43.34429" lon="-1.62018">
        <ele>38.59</ele>
        <time>2023-08-12T12:44:56Z</time>
      </trkpt>
      <trkpt lat="43.34431" lon="-1.62021">
        <ele>39.07</ele>
        <time>2023-08-12T12:44:57Z</time>
      </trkpt>
      <trkpt lat="43.34432" lon="-1.62024">
        <ele>38.59</ele>
        <time>2023-08-12T12:44:58Z</time>
      </trkpt>
      <trkpt lat="43.34434" lon="-1.62026">
        <ele>39.55</ele>
        <time>2023-08-12T12:44:59Z</time>
      </trkpt>
      <trkpt lat="43.34463" lon="-1.62066">
        <ele>39.07</ele>
        <time>2023-08-12T12:45:14Z</time>
      </trkpt>
      <trkpt lat="43.34482" lon="-1.62087">
        <ele>38.11</ele>
        <time>2023-08-12T12:45:26Z</time>
      </trkpt>
      <trkpt lat="43.34489" lon="-1.62093">
        <ele>37.63</ele>
        <time>2023-08-12T12:45:42Z</time>
      </trkpt>
      <trkpt lat="43.34491" lon="-1.62094">
        <ele>37.15</ele>
        <time>2023-08-12T12:46:12Z</time>
      </trkpt>
      <trkpt lat="43.3449" lon="-1.62097">
        <ele>37.15</ele>
        <time>2023-08-12T12:46:43Z</time>
      </trkpt>
      <trkpt lat="43.34493" lon="-1.62096">
        <ele>36.67</ele>
        <time>2023-08-12T12:47:15Z</time>
      </trkpt>
      <trkpt lat="43.34493" lon="-1.62094">
        <ele>37.63</ele>
        <time>2023-08-12T12:47:41Z</time>
      </trkpt>
      <trkpt lat="43.34495" lon="-1.62093">
        <ele>37.63</ele>
        <time>2023-08-12T12:47:53Z</time>
      </trkpt>
      <trkpt lat="43.34497" lon="-1.62093">
        <ele>36.67</ele>
        <time>2023-08-12T12:47:54Z</time>
      </trkpt>
      <trkpt lat="43.34498" lon="-1.62094">
        <ele>36.67</ele>
        <time>2023-08-12T12:47:55Z</time>
      </trkpt>
      <trkpt lat="43.34499" lon="-1.62095">
        <ele>36.67</ele>
        <time>2023-08-12T12:47:56Z</time>
      </trkpt>
      <trkpt lat="43.34501" lon="-1.62096">
        <ele>36.67</ele>
        <time>2023-08-12T12:47:57Z</time>
      </trkpt>
      <trkpt lat="43.34502" lon="-1.62097">
        <ele>37.15</ele>
        <time>2023-08-12T12:47:58Z</time>
      </trkpt>
      <trkpt lat="43.3453" lon="-1.62112">
        <ele>36.19</ele>
        <time>2023-08-12T12:48:15Z</time>
      </trkpt>
      <trkpt lat="43.3455" lon="-1.62124">
        <ele>35.23</ele>
        <time>2023-08-12T12:48:31Z</time>
      </trkpt>
      <trkpt lat="43.34582" lon="-1.62148">
        <ele>32.82</ele>
        <time>2023-08-12T12:48:45Z</time>
      </trkpt>
      <trkpt lat="43.34583" lon="-1.62151">
        <ele>33.3</ele>
        <time>2023-08-12T12:48:46Z</time>
      </trkpt>
      <trkpt lat="43.34584" lon="-1.62153">
        <ele>32.82</ele>
        <time>2023-08-12T12:48:47Z</time>
      </trkpt>
      <trkpt lat="43.34586" lon="-1.62155">
        <ele>32.34</ele>
        <time>2023-08-12T12:48:48Z</time>
      </trkpt>
      <trkpt lat="43.34589" lon="-1.62157">
        <ele>32.34</ele>
        <time>2023-08-12T12:48:49Z</time>
      </trkpt>
      <trkpt lat="43.34592" lon="-1.62159">
        <ele>31.86</ele>
        <time>2023-08-12T12:48:50Z</time>
      </trkpt>
      <trkpt lat="43.34622" lon="-1.62178">
        <ele>30.42</ele>
        <time>2023-08-12T12:49:03Z</time>
      </trkpt>
      <trkpt lat="43.34658" lon="-1.62207">
        <ele>28.5</ele>
        <time>2023-08-12T12:49:15Z</time>
      </trkpt>
      <trkpt lat="43.34693" lon="-1.62236">
        <ele>26.57</ele>
        <time>2023-08-12T12:49:28Z</time>
      </trkpt>
      <trkpt lat="43.34731" lon="-1.62266">
        <ele>26.09</ele>
        <time>2023-08-12T12:49:41Z</time>
      </trkpt>
      <trkpt lat="43.34777" lon="-1.62304">
        <ele>24.65</ele>
        <time>2023-08-12T12:49:55Z</time>
      </trkpt>
      <trkpt lat="43.34805" lon="-1.62327">
        <ele>24.65</ele>
        <time>2023-08-12T12:50:06Z</time>
      </trkpt>
      <trkpt lat="43.34807" lon="-1.62326">
        <ele>24.65</ele>
        <time>2023-08-12T12:50:07Z</time>
      </trkpt>
      <trkpt lat="43.34808" lon="-1.62325">
        <ele>24.65</ele>
        <time>2023-08-12T12:50:08Z</time>
      </trkpt>
      <trkpt lat="43.34809" lon="-1.62323">
        <ele>24.65</ele>
        <time>2023-08-12T12:50:09Z</time>
      </trkpt>
      <trkpt lat="43.3481" lon="-1.62321">
        <ele>25.13</ele>
        <time>2023-08-12T12:50:10Z</time>
      </trkpt>
      <trkpt lat="43.3481" lon="-1.62319">
        <ele>24.17</ele>
        <time>2023-08-12T12:50:11Z</time>
      </trkpt>
      <trkpt lat="43.34812" lon="-1.62303">
        <ele>24.17</ele>
        <time>2023-08-12T12:50:17Z</time>
      </trkpt>
      <trkpt lat="43.34812" lon="-1.62292">
        <ele>23.69</ele>
        <time>2023-08-12T12:50:31Z</time>
      </trkpt>
      <trkpt lat="43.34812" lon="-1.62288">
        <ele>23.69</ele>
        <time>2023-08-12T12:50:36Z</time>
      </trkpt>
      <trkpt lat="43.34812" lon="-1.62286">
        <ele>23.69</ele>
        <time>2023-08-12T12:50:37Z</time>
      </trkpt>
      <trkpt lat="43.348" lon="-1.62239">
        <ele>22.73</ele>
        <time>2023-08-12T12:50:51Z</time>
      </trkpt>
      <trkpt lat="43.34807" lon="-1.62192">
        <ele>22.73</ele>
        <time>2023-08-12T12:51:04Z</time>
      </trkpt>
      <trkpt lat="43.34831" lon="-1.6216">
        <ele>22.25</ele>
        <time>2023-08-12T12:51:19Z</time>
      </trkpt>
      <trkpt lat="43.34869" lon="-1.62142">
        <ele>21.29</ele>
        <time>2023-08-12T12:51:32Z</time>
      </trkpt>
      <trkpt lat="43.34871" lon="-1.62143">
        <ele>22.25</ele>
        <time>2023-08-12T12:51:33Z</time>
      </trkpt>
      <trkpt lat="43.34881" lon="-1.62145">
        <ele>22.25</ele>
        <time>2023-08-12T12:51:44Z</time>
      </trkpt>
      <trkpt lat="43.34888" lon="-1.62146">
        <ele>21.77</ele>
        <time>2023-08-12T12:51:55Z</time>
      </trkpt>
      <trkpt lat="43.3489" lon="-1.62147">
        <ele>21.29</ele>
        <time>2023-08-12T12:51:56Z</time>
      </trkpt>
      <trkpt lat="43.34921" lon="-1.62155">
        <ele>20.32</ele>
        <time>2023-08-12T12:52:11Z</time>
      </trkpt>
      <trkpt lat="43.34938" lon="-1.62165">
        <ele>20.81</ele>
        <time>2023-08-12T12:52:18Z</time>
      </trkpt>
      <trkpt lat="43.34963" lon="-1.62188">
        <ele>19.84</ele>
        <time>2023-08-12T12:52:30Z</time>
      </trkpt>
      <trkpt lat="43.34967" lon="-1.62191">
        <ele>4.3</ele>
      </trkpt>
      <trkpt lat="43.34973" lon="-1.62194">
        <ele>4</ele>
      </trkpt>
      <trkpt lat="43.34976" lon="-1.62193">
        <ele>4.1</ele>
      </trkpt>
      <trkpt lat="43.34979" lon="-1.62195">
        <ele>4</ele>
      </trkpt>
      <trkpt lat="43.34983" lon="-1.62194">
        <ele>4</ele>
      </trkpt>
      <trkpt lat="43.34987" lon="-1.62196">
        <ele>4</ele>
      </trkpt>
      <trkpt lat="43.34991" lon="-1.62196">
        <ele>4</ele>
      </trkpt>
      <trkpt lat="43.34994" lon="-1.62198">
        <ele>4.1</ele>
      </trkpt>
      <trkpt lat="43.34999" lon="-1.62197">
        <ele>4.1</ele>
      </trkpt>
      <trkpt lat="43.35003" lon="-1.62194">
        <ele>3.9</ele>
      </trkpt>
      <trkpt lat="43.35006" lon="-1.62194">
        <ele>3.8</ele>
      </trkpt>
      <trkpt lat="43.3501" lon="-1.62194">
        <ele>3.6</ele>
      </trkpt>
      <trkpt lat="43.35016" lon="-1.62191">
        <ele>3.4</ele>
      </trkpt>
      <trkpt lat="43.3502" lon="-1.62192">
        <ele>3.3</ele>
      </trkpt>
      <trkpt lat="43.35024" lon="-1.62192">
        <ele>3.1</ele>
      </trkpt>
      <trkpt lat="43.3503" lon="-1.62188">
        <ele>3.1</ele>
      </trkpt>
      <trkpt lat="43.35023" lon="-1.62189">
        <ele>3.2</ele>
      </trkpt>
      <trkpt lat="43.35018" lon="-1.62194">
        <ele>3.4</ele>
      </trkpt>
      <trkpt lat="43.35014" lon="-1.62195">
        <ele>3.5</ele>
      </trkpt>
      <trkpt lat="43.35009" lon="-1.62196">
        <ele>3.7</ele>
      </trkpt>
      <trkpt lat="43.35004" lon="-1.62197">
        <ele>4</ele>
      </trkpt>
      <trkpt lat="43.34997" lon="-1.62194">
        <ele>4</ele>
      </trkpt>
      <trkpt lat="43.34988" lon="-1.62193">
        <ele>4</ele>
      </trkpt>
      <trkpt lat="43.34985" lon="-1.62192">
        <ele>4</ele>
      </trkpt>
      <trkpt lat="43.34979" lon="-1.62192">
        <ele>4.1</ele>
      </trkpt>
      <trkpt lat="43.34974" lon="-1.6219">
        <ele>4.1</ele>
      </trkpt>
      <trkpt lat="43.34969" lon="-1.62189">
        <ele>4.3</ele>
      </trkpt>
      <trkpt lat="43.3496" lon="-1.62189">
        <ele>4.5</ele>
      </trkpt>
      <trkpt lat="43.34956" lon="-1.62188">
        <ele>4.7</ele>
      </trkpt>
      <trkpt lat="43.34952" lon="-1.62182">
        <ele>4.9</ele>
      </trkpt>
      <trkpt lat="43.34948" lon="-1.62178">
        <ele>5</ele>
      </trkpt>
      <trkpt lat="43.34943" lon="-1.62175">
        <ele>5</ele>
      </trkpt>
      <trkpt lat="43.34939" lon="-1.62171">
        <ele>5</ele>
      </trkpt>
      <trkpt lat="43.34932" lon="-1.62165">
        <ele>5</ele>
      </trkpt>
      <trkpt lat="43.34924" lon="-1.62161">
        <ele>5.2</ele>
      </trkpt>
      <trkpt lat="43.3491" lon="-1.62156">
        <ele>5.5</ele>
      </trkpt>
      <trkpt lat="43.349" lon="-1.62153">
        <ele>5.8</ele>
      </trkpt>
      <trkpt lat="43.34894" lon="-1.62152">
        <ele>5.9</ele>
      </trkpt>
      <trkpt lat="43.34881" lon="-1.62148">
        <ele>5.8</ele>
      </trkpt>
      <trkpt lat="43.34876" lon="-1.62145">
        <ele>5.6</ele>
      </trkpt>
      <trkpt lat="43.34871" lon="-1.62145">
        <ele>5.5</ele>
      </trkpt>
      <trkpt lat="43.34871" lon="-1.62136">
        <ele>5.5</ele>
      </trkpt>
      <trkpt lat="43.34873" lon="-1.6213">
        <ele>5.8</ele>
      </trkpt>
      <trkpt lat="43.3488" lon="-1.62129">
        <ele>6.1</ele>
      </trkpt>
      <trkpt lat="43.34894" lon="-1.62118">
        <ele>6.6</ele>
      </trkpt>
      <trkpt lat="43.34902" lon="-1.62108">
        <ele>6.6</ele>
      </trkpt>
      <trkpt lat="43.34907" lon="-1.62099">
        <ele>6.6</ele>
      </trkpt>
      <trkpt lat="43.34916" lon="-1.62093">
        <ele>6.7</ele>
      </trkpt>
      <trkpt lat="43.34925" lon="-1.62078">
        <ele>6.5</ele>
      </trkpt>
      <trkpt lat="43.3493" lon="-1.62069">
        <ele>6.5</ele>
      </trkpt>
      <trkpt lat="43.34942" lon="-1.62052">
        <ele>7</ele>
      </trkpt>
      <trkpt lat="43.34955" lon="-1.62038">
        <ele>6.7</ele>
      </trkpt>
      <trkpt lat="43.34976" lon="-1.62014">
        <ele>6.9</ele>
      </trkpt>
      <trkpt lat="43.34989" lon="-1.62005">
        <ele>6.8</ele>
      </trkpt>
      <trkpt lat="43.34997" lon="-1.61994">
        <ele>7.7</ele>
      </trkpt>
      <trkpt lat="43.35019" lon="-1.61971">
        <ele>7.4</ele>
      </trkpt>
      <trkpt lat="43.35033" lon="-1.61939">
        <ele>8.4</ele>
      </trkpt>
      <trkpt lat="43.35037" lon="-1.61928">
        <ele>9.5</ele>
      </trkpt>
      <trkpt lat="43.35051" lon="-1.61897">
        <ele>12.2</ele>
      </trkpt>
      <trkpt lat="43.35059" lon="-1.61877">
        <ele>13</ele>
      </trkpt>
      <trkpt lat="43.35051" lon="-1.61871">
        <ele>14.2</ele>
      </trkpt>
      <trkpt lat="43.35036" lon="-1.61856">
        <ele>16.5</ele>
      </trkpt>
      <trkpt lat="43.35032" lon="-1.61837">
        <ele>18.3</ele>
      </trkpt>
      <trkpt lat="43.35028" lon="-1.61811">
        <ele>20.6</ele>
      </trkpt>
      <trkpt lat="43.35037" lon="-1.61768">
        <ele>22.8</ele>
      </trkpt>
      <trkpt lat="43.35038" lon="-1.6174">
        <ele>24.8</ele>
      </trkpt>
      <trkpt lat="43.35045" lon="-1.61727">
        <ele>24.9</ele>
      </trkpt>
      <trkpt lat="43.35062" lon="-1.61716">
        <ele>23.8</ele>
      </trkpt>
      <trkpt lat="43.35071" lon="-1.61695">
        <ele>23.9</ele>
      </trkpt>
      <trkpt lat="43.35079" lon="-1.61681">
        <ele>23.5</ele>
      </trkpt>
      <trkpt lat="43.35093" lon="-1.61663">
        <ele>22.3</ele>
      </trkpt>
      <trkpt lat="43.3511" lon="-1.61635">
        <ele>21.1</ele>
      </trkpt>
      <trkpt lat="43.35116" lon="-1.6161">
        <ele>20.9</ele>
      </trkpt>
      <trkpt lat="43.35125" lon="-1.61596">
        <ele>20.8</ele>
      </trkpt>
      <trkpt lat="43.35122" lon="-1.61572">
        <ele>20.7</ele>
      </trkpt>
      <trkpt lat="43.35112" lon="-1.61546">
        <ele>20</ele>
      </trkpt>
      <trkpt lat="43.35105" lon="-1.61522">
        <ele>20</ele>
      </trkpt>
      <trkpt lat="43.3509" lon="-1.61494">
        <ele>19.3</ele>
      </trkpt>
      <trkpt lat="43.35092" lon="-1.61428">
        <ele>16</ele>
      </trkpt>
      <trkpt lat="43.35113" lon="-1.61354">
        <ele>15</ele>
      </trkpt>
      <trkpt lat="43.35134" lon="-1.61309">
        <ele>16.6</ele>
      </trkpt>
      <trkpt lat="43.35149" lon="-1.61298">
        <ele>18.1</ele>
      </trkpt>
      <trkpt lat="43.35157" lon="-1.61275">
        <ele>20.9</ele>
      </trkpt>
      <trkpt lat="43.35168" lon="-1.61263">
        <ele>22.1</ele>
      </trkpt>
      <trkpt lat="43.35182" lon="-1.61251">
        <ele>24.6</ele>
      </trkpt>
      <trkpt lat="43.35189" lon="-1.61222">
        <ele>27.4</ele>
      </trkpt>
      <trkpt lat="43.35204" lon="-1.61204">
        <ele>27.1</ele>
      </trkpt>
      <trkpt lat="43.35214" lon="-1.61183">
        <ele>27.8</ele>
      </trkpt>
      <trkpt lat="43.3522" lon="-1.61164">
        <ele>29.7</ele>
      </trkpt>
      <trkpt lat="43.35227" lon="-1.61148">
        <ele>32</ele>
      </trkpt>
      <trkpt lat="43.35242" lon="-1.61142">
        <ele>31.6</ele>
      </trkpt>
      <trkpt lat="43.35252" lon="-1.61123">
        <ele>34</ele>
      </trkpt>
      <trkpt lat="43.35266" lon="-1.61105">
        <ele>36.3</ele>
      </trkpt>
      <trkpt lat="43.35286" lon="-1.61098">
        <ele>36.6</ele>
      </trkpt>
      <trkpt lat="43.35298" lon="-1.61087">
        <ele>37.2</ele>
      </trkpt>
      <trkpt lat="43.35317" lon="-1.61068">
        <ele>38.8</ele>
      </trkpt>
      <trkpt lat="43.35333" lon="-1.61052">
        <ele>39.5</ele>
      </trkpt>
      <trkpt lat="43.35344" lon="-1.61047">
        <ele>39</ele>
      </trkpt>
      <trkpt lat="43.35363" lon="-1.61022">
        <ele>39.5</ele>
      </trkpt>
      <trkpt lat="43.35392" lon="-1.61002">
        <ele>38.7</ele>
      </trkpt>
      <trkpt lat="43.35406" lon="-1.61017">
        <ele>37.5</ele>
      </trkpt>
      <trkpt lat="43.35417" lon="-1.61019">
        <ele>37</ele>
      </trkpt>
      <trkpt lat="43.3543" lon="-1.61027">
        <ele>36.5</ele>
      </trkpt>
      <trkpt lat="43.3546" lon="-1.61041">
        <ele>35.9</ele>
      </trkpt>
      <trkpt lat="43.35469" lon="-1.61052">
        <ele>36</ele>
      </trkpt>
      <trkpt lat="43.35481" lon="-1.61059">
        <ele>35.8</ele>
      </trkpt>
      <trkpt lat="43.35494" lon="-1.61073">
        <ele>35.4</ele>
      </trkpt>
      <trkpt lat="43.35512" lon="-1.61072">
        <ele>34.8</ele>
      </trkpt>
      <trkpt lat="43.35524" lon="-1.6107">
        <ele>34.6</ele>
      </trkpt>
      <trkpt lat="43.35538" lon="-1.6107">
        <ele>33.8</ele>
      </trkpt>
      <trkpt lat="43.35561" lon="-1.61073">
        <ele>32.6</ele>
      </trkpt>
      <trkpt lat="43.35571" lon="-1.6107">
        <ele>32.5</ele>
      </trkpt>
      <trkpt lat="43.35581" lon="-1.61063">
        <ele>32.3</ele>
      </trkpt>
      <trkpt lat="43.35581" lon="-1.61027">
        <ele>30</ele>
      </trkpt>
      <trkpt lat="43.35581" lon="-1.61003">
        <ele>29.2</ele>
      </trkpt>
      <trkpt lat="43.35576" lon="-1.60967">
        <ele>28.4</ele>
      </trkpt>
      <trkpt lat="43.35581" lon="-1.60924">
        <ele>27</ele>
      </trkpt>
      <trkpt lat="43.35591" lon="-1.6091">
        <ele>26.8</ele>
      </trkpt>
      <trkpt lat="43.35597" lon="-1.60879">
        <ele>26</ele>
      </trkpt>
      <trkpt lat="43.35603" lon="-1.60857">
        <ele>25.7</ele>
      </trkpt>
      <trkpt lat="43.35608" lon="-1.60827">
        <ele>23.5</ele>
      </trkpt>
      <trkpt lat="43.35612" lon="-1.60797">
        <ele>21.1</ele>
      </trkpt>
      <trkpt lat="43.35616" lon="-1.60773">
        <ele>18.8</ele>
      </trkpt>
      <trkpt lat="43.35622" lon="-1.60756">
        <ele>18</ele>
      </trkpt>
      <trkpt lat="43.35623" lon="-1.60724">
        <ele>16</ele>
      </trkpt>
      <trkpt lat="43.35623" lon="-1.6071">
        <ele>14.9</ele>
      </trkpt>
      <trkpt lat="43.35631" lon="-1.60688">
        <ele>13.2</ele>
      </trkpt>
      <trkpt lat="43.35638" lon="-1.60672">
        <ele>13</ele>
      </trkpt>
      <trkpt lat="43.35647" lon="-1.6064">
        <ele>12.7</ele>
      </trkpt>
      <trkpt lat="43.35655" lon="-1.60612">
        <ele>11.8</ele>
      </trkpt>
      <trkpt lat="43.35655" lon="-1.60591">
        <ele>12.2</ele>
      </trkpt>
      <trkpt lat="43.35662" lon="-1.60572">
        <ele>15.1</ele>
      </trkpt>
      <trkpt lat="43.35672" lon="-1.60562">
        <ele>15.3</ele>
      </trkpt>
      <trkpt lat="43.35687" lon="-1.60546">
        <ele>14.1</ele>
      </trkpt>
      <trkpt lat="43.35695" lon="-1.60535">
        <ele>12.5</ele>
      </trkpt>
      <trkpt lat="43.35707" lon="-1.60521">
        <ele>13.7</ele>
      </trkpt>
      <trkpt lat="43.35713" lon="-1.60511">
        <ele>14.3</ele>
      </trkpt>
      <trkpt lat="43.35724" lon="-1.60499">
        <ele>13.9</ele>
      </trkpt>
      <trkpt lat="43.35732" lon="-1.60495">
        <ele>13.6</ele>
      </trkpt>
      <trkpt lat="43.35747" lon="-1.60469">
        <ele>15.3</ele>
      </trkpt>
      <trkpt lat="43.35758" lon="-1.60453">
        <ele>16.1</ele>
      </trkpt>
      <trkpt lat="43.35775" lon="-1.60423">
        <ele>18.9</ele>
      </trkpt>
      <trkpt lat="43.35802" lon="-1.60362">
        <ele>24</ele>
      </trkpt>
      <trkpt lat="43.35811" lon="-1.60341">
        <ele>25.4</ele>
      </trkpt>
      <trkpt lat="43.3582" lon="-1.60316">
        <ele>26.7</ele>
      </trkpt>
      <trkpt lat="43.35829" lon="-1.6028">
        <ele>27.9</ele>
      </trkpt>
      <trkpt lat="43.35841" lon="-1.60231">
        <ele>27.2</ele>
      </trkpt>
      <trkpt lat="43.35842" lon="-1.60197">
        <ele>26.5</ele>
      </trkpt>
      <trkpt lat="43.35836" lon="-1.60162">
        <ele>24.6</ele>
      </trkpt>
      <trkpt lat="43.35833" lon="-1.60126">
        <ele>23.2</ele>
      </trkpt>
      <trkpt lat="43.35833" lon="-1.60096">
        <ele>20.5</ele>
      </trkpt>
      <trkpt lat="43.35833" lon="-1.6006">
        <ele>17.4</ele>
      </trkpt>
      <trkpt lat="43.35834" lon="-1.60029">
        <ele>16.1</ele>
      </trkpt>
      <trkpt lat="43.35845" lon="-1.59998">
        <ele>15.7</ele>
      </trkpt>
      <trkpt lat="43.35851" lon="-1.59977">
        <ele>16.7</ele>
      </trkpt>
      <trkpt lat="43.35864" lon="-1.59956">
        <ele>17.7</ele>
      </trkpt>
      <trkpt lat="43.35886" lon="-1.59909">
        <ele>21.7</ele>
      </trkpt>
      <trkpt lat="43.35908" lon="-1.59878">
        <ele>22.6</ele>
      </trkpt>
      <trkpt lat="43.35921" lon="-1.59871">
        <ele>21.7</ele>
      </trkpt>
      <trkpt lat="43.35939" lon="-1.59859">
        <ele>20.4</ele>
      </trkpt>
      <trkpt lat="43.35948" lon="-1.59846">
        <ele>19.5</ele>
      </trkpt>
      <trkpt lat="43.3596" lon="-1.5983">
        <ele>18.8</ele>
      </trkpt>
      <trkpt lat="43.35975" lon="-1.59787">
        <ele>15.9</ele>
      </trkpt>
      <trkpt lat="43.35982" lon="-1.59774">
        <ele>16.3</ele>
      </trkpt>
      <trkpt lat="43.35994" lon="-1.59766">
        <ele>17.2</ele>
      </trkpt>
      <trkpt lat="43.36008" lon="-1.59755">
        <ele>17.5</ele>
      </trkpt>
      <trkpt lat="43.36025" lon="-1.59751">
        <ele>15.4</ele>
      </trkpt>
      <trkpt lat="43.36034" lon="-1.59744">
        <ele>15.2</ele>
      </trkpt>
      <trkpt lat="43.36044" lon="-1.59731">
        <ele>15.4</ele>
      </trkpt>
      <trkpt lat="43.3606" lon="-1.59718">
        <ele>15</ele>
      </trkpt>
      <trkpt lat="43.36073" lon="-1.59706">
        <ele>15</ele>
      </trkpt>
      <trkpt lat="43.3608" lon="-1.59697">
        <ele>15.1</ele>
      </trkpt>
      <trkpt lat="43.3609" lon="-1.59679">
        <ele>15.7</ele>
      </trkpt>
      <trkpt lat="43.36099" lon="-1.59658">
        <ele>16.4</ele>
      </trkpt>
      <trkpt lat="43.36104" lon="-1.59639">
        <ele>16.8</ele>
      </trkpt>
      <trkpt lat="43.36104" lon="-1.59619">
        <ele>17.3</ele>
      </trkpt>
      <trkpt lat="43.36102" lon="-1.5959">
        <ele>18.1</ele>
      </trkpt>
      <trkpt lat="43.36102" lon="-1.59565">
        <ele>19</ele>
      </trkpt>
      <trkpt lat="43.36111" lon="-1.59553">
        <ele>19.2</ele>
      </trkpt>
      <trkpt lat="43.36143" lon="-1.59526">
        <ele>18.8</ele>
      </trkpt>
      <trkpt lat="43.3616" lon="-1.59508">
        <ele>18.4</ele>
      </trkpt>
      <trkpt lat="43.36173" lon="-1.59494">
        <ele>18</ele>
      </trkpt>
      <trkpt lat="43.36188" lon="-1.59486">
        <ele>17.4</ele>
      </trkpt>
      <trkpt lat="43.36207" lon="-1.59472">
        <ele>16.6</ele>
      </trkpt>
      <trkpt lat="43.3622" lon="-1.59465">
        <ele>15.8</ele>
      </trkpt>
      <trkpt lat="43.36229" lon="-1.59449">
        <ele>15.6</ele>
      </trkpt>
      <trkpt lat="43.36242" lon="-1.59436">
        <ele>13.9</ele>
      </trkpt>
      <trkpt lat="43.36255" lon="-1.59419">
        <ele>12.5</ele>
      </trkpt>
      <trkpt lat="43.36275" lon="-1.59394">
        <ele>11.2</ele>
      </trkpt>
      <trkpt lat="43.36287" lon="-1.59375">
        <ele>10.3</ele>
      </trkpt>
      <trkpt lat="43.36299" lon="-1.5935">
        <ele>10</ele>
      </trkpt>
      <trkpt lat="43.36314" lon="-1.59323">
        <ele>10</ele>
      </trkpt>
      <trkpt lat="43.36326" lon="-1.59315">
        <ele>10</ele>
      </trkpt>
      <trkpt lat="43.36329" lon="-1.59307">
        <ele>10</ele>
      </trkpt>
      <trkpt lat="43.36347" lon="-1.59282">
        <ele>10</ele>
      </trkpt>
      <trkpt lat="43.36356" lon="-1.59266">
        <ele>10</ele>
      </trkpt>
      <trkpt lat="43.36363" lon="-1.59252">
        <ele>9.9</ele>
      </trkpt>
      <trkpt lat="43.36372" lon="-1.59235">
        <ele>9.6</ele>
      </trkpt>
      <trkpt lat="43.36382" lon="-1.59221">
        <ele>9.2</ele>
      </trkpt>
      <trkpt lat="43.36396" lon="-1.5921">
        <ele>8.5</ele>
      </trkpt>
      <trkpt lat="43.36403" lon="-1.59195">
        <ele>8.5</ele>
      </trkpt>
      <trkpt lat="43.36407" lon="-1.59182">
        <ele>8.5</ele>
      </trkpt>
      <trkpt lat="43.36422" lon="-1.59156">
        <ele>8.4</ele>
      </trkpt>
      <trkpt lat="43.36429" lon="-1.5914">
        <ele>7.9</ele>
      </trkpt>
      <trkpt lat="43.36437" lon="-1.59132">
        <ele>8.4</ele>
      </trkpt>
      <trkpt lat="43.36451" lon="-1.59096">
        <ele>7.5</ele>
      </trkpt>
      <trkpt lat="43.36458" lon="-1.59089">
        <ele>7</ele>
      </trkpt>
      <trkpt lat="43.36467" lon="-1.59064">
        <ele>8.9</ele>
      </trkpt>
      <trkpt lat="43.36471" lon="-1.59059">
        <ele>9.6</ele>
      </trkpt>
      <trkpt lat="43.36481" lon="-1.59042">
        <ele>10</ele>
        <time>2023-08-12T13:10:26Z</time>
      </trkpt>
      <trkpt lat="43.36443" lon="-1.58939">
        <ele>23.21</ele>
        <time>2023-08-12T13:10:46Z</time>
      </trkpt>
      <trkpt lat="43.36377" lon="-1.58864">
        <ele>23.21</ele>
        <time>2023-08-12T13:11:03Z</time>
      </trkpt>
      <trkpt lat="43.36294" lon="-1.58789">
        <ele>24.17</ele>
        <time>2023-08-12T13:11:22Z</time>
      </trkpt>
      <trkpt lat="43.36252" lon="-1.58707">
        <ele>23.69</ele>
        <time>2023-08-12T13:11:37Z</time>
      </trkpt>
      <trkpt lat="43.36217" lon="-1.58587">
        <ele>24.17</ele>
        <time>2023-08-12T13:11:55Z</time>
      </trkpt>
      <trkpt lat="43.36172" lon="-1.58443">
        <ele>23.21</ele>
        <time>2023-08-12T13:12:17Z</time>
      </trkpt>
      <trkpt lat="43.36134" lon="-1.58342">
        <ele>23.69</ele>
        <time>2023-08-12T13:12:33Z</time>
      </trkpt>
      <trkpt lat="43.36067" lon="-1.58237">
        <ele>23.69</ele>
        <time>2023-08-12T13:12:51Z</time>
      </trkpt>
      <trkpt lat="43.35991" lon="-1.58128">
        <ele>24.17</ele>
        <time>2023-08-12T13:13:10Z</time>
      </trkpt>
      <trkpt lat="43.35913" lon="-1.58015">
        <ele>24.17</ele>
        <time>2023-08-12T13:13:31Z</time>
      </trkpt>
      <trkpt lat="43.35858" lon="-1.57911">
        <ele>24.65</ele>
        <time>2023-08-12T13:13:50Z</time>
      </trkpt>
      <trkpt lat="43.35825" lon="-1.57779">
        <ele>25.13</ele>
        <time>2023-08-12T13:14:09Z</time>
      </trkpt>
      <trkpt lat="43.35798" lon="-1.57644">
        <ele>25.13</ele>
        <time>2023-08-12T13:14:28Z</time>
      </trkpt>
      <trkpt lat="43.35784" lon="-1.57515">
        <ele>25.13</ele>
        <time>2023-08-12T13:14:47Z</time>
      </trkpt>
      <trkpt lat="43.35783" lon="-1.57488">
        <ele>25.61</ele>
        <time>2023-08-12T13:14:51Z</time>
      </trkpt>
      <trkpt lat="43.35776" lon="-1.57461">
        <ele>25.61</ele>
        <time>2023-08-12T13:14:55Z</time>
      </trkpt>
      <trkpt lat="43.35775" lon="-1.57455">
        <ele>25.61</ele>
        <time>2023-08-12T13:14:56Z</time>
      </trkpt>
      <trkpt lat="43.35773" lon="-1.57441">
        <ele>25.61</ele>
        <time>2023-08-12T13:14:58Z</time>
      </trkpt>
      <trkpt lat="43.35772" lon="-1.57435">
        <ele>26.09</ele>
        <time>2023-08-12T13:14:59Z</time>
      </trkpt>
      <trkpt lat="43.35758" lon="-1.57313">
        <ele>26.09</ele>
        <time>2023-08-12T13:15:17Z</time>
      </trkpt>
      <trkpt lat="43.35743" lon="-1.57182">
        <ele>26.57</ele>
        <time>2023-08-12T13:15:36Z</time>
      </trkpt>
      <trkpt lat="43.35705" lon="-1.57086">
        <ele>27.05</ele>
        <time>2023-08-12T13:15:51Z</time>
      </trkpt>
      <trkpt lat="43.35664" lon="-1.56997">
        <ele>27.53</ele>
        <time>2023-08-12T13:16:06Z</time>
      </trkpt>
      <trkpt lat="43.35661" lon="-1.56991">
        <ele>27.05</ele>
        <time>2023-08-12T13:16:07Z</time>
      </trkpt>
      <trkpt lat="43.35604" lon="-1.56886">
        <ele>28.5</ele>
        <time>2023-08-12T13:16:26Z</time>
      </trkpt>
      <trkpt lat="43.35595" lon="-1.56873">
        <ele>28.98</ele>
        <time>2023-08-12T13:16:29Z</time>
      </trkpt>
      <trkpt lat="43.35593" lon="-1.56868">
        <ele>28.98</ele>
        <time>2023-08-12T13:16:30Z</time>
      </trkpt>
      <trkpt lat="43.35591" lon="-1.56862">
        <ele>28.5</ele>
        <time>2023-08-12T13:16:31Z</time>
      </trkpt>
      <trkpt lat="43.3559" lon="-1.56857">
        <ele>28.5</ele>
        <time>2023-08-12T13:16:32Z</time>
      </trkpt>
      <trkpt lat="43.35588" lon="-1.56852">
        <ele>28.98</ele>
        <time>2023-08-12T13:16:33Z</time>
      </trkpt>
      <trkpt lat="43.35587" lon="-1.56846">
        <ele>28.98</ele>
        <time>2023-08-12T13:16:34Z</time>
      </trkpt>
      <trkpt lat="43.35586" lon="-1.56822">
        <ele>28.98</ele>
        <time>2023-08-12T13:16:38Z</time>
      </trkpt>
      <trkpt lat="43.35586" lon="-1.56816">
        <ele>28.98</ele>
        <time>2023-08-12T13:16:39Z</time>
      </trkpt>
      <trkpt lat="43.35587" lon="-1.5681">
        <ele>29.46</ele>
        <time>2023-08-12T13:16:40Z</time>
      </trkpt>
      <trkpt lat="43.35592" lon="-1.56787">
        <ele>29.46</ele>
        <time>2023-08-12T13:16:44Z</time>
      </trkpt>
      <trkpt lat="43.35621" lon="-1.56683">
        <ele>29.94</ele>
        <time>2023-08-12T13:17:01Z</time>
      </trkpt>
      <trkpt lat="43.35627" lon="-1.56616">
        <ele>30.42</ele>
        <time>2023-08-12T13:17:12Z</time>
      </trkpt>
      <trkpt lat="43.35624" lon="-1.56604">
        <ele>30.42</ele>
        <time>2023-08-12T13:17:14Z</time>
      </trkpt>
      <trkpt lat="43.35624" lon="-1.56593">
        <ele>30.42</ele>
        <time>2023-08-12T13:17:16Z</time>
      </trkpt>
      <trkpt lat="43.35624" lon="-1.56588">
        <ele>30.42</ele>
        <time>2023-08-12T13:17:17Z</time>
      </trkpt>
      <trkpt lat="43.35625" lon="-1.56576">
        <ele>30.42</ele>
        <time>2023-08-12T13:17:19Z</time>
      </trkpt>
      <trkpt lat="43.35622" lon="-1.56504">
        <ele>30.9</ele>
        <time>2023-08-12T13:17:30Z</time>
      </trkpt>
      <trkpt lat="43.35621" lon="-1.56497">
        <ele>30.9</ele>
        <time>2023-08-12T13:17:31Z</time>
      </trkpt>
      <trkpt lat="43.35621" lon="-1.5649">
        <ele>30.9</ele>
        <time>2023-08-12T13:17:32Z</time>
      </trkpt>
      <trkpt lat="43.35621" lon="-1.56484">
        <ele>31.38</ele>
        <time>2023-08-12T13:17:33Z</time>
      </trkpt>
      <trkpt lat="43.35621" lon="-1.56478">
        <ele>30.9</ele>
        <time>2023-08-12T13:17:34Z</time>
      </trkpt>
      <trkpt lat="43.3562" lon="-1.56471">
        <ele>30.9</ele>
        <time>2023-08-12T13:17:35Z</time>
      </trkpt>
      <trkpt lat="43.35619" lon="-1.56465">
        <ele>30.9</ele>
        <time>2023-08-12T13:17:36Z</time>
      </trkpt>
      <trkpt lat="43.35619" lon="-1.56399">
        <ele>30.42</ele>
        <time>2023-08-12T13:17:46Z</time>
      </trkpt>
      <trkpt lat="43.35616" lon="-1.56292">
        <ele>28.5</ele>
        <time>2023-08-12T13:18:01Z</time>
      </trkpt>
      <trkpt lat="43.35616" lon="-1.56285">
        <ele>28.5</ele>
        <time>2023-08-12T13:18:02Z</time>
      </trkpt>
      <trkpt lat="43.35616" lon="-1.5619">
        <ele>28.5</ele>
        <time>2023-08-12T13:18:15Z</time>
      </trkpt>
      <trkpt lat="43.35621" lon="-1.56128">
        <ele>28.98</ele>
        <time>2023-08-12T13:18:24Z</time>
      </trkpt>
      <trkpt lat="43.35623" lon="-1.56121">
        <ele>28.98</ele>
        <time>2023-08-12T13:18:25Z</time>
      </trkpt>
      <trkpt lat="43.35626" lon="-1.56116">
        <ele>29.46</ele>
        <time>2023-08-12T13:18:26Z</time>
      </trkpt>
      <trkpt lat="43.35644" lon="-1.56085">
        <ele>29.46</ele>
        <time>2023-08-12T13:18:32Z</time>
      </trkpt>
      <trkpt lat="43.35647" lon="-1.56081">
        <ele>29.46</ele>
        <time>2023-08-12T13:18:33Z</time>
      </trkpt>
      <trkpt lat="43.3565" lon="-1.56079">
        <ele>28.98</ele>
        <time>2023-08-12T13:18:34Z</time>
      </trkpt>
      <trkpt lat="43.35654" lon="-1.56077">
        <ele>29.94</ele>
        <time>2023-08-12T13:18:35Z</time>
      </trkpt>
      <trkpt lat="43.35658" lon="-1.56076">
        <ele>29.46</ele>
        <time>2023-08-12T13:18:36Z</time>
      </trkpt>
      <trkpt lat="43.35662" lon="-1.56074">
        <ele>29.94</ele>
        <time>2023-08-12T13:18:37Z</time>
      </trkpt>
      <trkpt lat="43.35729" lon="-1.5603">
        <ele>28.98</ele>
        <time>2023-08-12T13:18:53Z</time>
      </trkpt>
      <trkpt lat="43.35732" lon="-1.56025">
        <ele>28.98</ele>
        <time>2023-08-12T13:18:54Z</time>
      </trkpt>
      <trkpt lat="43.35735" lon="-1.5602">
        <ele>28.98</ele>
        <time>2023-08-12T13:18:55Z</time>
      </trkpt>
      <trkpt lat="43.35738" lon="-1.56015">
        <ele>28.98</ele>
        <time>2023-08-12T13:18:56Z</time>
      </trkpt>
      <trkpt lat="43.3574" lon="-1.56009">
        <ele>28.98</ele>
        <time>2023-08-12T13:18:57Z</time>
      </trkpt>
      <trkpt lat="43.35742" lon="-1.56002">
        <ele>29.46</ele>
        <time>2023-08-12T13:18:58Z</time>
      </trkpt>
      <trkpt lat="43.35742" lon="-1.55996">
        <ele>29.46</ele>
        <time>2023-08-12T13:18:59Z</time>
      </trkpt>
      <trkpt lat="43.35743" lon="-1.55991">
        <ele>29.46</ele>
        <time>2023-08-12T13:19:00Z</time>
      </trkpt>
      <trkpt lat="43.35745" lon="-1.55985">
        <ele>28.98</ele>
        <time>2023-08-12T13:19:01Z</time>
      </trkpt>
      <trkpt lat="43.35748" lon="-1.5598">
        <ele>29.46</ele>
        <time>2023-08-12T13:19:02Z</time>
      </trkpt>
      <trkpt lat="43.35751" lon="-1.55975">
        <ele>29.46</ele>
        <time>2023-08-12T13:19:03Z</time>
      </trkpt>
      <trkpt lat="43.35754" lon="-1.5597">
        <ele>29.46</ele>
        <time>2023-08-12T13:19:04Z</time>
      </trkpt>
      <trkpt lat="43.35758" lon="-1.55967">
        <ele>29.46</ele>
        <time>2023-08-12T13:19:05Z</time>
      </trkpt>
      <trkpt lat="43.35762" lon="-1.55966">
        <ele>29.46</ele>
        <time>2023-08-12T13:19:06Z</time>
      </trkpt>
      <trkpt lat="43.35766" lon="-1.55963">
        <ele>29.46</ele>
        <time>2023-08-12T13:19:07Z</time>
      </trkpt>
      <trkpt lat="43.3577" lon="-1.55958">
        <ele>29.94</ele>
        <time>2023-08-12T13:19:08Z</time>
      </trkpt>
      <trkpt lat="43.35783" lon="-1.55935">
        <ele>30.42</ele>
        <time>2023-08-12T13:19:13Z</time>
      </trkpt>
      <trkpt lat="43.35785" lon="-1.5593">
        <ele>29.94</ele>
        <time>2023-08-12T13:19:14Z</time>
      </trkpt>
      <trkpt lat="43.35786" lon="-1.55924">
        <ele>29.94</ele>
        <time>2023-08-12T13:19:15Z</time>
      </trkpt>
      <trkpt lat="43.35787" lon="-1.55918">
        <ele>30.42</ele>
        <time>2023-08-12T13:19:16Z</time>
      </trkpt>
      <trkpt lat="43.35788" lon="-1.55913">
        <ele>30.42</ele>
        <time>2023-08-12T13:19:17Z</time>
      </trkpt>
      <trkpt lat="43.35787" lon="-1.55811">
        <ele>30.42</ele>
        <time>2023-08-12T13:19:33Z</time>
      </trkpt>
      <trkpt lat="43.35782" lon="-1.55715">
        <ele>30.42</ele>
        <time>2023-08-12T13:19:48Z</time>
      </trkpt>
      <trkpt lat="43.35785" lon="-1.55616">
        <ele>30.9</ele>
        <time>2023-08-12T13:20:03Z</time>
      </trkpt>
      <trkpt lat="43.35797" lon="-1.55493">
        <ele>30.42</ele>
        <time>2023-08-12T13:20:21Z</time>
      </trkpt>
      <trkpt lat="43.35782" lon="-1.55366">
        <ele>30.42</ele>
        <time>2023-08-12T13:20:39Z</time>
      </trkpt>
      <trkpt lat="43.35761" lon="-1.5527">
        <ele>31.38</ele>
        <time>2023-08-12T13:20:54Z</time>
      </trkpt>
      <trkpt lat="43.35713" lon="-1.55198">
        <ele>31.38</ele>
        <time>2023-08-12T13:21:10Z</time>
      </trkpt>
      <trkpt lat="43.35668" lon="-1.55114">
        <ele>30.9</ele>
        <time>2023-08-12T13:21:26Z</time>
      </trkpt>
      <trkpt lat="43.35665" lon="-1.55102">
        <ele>30.42</ele>
        <time>2023-08-12T13:21:28Z</time>
      </trkpt>
      <trkpt lat="43.3564" lon="-1.55057">
        <ele>29.94</ele>
        <time>2023-08-12T13:21:39Z</time>
      </trkpt>
      <trkpt lat="43.35636" lon="-1.55057">
        <ele>29.94</ele>
        <time>2023-08-12T13:21:40Z</time>
      </trkpt>
      <trkpt lat="43.35593" lon="-1.55059">
        <ele>29.94</ele>
        <time>2023-08-12T13:21:53Z</time>
      </trkpt>
      <trkpt lat="43.35527" lon="-1.55054">
        <ele>30.42</ele>
        <time>2023-08-12T13:22:10Z</time>
      </trkpt>
      <trkpt lat="43.35464" lon="-1.55037">
        <ele>31.86</ele>
        <time>2023-08-12T13:22:26Z</time>
      </trkpt>
      <trkpt lat="43.35417" lon="-1.55025">
        <ele>31.86</ele>
        <time>2023-08-12T13:22:40Z</time>
      </trkpt>
      <trkpt lat="43.35356" lon="-1.55007">
        <ele>31.38</ele>
        <time>2023-08-12T13:22:55Z</time>
      </trkpt>
      <trkpt lat="43.35283" lon="-1.54987">
        <ele>31.86</ele>
        <time>2023-08-12T13:23:11Z</time>
      </trkpt>
      <trkpt lat="43.35199" lon="-1.54966">
        <ele>31.38</ele>
        <time>2023-08-12T13:23:28Z</time>
      </trkpt>
      <trkpt lat="43.35156" lon="-1.54953">
        <ele>31.38</ele>
        <time>2023-08-12T13:23:37Z</time>
      </trkpt>
      <trkpt lat="43.35152" lon="-1.54953">
        <ele>31.38</ele>
        <time>2023-08-12T13:23:38Z</time>
      </trkpt>
      <trkpt lat="43.35148" lon="-1.54953">
        <ele>31.86</ele>
        <time>2023-08-12T13:23:39Z</time>
      </trkpt>
      <trkpt lat="43.35146" lon="-1.54956">
        <ele>31.38</ele>
        <time>2023-08-12T13:23:40Z</time>
      </trkpt>
      <trkpt lat="43.35144" lon="-1.54958">
        <ele>31.38</ele>
        <time>2023-08-12T13:23:41Z</time>
      </trkpt>
      <trkpt lat="43.35142" lon="-1.54961">
        <ele>31.38</ele>
        <time>2023-08-12T13:23:42Z</time>
      </trkpt>
      <trkpt lat="43.35141" lon="-1.54964">
        <ele>31.86</ele>
        <time>2023-08-12T13:23:43Z</time>
      </trkpt>
      <trkpt lat="43.3514" lon="-1.54968">
        <ele>31.38</ele>
        <time>2023-08-12T13:23:44Z</time>
      </trkpt>
      <trkpt lat="43.35138" lon="-1.54972">
        <ele>31.38</ele>
        <time>2023-08-12T13:23:45Z</time>
      </trkpt>
      <trkpt lat="43.35108" lon="-1.54986">
        <ele>31.86</ele>
        <time>2023-08-12T13:23:55Z</time>
      </trkpt>
      <trkpt lat="43.351" lon="-1.54975">
        <ele>31.86</ele>
        <time>2023-08-12T13:23:58Z</time>
      </trkpt>
      <trkpt lat="43.35099" lon="-1.5497">
        <ele>31.86</ele>
        <time>2023-08-12T13:23:59Z</time>
      </trkpt>
      <trkpt lat="43.35097" lon="-1.54965">
        <ele>32.34</ele>
        <time>2023-08-12T13:24:00Z</time>
      </trkpt>
      <trkpt lat="43.35076" lon="-1.54913">
        <ele>32.82</ele>
        <time>2023-08-12T13:24:12Z</time>
      </trkpt>
      <trkpt lat="43.35015" lon="-1.54882">
        <ele>33.3</ele>
        <time>2023-08-12T13:24:27Z</time>
      </trkpt>
      <trkpt lat="43.34987" lon="-1.54868">
        <ele>34.26</ele>
        <time>2023-08-12T13:24:33Z</time>
      </trkpt>
      <trkpt lat="43.34982" lon="-1.54866">
        <ele>34.26</ele>
        <time>2023-08-12T13:24:34Z</time>
      </trkpt>
      <trkpt lat="43.34906" lon="-1.54818">
        <ele>34.26</ele>
        <time>2023-08-12T13:24:51Z</time>
      </trkpt>
      <trkpt lat="43.34845" lon="-1.54741">
        <ele>34.26</ele>
        <time>2023-08-12T13:25:08Z</time>
      </trkpt>
      <trkpt lat="43.34786" lon="-1.54644">
        <ele>35.23</ele>
        <time>2023-08-12T13:25:27Z</time>
      </trkpt>
      <trkpt lat="43.34729" lon="-1.54558">
        <ele>35.23</ele>
        <time>2023-08-12T13:25:44Z</time>
      </trkpt>
      <trkpt lat="43.34687" lon="-1.54469">
        <ele>36.67</ele>
        <time>2023-08-12T13:26:00Z</time>
      </trkpt>
      <trkpt lat="43.34674" lon="-1.54365">
        <ele>36.67</ele>
        <time>2023-08-12T13:26:15Z</time>
      </trkpt>
      <trkpt lat="43.34665" lon="-1.5427">
        <ele>37.15</ele>
        <time>2023-08-12T13:26:29Z</time>
      </trkpt>
      <trkpt lat="43.34663" lon="-1.54248">
        <ele>37.15</ele>
        <time>2023-08-12T13:26:32Z</time>
      </trkpt>
      <trkpt lat="43.34654" lon="-1.54191">
        <ele>38.59</ele>
        <time>2023-08-12T13:26:42Z</time>
      </trkpt>
      <trkpt lat="43.34627" lon="-1.5413">
        <ele>40.03</ele>
        <time>2023-08-12T13:26:54Z</time>
      </trkpt>
      <trkpt lat="43.34588" lon="-1.54048">
        <ele>41.95</ele>
        <time>2023-08-12T13:27:11Z</time>
      </trkpt>
      <trkpt lat="43.34568" lon="-1.53959">
        <ele>42.92</ele>
        <time>2023-08-12T13:27:28Z</time>
      </trkpt>
      <trkpt lat="43.34565" lon="-1.53875">
        <ele>44.36</ele>
        <time>2023-08-12T13:27:43Z</time>
      </trkpt>
      <trkpt lat="43.34549" lon="-1.53799">
        <ele>47.24</ele>
        <time>2023-08-12T13:27:59Z</time>
      </trkpt>
      <trkpt lat="43.3453" lon="-1.53714">
        <ele>49.65</ele>
        <time>2023-08-12T13:28:18Z</time>
      </trkpt>
      <trkpt lat="43.34514" lon="-1.53614">
        <ele>50.13</ele>
        <time>2023-08-12T13:28:37Z</time>
      </trkpt>
      <trkpt lat="43.34499" lon="-1.53506">
        <ele>50.13</ele>
        <time>2023-08-12T13:28:53Z</time>
      </trkpt>
      <trkpt lat="43.34484" lon="-1.53368">
        <ele>47.24</ele>
        <time>2023-08-12T13:29:09Z</time>
      </trkpt>
      <trkpt lat="43.34466" lon="-1.53213">
        <ele>47.24</ele>
        <time>2023-08-12T13:29:28Z</time>
      </trkpt>
      <trkpt lat="43.34457" lon="-1.53099">
        <ele>46.28</ele>
        <time>2023-08-12T13:29:44Z</time>
      </trkpt>
      <trkpt lat="43.34453" lon="-1.53035">
        <ele>45.8</ele>
        <time>2023-08-12T13:29:52Z</time>
      </trkpt>
      <trkpt lat="43.34423" lon="-1.52921">
        <ele>44.36</ele>
        <time>2023-08-12T13:30:06Z</time>
      </trkpt>
      <trkpt lat="43.3442" lon="-1.52914">
        <ele>44.36</ele>
        <time>2023-08-12T13:30:07Z</time>
      </trkpt>
      <trkpt lat="43.34374" lon="-1.52829">
        <ele>44.84</ele>
        <time>2023-08-12T13:30:23Z</time>
      </trkpt>
      <trkpt lat="43.34362" lon="-1.5281">
        <ele>44.84</ele>
        <time>2023-08-12T13:30:27Z</time>
      </trkpt>
      <trkpt lat="43.34358" lon="-1.52807">
        <ele>44.84</ele>
        <time>2023-08-12T13:30:28Z</time>
      </trkpt>
      <trkpt lat="43.34353" lon="-1.52804">
        <ele>44.36</ele>
        <time>2023-08-12T13:30:29Z</time>
      </trkpt>
      <trkpt lat="43.34341" lon="-1.528">
        <ele>44.84</ele>
        <time>2023-08-12T13:30:31Z</time>
      </trkpt>
      <trkpt lat="43.34337" lon="-1.52797">
        <ele>44.84</ele>
        <time>2023-08-12T13:30:32Z</time>
      </trkpt>
      <trkpt lat="43.34332" lon="-1.52793">
        <ele>44.84</ele>
        <time>2023-08-12T13:30:33Z</time>
      </trkpt>
      <trkpt lat="43.34328" lon="-1.52787">
        <ele>44.84</ele>
        <time>2023-08-12T13:30:34Z</time>
      </trkpt>
      <trkpt lat="43.34327" lon="-1.52781">
        <ele>45.32</ele>
        <time>2023-08-12T13:30:35Z</time>
      </trkpt>
      <trkpt lat="43.34326" lon="-1.52774">
        <ele>44.84</ele>
        <time>2023-08-12T13:30:36Z</time>
      </trkpt>
      <trkpt lat="43.34328" lon="-1.52768">
        <ele>45.32</ele>
        <time>2023-08-12T13:30:37Z</time>
      </trkpt>
      <trkpt lat="43.34331" lon="-1.52764">
        <ele>45.32</ele>
        <time>2023-08-12T13:30:38Z</time>
      </trkpt>
      <trkpt lat="43.34335" lon="-1.5276">
        <ele>45.8</ele>
        <time>2023-08-12T13:30:39Z</time>
      </trkpt>
      <trkpt lat="43.34339" lon="-1.52758">
        <ele>45.8</ele>
        <time>2023-08-12T13:30:40Z</time>
      </trkpt>
      <trkpt lat="43.34343" lon="-1.52758">
        <ele>45.8</ele>
        <time>2023-08-12T13:30:41Z</time>
      </trkpt>
      <trkpt lat="43.34346" lon="-1.52758">
        <ele>45.8</ele>
        <time>2023-08-12T13:30:42Z</time>
      </trkpt>
      <trkpt lat="43.34348" lon="-1.5276">
        <ele>45.8</ele>
        <time>2023-08-12T13:30:43Z</time>
      </trkpt>
      <trkpt lat="43.34351" lon="-1.52762">
        <ele>45.32</ele>
        <time>2023-08-12T13:30:44Z</time>
      </trkpt>
      <trkpt lat="43.34386" lon="-1.52777">
        <ele>46.76</ele>
        <time>2023-08-12T13:30:58Z</time>
      </trkpt>
      <trkpt lat="43.34416" lon="-1.52774">
        <ele>48.68</ele>
        <time>2023-08-12T13:31:12Z</time>
      </trkpt>
      <trkpt lat="43.34455" lon="-1.52775">
        <ele>50.13</ele>
        <time>2023-08-12T13:31:28Z</time>
      </trkpt>
      <trkpt lat="43.34457" lon="-1.52774">
        <ele>50.13</ele>
        <time>2023-08-12T13:31:29Z</time>
      </trkpt>
      <trkpt lat="43.34492" lon="-1.52753">
        <ele>52.53</ele>
        <time>2023-08-12T13:31:47Z</time>
      </trkpt>
      <trkpt lat="43.34514" lon="-1.52732">
        <ele>54.45</ele>
        <time>2023-08-12T13:32:02Z</time>
      </trkpt>
      <trkpt lat="43.34533" lon="-1.52684">
        <ele>54.93</ele>
        <time>2023-08-12T13:32:17Z</time>
      </trkpt>
      <trkpt lat="43.34544" lon="-1.52654">
        <ele>55.89</ele>
        <time>2023-08-12T13:32:30Z</time>
      </trkpt>
      <trkpt lat="43.3455" lon="-1.52643">
        <ele>55.41</ele>
        <time>2023-08-12T13:32:42Z</time>
      </trkpt>
      <trkpt lat="43.34546" lon="-1.52641">
        <ele>55.41</ele>
        <time>2023-08-12T13:33:08Z</time>
      </trkpt>
      <trkpt lat="43.34548" lon="-1.52637">
        <ele>55.41</ele>
        <time>2023-08-12T13:33:38Z</time>
      </trkpt>
      <trkpt lat="43.34551" lon="-1.52643">
        <ele>55.41</ele>
        <time>2023-08-12T13:33:57Z</time>
      </trkpt>
      <trkpt lat="43.34552" lon="-1.52644">
        <ele>55.89</ele>
        <time>2023-08-12T13:33:58Z</time>
      </trkpt>
      <trkpt lat="43.34549" lon="-1.52658">
        <ele>55.89</ele>
        <time>2023-08-12T13:34:04Z</time>
      </trkpt>
      <trkpt lat="43.34527" lon="-1.52705">
        <ele>55.41</ele>
        <time>2023-08-12T13:34:18Z</time>
      </trkpt>
      <trkpt lat="43.34509" lon="-1.52747">
        <ele>53.97</ele>
        <time>2023-08-12T13:34:28Z</time>
      </trkpt>
      <trkpt lat="43.34506" lon="-1.52751">
        <ele>53.97</ele>
        <time>2023-08-12T13:34:29Z</time>
      </trkpt>
      <trkpt lat="43.34501" lon="-1.52754">
        <ele>53.49</ele>
        <time>2023-08-12T13:34:30Z</time>
      </trkpt>
      <trkpt lat="43.34472" lon="-1.52775">
        <ele>51.09</ele>
        <time>2023-08-12T13:34:35Z</time>
      </trkpt>
      <trkpt lat="43.34465" lon="-1.52778">
        <ele>50.61</ele>
        <time>2023-08-12T13:34:36Z</time>
      </trkpt>
      <trkpt lat="43.34457" lon="-1.5278">
        <ele>50.13</ele>
        <time>2023-08-12T13:34:37Z</time>
      </trkpt>
      <trkpt lat="43.34425" lon="-1.52782">
        <ele>49.16</ele>
        <time>2023-08-12T13:34:41Z</time>
      </trkpt>
      <trkpt lat="43.34411" lon="-1.52781">
        <ele>47.72</ele>
        <time>2023-08-12T13:34:43Z</time>
      </trkpt>
      <trkpt lat="43.3437" lon="-1.52778">
        <ele>45.8</ele>
        <time>2023-08-12T13:34:49Z</time>
      </trkpt>
      <trkpt lat="43.34365" lon="-1.52779">
        <ele>45.8</ele>
        <time>2023-08-12T13:34:50Z</time>
      </trkpt>
      <trkpt lat="43.34359" lon="-1.52783">
        <ele>45.32</ele>
        <time>2023-08-12T13:34:51Z</time>
      </trkpt>
      <trkpt lat="43.34354" lon="-1.52788">
        <ele>45.32</ele>
        <time>2023-08-12T13:34:52Z</time>
      </trkpt>
      <trkpt lat="43.3435" lon="-1.52794">
        <ele>45.32</ele>
        <time>2023-08-12T13:34:53Z</time>
      </trkpt>
      <trkpt lat="43.34346" lon="-1.52799">
        <ele>44.84</ele>
        <time>2023-08-12T13:34:54Z</time>
      </trkpt>
      <trkpt lat="43.3434" lon="-1.52802">
        <ele>45.32</ele>
        <time>2023-08-12T13:34:55Z</time>
      </trkpt>
      <trkpt lat="43.34335" lon="-1.52802">
        <ele>44.36</ele>
        <time>2023-08-12T13:34:56Z</time>
      </trkpt>
      <trkpt lat="43.34329" lon="-1.52799">
        <ele>44.84</ele>
        <time>2023-08-12T13:34:57Z</time>
      </trkpt>
      <trkpt lat="43.34325" lon="-1.52794">
        <ele>44.36</ele>
        <time>2023-08-12T13:34:58Z</time>
      </trkpt>
      <trkpt lat="43.34323" lon="-1.52786">
        <ele>44.36</ele>
        <time>2023-08-12T13:34:59Z</time>
      </trkpt>
      <trkpt lat="43.34323" lon="-1.52779">
        <ele>44.84</ele>
        <time>2023-08-12T13:35:00Z</time>
      </trkpt>
      <trkpt lat="43.34323" lon="-1.52773">
        <ele>44.84</ele>
        <time>2023-08-12T13:35:01Z</time>
      </trkpt>
      <trkpt lat="43.34323" lon="-1.52767">
        <ele>44.84</ele>
        <time>2023-08-12T13:35:02Z</time>
      </trkpt>
      <trkpt lat="43.34324" lon="-1.52761">
        <ele>44.84</ele>
        <time>2023-08-12T13:35:03Z</time>
      </trkpt>
      <trkpt lat="43.34323" lon="-1.52755">
        <ele>44.84</ele>
        <time>2023-08-12T13:35:04Z</time>
      </trkpt>
      <trkpt lat="43.34299" lon="-1.52703">
        <ele>45.8</ele>
        <time>2023-08-12T13:35:15Z</time>
      </trkpt>
      <trkpt lat="43.34294" lon="-1.52694">
        <ele>45.8</ele>
        <time>2023-08-12T13:35:17Z</time>
      </trkpt>
      <trkpt lat="43.34253" lon="-1.52628">
        <ele>46.28</ele>
        <time>2023-08-12T13:35:32Z</time>
      </trkpt>
      <trkpt lat="43.34251" lon="-1.52623">
        <ele>46.28</ele>
        <time>2023-08-12T13:35:33Z</time>
      </trkpt>
      <trkpt lat="43.34209" lon="-1.52543">
        <ele>47.24</ele>
        <time>2023-08-12T13:35:50Z</time>
      </trkpt>
      <trkpt lat="43.34163" lon="-1.52463">
        <ele>48.2</ele>
        <time>2023-08-12T13:36:07Z</time>
      </trkpt>
      <trkpt lat="43.34113" lon="-1.52358">
        <ele>48.68</ele>
        <time>2023-08-12T13:36:27Z</time>
      </trkpt>
      <trkpt lat="43.34074" lon="-1.52272">
        <ele>50.13</ele>
        <time>2023-08-12T13:36:43Z</time>
      </trkpt>
      <trkpt lat="43.34037" lon="-1.52188">
        <ele>51.09</ele>
        <time>2023-08-12T13:36:59Z</time>
      </trkpt>
      <trkpt lat="43.33991" lon="-1.5208">
        <ele>51.57</ele>
        <time>2023-08-12T13:37:19Z</time>
      </trkpt>
      <trkpt lat="43.33952" lon="-1.51984">
        <ele>53.01</ele>
        <time>2023-08-12T13:37:37Z</time>
      </trkpt>
      <trkpt lat="43.33914" lon="-1.51893">
        <ele>53.49</ele>
        <time>2023-08-12T13:37:54Z</time>
      </trkpt>
      <trkpt lat="43.33868" lon="-1.51781">
        <ele>54.45</ele>
        <time>2023-08-12T13:38:15Z</time>
      </trkpt>
      <trkpt lat="43.33821" lon="-1.51671">
        <ele>56.37</ele>
        <time>2023-08-12T13:38:36Z</time>
      </trkpt>
      <trkpt lat="43.33778" lon="-1.51575">
        <ele>58.3</ele>
        <time>2023-08-12T13:38:55Z</time>
      </trkpt>
      <trkpt lat="43.33751" lon="-1.51509">
        <ele>58.3</ele>
        <time>2023-08-12T13:39:08Z</time>
      </trkpt>
      <trkpt lat="43.3375" lon="-1.51504">
        <ele>58.3</ele>
        <time>2023-08-12T13:39:09Z</time>
      </trkpt>
      <trkpt lat="43.33717" lon="-1.514">
        <ele>59.26</ele>
        <time>2023-08-12T13:39:27Z</time>
      </trkpt>
      <trkpt lat="43.33682" lon="-1.51285">
        <ele>60.7</ele>
        <time>2023-08-12T13:39:47Z</time>
      </trkpt>
      <trkpt lat="43.33651" lon="-1.51188">
        <ele>63.1</ele>
        <time>2023-08-12T13:40:07Z</time>
      </trkpt>
      <trkpt lat="43.33628" lon="-1.51084">
        <ele>64.55</ele>
        <time>2023-08-12T13:40:29Z</time>
      </trkpt>
      <trkpt lat="43.33614" lon="-1.50975">
        <ele>65.51</ele>
        <time>2023-08-12T13:40:51Z</time>
      </trkpt>
      <trkpt lat="43.336" lon="-1.50854">
        <ele>67.91</ele>
        <time>2023-08-12T13:41:15Z</time>
      </trkpt>
      <trkpt lat="43.33587" lon="-1.50751">
        <ele>69.35</ele>
        <time>2023-08-12T13:41:35Z</time>
      </trkpt>
      <trkpt lat="43.33595" lon="-1.50661">
        <ele>69.35</ele>
        <time>2023-08-12T13:41:52Z</time>
      </trkpt>
      <trkpt lat="43.3361" lon="-1.50573">
        <ele>70.79</ele>
        <time>2023-08-12T13:42:09Z</time>
      </trkpt>
      <trkpt lat="43.33602" lon="-1.50505">
        <ele>72.24</ele>
        <time>2023-08-12T13:42:23Z</time>
      </trkpt>
      <trkpt lat="43.3358" lon="-1.50439">
        <ele>73.68</ele>
        <time>2023-08-12T13:42:37Z</time>
      </trkpt>
      <trkpt lat="43.33555" lon="-1.50389">
        <ele>74.64</ele>
        <time>2023-08-12T13:42:49Z</time>
      </trkpt>
      <trkpt lat="43.33517" lon="-1.50336">
        <ele>76.56</ele>
        <time>2023-08-12T13:43:04Z</time>
      </trkpt>
      <trkpt lat="43.33478" lon="-1.50271">
        <ele>78.97</ele>
        <time>2023-08-12T13:43:21Z</time>
      </trkpt>
      <trkpt lat="43.33452" lon="-1.50203">
        <ele>80.89</ele>
        <time>2023-08-12T13:43:39Z</time>
      </trkpt>
      <trkpt lat="43.33423" lon="-1.50133">
        <ele>82.81</ele>
        <time>2023-08-12T13:43:58Z</time>
      </trkpt>
      <trkpt lat="43.33399" lon="-1.50065">
        <ele>85.21</ele>
        <time>2023-08-12T13:44:16Z</time>
      </trkpt>
      <trkpt lat="43.33368" lon="-1.49983">
        <ele>88.1</ele>
        <time>2023-08-12T13:44:38Z</time>
      </trkpt>
      <trkpt lat="43.33346" lon="-1.4992">
        <ele>90.5</ele>
        <time>2023-08-12T13:44:56Z</time>
      </trkpt>
      <trkpt lat="43.33326" lon="-1.49862">
        <ele>92.42</ele>
        <time>2023-08-12T13:45:14Z</time>
      </trkpt>
      <trkpt lat="43.33315" lon="-1.49813">
        <ele>94.35</ele>
        <time>2023-08-12T13:45:28Z</time>
      </trkpt>
      <trkpt lat="43.3331" lon="-1.49766">
        <ele>95.79</ele>
        <time>2023-08-12T13:45:43Z</time>
      </trkpt>
      <trkpt lat="43.33315" lon="-1.497">
        <ele>97.71</ele>
        <time>2023-08-12T13:46:00Z</time>
      </trkpt>
      <trkpt lat="43.33321" lon="-1.49634">
        <ele>100.11</ele>
        <time>2023-08-12T13:46:18Z</time>
      </trkpt>
      <trkpt lat="43.33327" lon="-1.49579">
        <ele>102.04</ele>
        <time>2023-08-12T13:46:35Z</time>
      </trkpt>
      <trkpt lat="43.33332" lon="-1.49535">
        <ele>104.44</ele>
        <time>2023-08-12T13:46:49Z</time>
      </trkpt>
      <trkpt lat="43.33336" lon="-1.49483">
        <ele>106.84</ele>
        <time>2023-08-12T13:47:05Z</time>
      </trkpt>
      <trkpt lat="43.33336" lon="-1.49429">
        <ele>109.25</ele>
        <time>2023-08-12T13:47:23Z</time>
      </trkpt>
      <trkpt lat="43.33336" lon="-1.49386">
        <ele>110.69</ele>
        <time>2023-08-12T13:47:39Z</time>
      </trkpt>
      <trkpt lat="43.33332" lon="-1.49332">
        <ele>112.61</ele>
        <time>2023-08-12T13:47:59Z</time>
      </trkpt>
      <trkpt lat="43.33327" lon="-1.49273">
        <ele>115.01</ele>
        <time>2023-08-12T13:48:21Z</time>
      </trkpt>
      <trkpt lat="43.33322" lon="-1.49214">
        <ele>117.42</ele>
        <time>2023-08-12T13:48:42Z</time>
      </trkpt>
      <trkpt lat="43.33318" lon="-1.49161">
        <ele>120.3</ele>
        <time>2023-08-12T13:49:01Z</time>
      </trkpt>
      <trkpt lat="43.33314" lon="-1.49106">
        <ele>122.71</ele>
        <time>2023-08-12T13:49:21Z</time>
      </trkpt>
      <trkpt lat="43.33311" lon="-1.49063">
        <ele>125.11</ele>
        <time>2023-08-12T13:49:37Z</time>
      </trkpt>
      <trkpt lat="43.33307" lon="-1.49009">
        <ele>127.51</ele>
        <time>2023-08-12T13:49:57Z</time>
      </trkpt>
      <trkpt lat="43.33297" lon="-1.48968">
        <ele>129.43</ele>
        <time>2023-08-12T13:50:13Z</time>
      </trkpt>
      <trkpt lat="43.33274" lon="-1.48936">
        <ele>131.36</ele>
        <time>2023-08-12T13:50:30Z</time>
      </trkpt>
      <trkpt lat="43.33274" lon="-1.48928">
        <ele>131.36</ele>
        <time>2023-08-12T13:50:41Z</time>
      </trkpt>
      <trkpt lat="43.33268" lon="-1.48927">
        <ele>131.36</ele>
        <time>2023-08-12T13:51:15Z</time>
      </trkpt>
      <trkpt lat="43.33267" lon="-1.48931">
        <ele>131.84</ele>
        <time>2023-08-12T13:51:45Z</time>
      </trkpt>
      <trkpt lat="43.33271" lon="-1.48934">
        <ele>131.36</ele>
        <time>2023-08-12T13:52:01Z</time>
      </trkpt>
      <trkpt lat="43.33273" lon="-1.48933">
        <ele>131.84</ele>
        <time>2023-08-12T13:52:02Z</time>
      </trkpt>
      <trkpt lat="43.33281" lon="-1.48892">
        <ele>130.4</ele>
        <time>2023-08-12T13:52:12Z</time>
      </trkpt>
      <trkpt lat="43.33306" lon="-1.488">
        <ele>127.51</ele>
        <time>2023-08-12T13:52:25Z</time>
      </trkpt>
      <trkpt lat="43.33326" lon="-1.48757">
        <ele>125.11</ele>
        <time>2023-08-12T13:52:30Z</time>
      </trkpt>
      <trkpt lat="43.3337" lon="-1.48697">
        <ele>121.74</ele>
        <time>2023-08-12T13:52:37Z</time>
      </trkpt>
      <trkpt lat="43.33419" lon="-1.48637">
        <ele>118.38</ele>
        <time>2023-08-12T13:52:44Z</time>
      </trkpt>
      <trkpt lat="43.33441" lon="-1.48556">
        <ele>114.53</ele>
        <time>2023-08-12T13:52:50Z</time>
      </trkpt>
      <trkpt lat="43.33461" lon="-1.48458">
        <ele>112.13</ele>
        <time>2023-08-12T13:52:57Z</time>
      </trkpt>
      <trkpt lat="43.3349" lon="-1.48394">
        <ele>108.29</ele>
        <time>2023-08-12T13:53:02Z</time>
      </trkpt>
      <trkpt lat="43.33511" lon="-1.48359">
        <ele>107.32</ele>
        <time>2023-08-12T13:53:05Z</time>
      </trkpt>
      <trkpt lat="43.33544" lon="-1.48301">
        <ele>103.96</ele>
        <time>2023-08-12T13:53:10Z</time>
      </trkpt>
      <trkpt lat="43.33549" lon="-1.48288">
        <ele>103.96</ele>
        <time>2023-08-12T13:53:11Z</time>
      </trkpt>
      <trkpt lat="43.33572" lon="-1.48203">
        <ele>100.6</ele>
        <time>2023-08-12T13:53:17Z</time>
      </trkpt>
      <trkpt lat="43.33583" lon="-1.4813">
        <ele>97.71</ele>
        <time>2023-08-12T13:53:22Z</time>
      </trkpt>
      <trkpt lat="43.33591" lon="-1.4807">
        <ele>95.31</ele>
        <time>2023-08-12T13:53:26Z</time>
      </trkpt>
      <trkpt lat="43.33599" lon="-1.48012">
        <ele>93.39</ele>
        <time>2023-08-12T13:53:30Z</time>
      </trkpt>
      <trkpt lat="43.3361" lon="-1.47925">
        <ele>90.5</ele>
        <time>2023-08-12T13:53:36Z</time>
      </trkpt>
      <trkpt lat="43.33621" lon="-1.47838">
        <ele>87.62</ele>
        <time>2023-08-12T13:53:42Z</time>
      </trkpt>
      <trkpt lat="43.33631" lon="-1.47797">
        <ele>86.18</ele>
        <time>2023-08-12T13:53:45Z</time>
      </trkpt>
      <trkpt lat="43.33637" lon="-1.47785">
        <ele>85.21</ele>
        <time>2023-08-12T13:53:46Z</time>
      </trkpt>
      <trkpt lat="43.33643" lon="-1.47773">
        <ele>84.73</ele>
        <time>2023-08-12T13:53:47Z</time>
      </trkpt>
      <trkpt lat="43.3365" lon="-1.47763">
        <ele>84.25</ele>
        <time>2023-08-12T13:53:48Z</time>
      </trkpt>
      <trkpt lat="43.33658" lon="-1.47753">
        <ele>83.29</ele>
        <time>2023-08-12T13:53:49Z</time>
      </trkpt>
      <trkpt lat="43.33667" lon="-1.47744">
        <ele>83.29</ele>
        <time>2023-08-12T13:53:50Z</time>
      </trkpt>
      <trkpt lat="43.33676" lon="-1.47737">
        <ele>82.33</ele>
        <time>2023-08-12T13:53:51Z</time>
      </trkpt>
      <trkpt lat="43.33686" lon="-1.47731">
        <ele>81.85</ele>
        <time>2023-08-12T13:53:52Z</time>
      </trkpt>
      <trkpt lat="43.33697" lon="-1.47726">
        <ele>81.37</ele>
        <time>2023-08-12T13:53:53Z</time>
      </trkpt>
      <trkpt lat="43.33708" lon="-1.47724">
        <ele>80.41</ele>
        <time>2023-08-12T13:53:54Z</time>
      </trkpt>
      <trkpt lat="43.33719" lon="-1.47723">
        <ele>79.93</ele>
        <time>2023-08-12T13:53:55Z</time>
      </trkpt>
      <trkpt lat="43.3373" lon="-1.47724">
        <ele>79.45</ele>
        <time>2023-08-12T13:53:56Z</time>
      </trkpt>
      <trkpt lat="43.33741" lon="-1.47725">
        <ele>78.97</ele>
        <time>2023-08-12T13:53:57Z</time>
      </trkpt>
      <trkpt lat="43.33752" lon="-1.47728">
        <ele>77.52</ele>
        <time>2023-08-12T13:53:58Z</time>
      </trkpt>
      <trkpt lat="43.33818" lon="-1.47747">
        <ele>74.64</ele>
        <time>2023-08-12T13:54:04Z</time>
      </trkpt>
      <trkpt lat="43.33899" lon="-1.4775">
        <ele>72.72</ele>
        <time>2023-08-12T13:54:12Z</time>
      </trkpt>
      <trkpt lat="43.33907" lon="-1.47747">
        <ele>73.2</ele>
        <time>2023-08-12T13:54:13Z</time>
      </trkpt>
      <trkpt lat="43.33915" lon="-1.47744">
        <ele>73.2</ele>
        <time>2023-08-12T13:54:14Z</time>
      </trkpt>
      <trkpt lat="43.33923" lon="-1.47739">
        <ele>73.68</ele>
        <time>2023-08-12T13:54:15Z</time>
      </trkpt>
      <trkpt lat="43.3393" lon="-1.47734">
        <ele>73.2</ele>
        <time>2023-08-12T13:54:16Z</time>
      </trkpt>
      <trkpt lat="43.33992" lon="-1.4767">
        <ele>74.16</ele>
        <time>2023-08-12T13:54:28Z</time>
      </trkpt>
      <trkpt lat="43.34051" lon="-1.47582">
        <ele>74.16</ele>
        <time>2023-08-12T13:54:45Z</time>
      </trkpt>
      <trkpt lat="43.34069" lon="-1.47549">
        <ele>73.2</ele>
        <time>2023-08-12T13:54:51Z</time>
      </trkpt>
      <trkpt lat="43.3407" lon="-1.47542">
        <ele>72.72</ele>
        <time>2023-08-12T13:54:52Z</time>
      </trkpt>
      <trkpt lat="43.34071" lon="-1.47535">
        <ele>73.2</ele>
        <time>2023-08-12T13:54:53Z</time>
      </trkpt>
      <trkpt lat="43.34072" lon="-1.47528">
        <ele>72.72</ele>
        <time>2023-08-12T13:54:54Z</time>
      </trkpt>
      <trkpt lat="43.34074" lon="-1.47522">
        <ele>72.72</ele>
        <time>2023-08-12T13:54:55Z</time>
      </trkpt>
      <trkpt lat="43.34076" lon="-1.47515">
        <ele>72.24</ele>
        <time>2023-08-12T13:54:56Z</time>
      </trkpt>
      <trkpt lat="43.34079" lon="-1.47509">
        <ele>72.24</ele>
        <time>2023-08-12T13:54:57Z</time>
      </trkpt>
      <trkpt lat="43.34081" lon="-1.47502">
        <ele>71.76</ele>
        <time>2023-08-12T13:54:58Z</time>
      </trkpt>
      <trkpt lat="43.34083" lon="-1.47495">
        <ele>71.76</ele>
        <time>2023-08-12T13:54:59Z</time>
      </trkpt>
      <trkpt lat="43.34083" lon="-1.47488">
        <ele>71.76</ele>
        <time>2023-08-12T13:55:00Z</time>
      </trkpt>
      <trkpt lat="43.34083" lon="-1.47436">
        <ele>71.27</ele>
        <time>2023-08-12T13:55:07Z</time>
      </trkpt>
      <trkpt lat="43.34071" lon="-1.47323">
        <ele>70.79</ele>
        <time>2023-08-12T13:55:24Z</time>
      </trkpt>
      <trkpt lat="43.3407" lon="-1.47304">
        <ele>71.27</ele>
        <time>2023-08-12T13:55:27Z</time>
      </trkpt>
      <trkpt lat="43.34069" lon="-1.47298">
        <ele>71.27</ele>
        <time>2023-08-12T13:55:28Z</time>
      </trkpt>
      <trkpt lat="43.34066" lon="-1.4727">
        <ele>70.31</ele>
        <time>2023-08-12T13:55:33Z</time>
      </trkpt>
      <trkpt lat="43.34066" lon="-1.47259">
        <ele>70.79</ele>
        <time>2023-08-12T13:55:35Z</time>
      </trkpt>
      <trkpt lat="43.34064" lon="-1.47253">
        <ele>70.31</ele>
        <time>2023-08-12T13:55:36Z</time>
      </trkpt>
      <trkpt lat="43.34062" lon="-1.47248">
        <ele>70.31</ele>
        <time>2023-08-12T13:55:37Z</time>
      </trkpt>
      <trkpt lat="43.34019" lon="-1.47156">
        <ele>69.83</ele>
        <time>2023-08-12T13:55:55Z</time>
      </trkpt>
      <trkpt lat="43.33973" lon="-1.47064">
        <ele>70.79</ele>
        <time>2023-08-12T13:56:13Z</time>
      </trkpt>
      <trkpt lat="43.33916" lon="-1.46995">
        <ele>71.27</ele>
        <time>2023-08-12T13:56:30Z</time>
      </trkpt>
      <trkpt lat="43.33864" lon="-1.46948">
        <ele>73.2</ele>
        <time>2023-08-12T13:56:46Z</time>
      </trkpt>
      <trkpt lat="43.33806" lon="-1.46912">
        <ele>74.64</ele>
        <time>2023-08-12T13:57:04Z</time>
      </trkpt>
      <trkpt lat="43.33754" lon="-1.46867">
        <ele>75.12</ele>
        <time>2023-08-12T13:57:20Z</time>
      </trkpt>
      <trkpt lat="43.33715" lon="-1.46789">
        <ele>74.16</ele>
        <time>2023-08-12T13:57:34Z</time>
      </trkpt>
      <trkpt lat="43.33695" lon="-1.46677">
        <ele>72.24</ele>
        <time>2023-08-12T13:57:48Z</time>
      </trkpt>
      <trkpt lat="43.33694" lon="-1.46533">
        <ele>69.83</ele>
        <time>2023-08-12T13:58:04Z</time>
      </trkpt>
      <trkpt lat="43.33672" lon="-1.46388">
        <ele>66.47</ele>
        <time>2023-08-12T13:58:18Z</time>
      </trkpt>
      <trkpt lat="43.33639" lon="-1.46215">
        <ele>63.58</ele>
        <time>2023-08-12T13:58:35Z</time>
      </trkpt>
      <trkpt lat="43.3359" lon="-1.4612">
        <ele>63.58</ele>
        <time>2023-08-12T13:58:48Z</time>
      </trkpt>
      <trkpt lat="43.33553" lon="-1.46008">
        <ele>63.58</ele>
        <time>2023-08-12T13:59:03Z</time>
      </trkpt>
      <trkpt lat="43.33547" lon="-1.45978">
        <ele>64.07</ele>
        <time>2023-08-12T13:59:07Z</time>
      </trkpt>
      <trkpt lat="43.33552" lon="-1.45898">
        <ele>65.51</ele>
        <time>2023-08-12T13:59:20Z</time>
      </trkpt>
      <trkpt lat="43.33593" lon="-1.45827">
        <ele>65.51</ele>
        <time>2023-08-12T13:59:34Z</time>
      </trkpt>
      <trkpt lat="43.33657" lon="-1.45732">
        <ele>65.99</ele>
        <time>2023-08-12T13:59:53Z</time>
      </trkpt>
      <trkpt lat="43.33725" lon="-1.45636">
        <ele>65.99</ele>
        <time>2023-08-12T14:00:12Z</time>
      </trkpt>
      <trkpt lat="43.33778" lon="-1.45544">
        <ele>65.99</ele>
        <time>2023-08-12T14:00:28Z</time>
      </trkpt>
      <trkpt lat="43.33825" lon="-1.4543">
        <ele>65.99</ele>
        <time>2023-08-12T14:00:46Z</time>
      </trkpt>
      <trkpt lat="43.33875" lon="-1.45355">
        <ele>67.43</ele>
        <time>2023-08-12T14:01:02Z</time>
      </trkpt>
      <trkpt lat="43.33924" lon="-1.45307">
        <ele>68.87</ele>
        <time>2023-08-12T14:01:19Z</time>
      </trkpt>
      <trkpt lat="43.3397" lon="-1.45259">
        <ele>68.39</ele>
        <time>2023-08-12T14:01:33Z</time>
      </trkpt>
      <trkpt lat="43.33985" lon="-1.45228">
        <ele>67.43</ele>
        <time>2023-08-12T14:01:38Z</time>
      </trkpt>
      <trkpt lat="43.33986" lon="-1.45221">
        <ele>67.43</ele>
        <time>2023-08-12T14:01:39Z</time>
      </trkpt>
      <trkpt lat="43.33996" lon="-1.45142">
        <ele>69.35</ele>
        <time>2023-08-12T14:01:53Z</time>
      </trkpt>
      <trkpt lat="43.3401" lon="-1.45129">
        <ele>70.31</ele>
        <time>2023-08-12T14:02:00Z</time>
      </trkpt>
      <trkpt lat="43.34012" lon="-1.45129">
        <ele>70.31</ele>
        <time>2023-08-12T14:02:01Z</time>
      </trkpt>
      <trkpt lat="43.34036" lon="-1.45122">
        <ele>72.72</ele>
        <time>2023-08-12T14:02:14Z</time>
      </trkpt>
      <trkpt lat="43.34051" lon="-1.45085">
        <ele>74.64</ele>
        <time>2023-08-12T14:02:31Z</time>
      </trkpt>
      <trkpt lat="43.34065" lon="-1.45059">
        <ele>76.56</ele>
        <time>2023-08-12T14:02:45Z</time>
      </trkpt>
      <trkpt lat="43.34082" lon="-1.45014">
        <ele>79.45</ele>
        <time>2023-08-12T14:03:06Z</time>
      </trkpt>
      <trkpt lat="43.341" lon="-1.44977">
        <ele>82.33</ele>
        <time>2023-08-12T14:03:24Z</time>
      </trkpt>
      <trkpt lat="43.34118" lon="-1.44949">
        <ele>83.77</ele>
        <time>2023-08-12T14:03:40Z</time>
      </trkpt>
      <trkpt lat="43.3412" lon="-1.44937">
        <ele>83.29</ele>
        <time>2023-08-12T14:03:55Z</time>
      </trkpt>
      <trkpt lat="43.34122" lon="-1.44934">
        <ele>83.29</ele>
        <time>2023-08-12T14:04:19Z</time>
      </trkpt>
      <trkpt lat="43.34121" lon="-1.44934">
        <ele>83.29</ele>
        <time>2023-08-12T14:04:34Z</time>
      </trkpt>
      <trkpt lat="43.34109" lon="-1.44918">
        <ele>83.29</ele>
        <time>2023-08-12T14:04:50Z</time>
      </trkpt>
      <trkpt lat="43.34091" lon="-1.44904">
        <ele>84.25</ele>
        <time>2023-08-12T14:05:04Z</time>
      </trkpt>
      <trkpt lat="43.34083" lon="-1.44901">
        <ele>83.77</ele>
        <time>2023-08-12T14:05:24Z</time>
      </trkpt>
      <trkpt lat="43.34078" lon="-1.44901">
        <ele>83.77</ele>
        <time>2023-08-12T14:05:50Z</time>
      </trkpt>
      <trkpt lat="43.34078" lon="-1.44897">
        <ele>83.77</ele>
        <time>2023-08-12T14:06:07Z</time>
      </trkpt>
      <trkpt lat="43.34073" lon="-1.44893">
        <ele>83.77</ele>
        <time>2023-08-12T14:06:23Z</time>
      </trkpt>
      <trkpt lat="43.34067" lon="-1.44885">
        <ele>83.29</ele>
        <time>2023-08-12T14:06:39Z</time>
      </trkpt>
      <trkpt lat="43.34065" lon="-1.44874">
        <ele>83.29</ele>
        <time>2023-08-12T14:06:58Z</time>
      </trkpt>
      <trkpt lat="43.34062" lon="-1.44858">
        <ele>83.77</ele>
        <time>2023-08-12T14:07:19Z</time>
      </trkpt>
      <trkpt lat="43.34059" lon="-1.4485">
        <ele>83.77</ele>
        <time>2023-08-12T14:07:38Z</time>
      </trkpt>
      <trkpt lat="43.34058" lon="-1.44841">
        <ele>83.77</ele>
        <time>2023-08-12T14:08:01Z</time>
      </trkpt>
      <trkpt lat="43.34058" lon="-1.44822">
        <ele>84.25</ele>
        <time>2023-08-12T14:08:20Z</time>
      </trkpt>
      <trkpt lat="43.34056" lon="-1.44804">
        <ele>83.77</ele>
        <time>2023-08-12T14:08:38Z</time>
      </trkpt>
      <trkpt lat="43.3405" lon="-1.44795">
        <ele>84.25</ele>
        <time>2023-08-12T14:08:55Z</time>
      </trkpt>
      <trkpt lat="43.34045" lon="-1.44791">
        <ele>84.73</ele>
        <time>2023-08-12T14:09:10Z</time>
      </trkpt>
      <trkpt lat="43.34042" lon="-1.44794">
        <ele>85.21</ele>
        <time>2023-08-12T14:09:27Z</time>
      </trkpt>
      <trkpt lat="43.3405" lon="-1.44803">
        <ele>84.73</ele>
        <time>2023-08-12T14:09:44Z</time>
      </trkpt>
      <trkpt lat="43.34056" lon="-1.44804">
        <ele>84.73</ele>
        <time>2023-08-12T14:10:01Z</time>
      </trkpt>
      <trkpt lat="43.3406" lon="-1.44816">
        <ele>84.73</ele>
        <time>2023-08-12T14:10:17Z</time>
      </trkpt>
      <trkpt lat="43.34061" lon="-1.44826">
        <ele>84.73</ele>
        <time>2023-08-12T14:10:31Z</time>
      </trkpt>
      <trkpt lat="43.34064" lon="-1.44844">
        <ele>85.21</ele>
        <time>2023-08-12T14:10:49Z</time>
      </trkpt>
      <trkpt lat="43.34063" lon="-1.44862">
        <ele>85.21</ele>
        <time>2023-08-12T14:11:08Z</time>
      </trkpt>
      <trkpt lat="43.34068" lon="-1.44869">
        <ele>85.21</ele>
        <time>2023-08-12T14:11:24Z</time>
      </trkpt>
      <trkpt lat="43.34068" lon="-1.44881">
        <ele>85.69</ele>
        <time>2023-08-12T14:11:40Z</time>
      </trkpt>
      <trkpt lat="43.34075" lon="-1.44896">
        <ele>85.69</ele>
        <time>2023-08-12T14:11:59Z</time>
      </trkpt>
      <trkpt lat="43.34086" lon="-1.44908">
        <ele>85.69</ele>
        <time>2023-08-12T14:12:15Z</time>
      </trkpt>
      <trkpt lat="43.34091" lon="-1.4491">
        <ele>85.69</ele>
        <time>2023-08-12T14:12:33Z</time>
      </trkpt>
      <trkpt lat="43.34103" lon="-1.44926">
        <ele>85.69</ele>
        <time>2023-08-12T14:12:51Z</time>
      </trkpt>
      <trkpt lat="43.34105" lon="-1.44927">
        <ele>85.69</ele>
        <time>2023-08-12T14:13:12Z</time>
      </trkpt>
      <trkpt lat="43.34109" lon="-1.44933">
        <ele>86.18</ele>
        <time>2023-08-12T14:13:19Z</time>
      </trkpt>
      <trkpt lat="43.34133" lon="-1.44943">
        <ele>85.21</ele>
        <time>2023-08-12T14:13:32Z</time>
      </trkpt>
      <trkpt lat="43.34145" lon="-1.44948">
        <ele>85.21</ele>
        <time>2023-08-12T14:13:49Z</time>
      </trkpt>
      <trkpt lat="43.34155" lon="-1.44947">
        <ele>85.21</ele>
        <time>2023-08-12T14:13:59Z</time>
      </trkpt>
      <trkpt lat="43.34172" lon="-1.44957">
        <ele>84.73</ele>
        <time>2023-08-12T14:14:12Z</time>
      </trkpt>
      <trkpt lat="43.34215" lon="-1.44982">
        <ele>83.77</ele>
        <time>2023-08-12T14:14:26Z</time>
      </trkpt>
      <trkpt lat="43.34243" lon="-1.44991">
        <ele>80.41</ele>
        <time>2023-08-12T14:14:34Z</time>
      </trkpt>
      <trkpt lat="43.34272" lon="-1.44987">
        <ele>77.04</ele>
        <time>2023-08-12T14:14:39Z</time>
      </trkpt>
      <trkpt lat="43.34292" lon="-1.44979">
        <ele>73.68</ele>
        <time>2023-08-12T14:14:42Z</time>
      </trkpt>
      <trkpt lat="43.34326" lon="-1.4497">
        <ele>70.31</ele>
        <time>2023-08-12T14:14:46Z</time>
      </trkpt>
      <trkpt lat="43.34359" lon="-1.44966">
        <ele>66.95</ele>
        <time>2023-08-12T14:14:50Z</time>
      </trkpt>
      <trkpt lat="43.34365" lon="-1.44965">
        <ele>66.95</ele>
        <time>2023-08-12T14:14:51Z</time>
      </trkpt>
      <trkpt lat="43.34383" lon="-1.44968">
        <ele>65.51</ele>
        <time>2023-08-12T14:14:54Z</time>
      </trkpt>
      <trkpt lat="43.34416" lon="-1.4498">
        <ele>64.07</ele>
        <time>2023-08-12T14:14:59Z</time>
      </trkpt>
      <trkpt lat="43.34442" lon="-1.44993">
        <ele>62.62</ele>
        <time>2023-08-12T14:15:03Z</time>
      </trkpt>
      <trkpt lat="43.34484" lon="-1.45012">
        <ele>59.74</ele>
        <time>2023-08-12T14:15:09Z</time>
      </trkpt>
      <trkpt lat="43.34539" lon="-1.45049">
        <ele>59.74</ele>
        <time>2023-08-12T14:15:18Z</time>
      </trkpt>
      <trkpt lat="43.34545" lon="-1.45052">
        <ele>59.74</ele>
        <time>2023-08-12T14:15:19Z</time>
      </trkpt>
      <trkpt lat="43.3455" lon="-1.45054">
        <ele>59.74</ele>
        <time>2023-08-12T14:15:20Z</time>
      </trkpt>
      <trkpt lat="43.34555" lon="-1.45055">
        <ele>59.74</ele>
        <time>2023-08-12T14:15:21Z</time>
      </trkpt>
      <trkpt lat="43.34559" lon="-1.45054">
        <ele>59.74</ele>
        <time>2023-08-12T14:15:22Z</time>
      </trkpt>
      <trkpt lat="43.34563" lon="-1.45054">
        <ele>59.74</ele>
        <time>2023-08-12T14:15:23Z</time>
      </trkpt>
      <trkpt lat="43.34567" lon="-1.45052">
        <ele>60.22</ele>
        <time>2023-08-12T14:15:24Z</time>
      </trkpt>
      <trkpt lat="43.3457" lon="-1.4505">
        <ele>60.22</ele>
        <time>2023-08-12T14:15:25Z</time>
      </trkpt>
      <trkpt lat="43.34573" lon="-1.45049">
        <ele>60.7</ele>
        <time>2023-08-12T14:15:26Z</time>
      </trkpt>
      <trkpt lat="43.34576" lon="-1.45047">
        <ele>60.7</ele>
        <time>2023-08-12T14:15:27Z</time>
      </trkpt>
      <trkpt lat="43.34578" lon="-1.45044">
        <ele>60.7</ele>
        <time>2023-08-12T14:15:28Z</time>
      </trkpt>
      <trkpt lat="43.3458" lon="-1.45042">
        <ele>60.7</ele>
        <time>2023-08-12T14:15:29Z</time>
      </trkpt>
      <trkpt lat="43.346" lon="-1.45004">
        <ele>62.62</ele>
        <time>2023-08-12T14:15:45Z</time>
      </trkpt>
      <trkpt lat="43.34618" lon="-1.44974">
        <ele>65.51</ele>
        <time>2023-08-12T14:16:01Z</time>
      </trkpt>
      <trkpt lat="43.34638" lon="-1.4495">
        <ele>68.87</ele>
        <time>2023-08-12T14:16:17Z</time>
      </trkpt>
      <trkpt lat="43.34659" lon="-1.44935">
        <ele>71.27</ele>
        <time>2023-08-12T14:16:32Z</time>
      </trkpt>
      <trkpt lat="43.34693" lon="-1.44934">
        <ele>70.79</ele>
        <time>2023-08-12T14:16:48Z</time>
      </trkpt>
      <trkpt lat="43.3474" lon="-1.44949">
        <ele>70.31</ele>
        <time>2023-08-12T14:17:04Z</time>
      </trkpt>
      <trkpt lat="43.34788" lon="-1.44983">
        <ele>68.87</ele>
        <time>2023-08-12T14:17:21Z</time>
      </trkpt>
      <trkpt lat="43.34804" lon="-1.44989">
        <ele>67.43</ele>
        <time>2023-08-12T14:17:25Z</time>
      </trkpt>
      <trkpt lat="43.34808" lon="-1.44991">
        <ele>67.43</ele>
        <time>2023-08-12T14:17:26Z</time>
      </trkpt>
      <trkpt lat="43.3483" lon="-1.45001">
        <ele>65.03</ele>
        <time>2023-08-12T14:17:31Z</time>
      </trkpt>
      <trkpt lat="43.34858" lon="-1.45019">
        <ele>61.66</ele>
        <time>2023-08-12T14:17:37Z</time>
      </trkpt>
      <trkpt lat="43.34863" lon="-1.45021">
        <ele>60.7</ele>
        <time>2023-08-12T14:17:38Z</time>
      </trkpt>
      <trkpt lat="43.34877" lon="-1.45026">
        <ele>58.78</ele>
        <time>2023-08-12T14:17:41Z</time>
      </trkpt>
      <trkpt lat="43.34882" lon="-1.4503">
        <ele>57.82</ele>
        <time>2023-08-12T14:17:42Z</time>
      </trkpt>
      <trkpt lat="43.34891" lon="-1.4504">
        <ele>56.86</ele>
        <time>2023-08-12T14:17:44Z</time>
      </trkpt>
      <trkpt lat="43.34895" lon="-1.45048">
        <ele>55.41</ele>
        <time>2023-08-12T14:17:45Z</time>
      </trkpt>
      <trkpt lat="43.34916" lon="-1.45082">
        <ele>53.01</ele>
        <time>2023-08-12T14:17:49Z</time>
      </trkpt>
      <trkpt lat="43.34923" lon="-1.45089">
        <ele>53.01</ele>
        <time>2023-08-12T14:17:50Z</time>
      </trkpt>
      <trkpt lat="43.3493" lon="-1.45092">
        <ele>52.53</ele>
        <time>2023-08-12T14:17:51Z</time>
      </trkpt>
      <trkpt lat="43.34938" lon="-1.45092">
        <ele>52.53</ele>
        <time>2023-08-12T14:17:52Z</time>
      </trkpt>
      <trkpt lat="43.34945" lon="-1.45089">
        <ele>52.53</ele>
        <time>2023-08-12T14:17:53Z</time>
      </trkpt>
      <trkpt lat="43.34952" lon="-1.45084">
        <ele>51.57</ele>
        <time>2023-08-12T14:17:54Z</time>
      </trkpt>
      <trkpt lat="43.34958" lon="-1.4508">
        <ele>51.57</ele>
        <time>2023-08-12T14:17:55Z</time>
      </trkpt>
      <trkpt lat="43.34982" lon="-1.45062">
        <ele>51.57</ele>
        <time>2023-08-12T14:17:59Z</time>
      </trkpt>
      <trkpt lat="43.34988" lon="-1.4506">
        <ele>52.05</ele>
        <time>2023-08-12T14:18:00Z</time>
      </trkpt>
      <trkpt lat="43.34999" lon="-1.45057">
        <ele>52.53</ele>
        <time>2023-08-12T14:18:02Z</time>
      </trkpt>
      <trkpt lat="43.35003" lon="-1.45057">
        <ele>52.53</ele>
        <time>2023-08-12T14:18:03Z</time>
      </trkpt>
      <trkpt lat="43.35007" lon="-1.45058">
        <ele>53.01</ele>
        <time>2023-08-12T14:18:04Z</time>
      </trkpt>
      <trkpt lat="43.35011" lon="-1.45059">
        <ele>53.01</ele>
        <time>2023-08-12T14:18:05Z</time>
      </trkpt>
      <trkpt lat="43.35015" lon="-1.45059">
        <ele>53.01</ele>
        <time>2023-08-12T14:18:06Z</time>
      </trkpt>
      <trkpt lat="43.35019" lon="-1.4506">
        <ele>53.01</ele>
        <time>2023-08-12T14:18:07Z</time>
      </trkpt>
      <trkpt lat="43.3506" lon="-1.45061">
        <ele>53.97</ele>
        <time>2023-08-12T14:18:23Z</time>
      </trkpt>
      <trkpt lat="43.35102" lon="-1.45061">
        <ele>54.93</ele>
        <time>2023-08-12T14:18:38Z</time>
      </trkpt>
      <trkpt lat="43.35155" lon="-1.45067">
        <ele>53.97</ele>
        <time>2023-08-12T14:18:54Z</time>
      </trkpt>
      <trkpt lat="43.35203" lon="-1.45069">
        <ele>52.05</ele>
        <time>2023-08-12T14:19:06Z</time>
      </trkpt>
      <trkpt lat="43.35258" lon="-1.45071">
        <ele>48.2</ele>
        <time>2023-08-12T14:19:16Z</time>
      </trkpt>
      <trkpt lat="43.35288" lon="-1.45068">
        <ele>46.28</ele>
        <time>2023-08-12T14:19:20Z</time>
      </trkpt>
      <trkpt lat="43.35296" lon="-1.45065">
        <ele>46.28</ele>
        <time>2023-08-12T14:19:21Z</time>
      </trkpt>
      <trkpt lat="43.35304" lon="-1.4506">
        <ele>45.8</ele>
        <time>2023-08-12T14:19:22Z</time>
      </trkpt>
      <trkpt lat="43.3531" lon="-1.45055">
        <ele>45.8</ele>
        <time>2023-08-12T14:19:23Z</time>
      </trkpt>
      <trkpt lat="43.35315" lon="-1.45049">
        <ele>45.8</ele>
        <time>2023-08-12T14:19:24Z</time>
      </trkpt>
      <trkpt lat="43.35318" lon="-1.45043">
        <ele>45.32</ele>
        <time>2023-08-12T14:19:25Z</time>
      </trkpt>
      <trkpt lat="43.3532" lon="-1.45039">
        <ele>45.32</ele>
        <time>2023-08-12T14:19:26Z</time>
      </trkpt>
      <trkpt lat="43.3532" lon="-1.45035">
        <ele>46.28</ele>
        <time>2023-08-12T14:19:27Z</time>
      </trkpt>
      <trkpt lat="43.35319" lon="-1.45031">
        <ele>45.8</ele>
        <time>2023-08-12T14:19:28Z</time>
      </trkpt>
      <trkpt lat="43.3532" lon="-1.45011">
        <ele>45.8</ele>
        <time>2023-08-12T14:19:33Z</time>
      </trkpt>
      <trkpt lat="43.35328" lon="-1.44982">
        <ele>47.24</ele>
        <time>2023-08-12T14:19:47Z</time>
      </trkpt>
      <trkpt lat="43.35341" lon="-1.44958">
        <ele>49.65</ele>
        <time>2023-08-12T14:19:59Z</time>
      </trkpt>
      <trkpt lat="43.35341" lon="-1.44956">
        <ele>50.13</ele>
        <time>2023-08-12T14:20:00Z</time>
      </trkpt>
      <trkpt lat="43.35341" lon="-1.44954">
        <ele>49.65</ele>
        <time>2023-08-12T14:20:01Z</time>
      </trkpt>
      <trkpt lat="43.35341" lon="-1.44952">
        <ele>50.13</ele>
        <time>2023-08-12T14:20:02Z</time>
      </trkpt>
      <trkpt lat="43.35341" lon="-1.4495">
        <ele>50.61</ele>
        <time>2023-08-12T14:20:03Z</time>
      </trkpt>
      <trkpt lat="43.35342" lon="-1.44949">
        <ele>50.13</ele>
        <time>2023-08-12T14:20:04Z</time>
      </trkpt>
      <trkpt lat="43.35342" lon="-1.44947">
        <ele>50.13</ele>
        <time>2023-08-12T14:20:05Z</time>
      </trkpt>
      <trkpt lat="43.35342" lon="-1.44943">
        <ele>50.13</ele>
        <time>2023-08-12T14:20:18Z</time>
      </trkpt>
    </trkseg>
  </trk>
</gpx>